<?xml version="1.0" encoding="UTF-8" standalone="no" ?>
<gpx xmlns="http://www.topografix.com/GPX/1/1" xmlns:xsi="http://www.w3.org/2001/XMLSchema-instance" xsi:schemaLocation="http://www.topografix.com/GPX/1/1 http://www.topografix.com/GPX/1/1/gpx.xsd" version="1.1" creator="VisuGPX - https://www.visugpx.com">
  <metadata>
    <name>Stevenson - Station du Mont Lozère - Mijavols</name>
    <desc><![CDATA[Etape 5 - ASVEL Ski Montagne le 23 Mai 2012]]></desc>
  </metadata>
  <trk>
    <name><![CDATA[ACTIVE LOG063802]]></name>
    <trkseg>
      <trkpt lat="44.45258" lon="3.74758">
        <ele>1421.99</ele>
        <time>2012-05-23T06:38:00Z</time>
      </trkpt>
      <trkpt lat="44.45257" lon="3.74759">
        <ele>1422.013</ele>
        <time>2012-05-23T06:38:35Z</time>
      </trkpt>
      <trkpt lat="44.45256" lon="3.74759">
        <ele>1421.413</ele>
        <time>2012-05-23T06:43:24Z</time>
      </trkpt>
      <trkpt lat="44.45247" lon="3.74755">
        <ele>1421.247</ele>
        <time>2012-05-23T06:43:32Z</time>
      </trkpt>
      <trkpt lat="44.45241" lon="3.74757">
        <ele>1421.437</ele>
        <time>2012-05-23T06:43:36Z</time>
      </trkpt>
      <trkpt lat="44.45234" lon="3.74771">
        <ele>1422.289</ele>
        <time>2012-05-23T06:43:49Z</time>
      </trkpt>
      <trkpt lat="44.45232" lon="3.74777">
        <ele>1422.806</ele>
        <time>2012-05-23T06:43:54Z</time>
      </trkpt>
      <trkpt lat="44.45231" lon="3.74782">
        <ele>1423.366</ele>
        <time>2012-05-23T06:43:58Z</time>
      </trkpt>
      <trkpt lat="44.45228" lon="3.748">
        <ele>1423.352</ele>
        <time>2012-05-23T06:44:17Z</time>
      </trkpt>
      <trkpt lat="44.45227" lon="3.74804">
        <ele>1422.948</ele>
        <time>2012-05-23T06:44:20Z</time>
      </trkpt>
      <trkpt lat="44.45223" lon="3.74806">
        <ele>1423.697</ele>
        <time>2012-05-23T06:44:35Z</time>
      </trkpt>
      <trkpt lat="44.45219" lon="3.74808">
        <ele>1422.361</ele>
        <time>2012-05-23T06:46:03Z</time>
      </trkpt>
      <trkpt lat="44.45216" lon="3.74805">
        <ele>1422.431</ele>
        <time>2012-05-23T06:46:15Z</time>
      </trkpt>
      <trkpt lat="44.45193" lon="3.7479">
        <ele>1421.752</ele>
        <time>2012-05-23T06:46:35Z</time>
      </trkpt>
      <trkpt lat="44.45184" lon="3.74784">
        <ele>1421.566</ele>
        <time>2012-05-23T06:46:44Z</time>
      </trkpt>
      <trkpt lat="44.45171" lon="3.74783">
        <ele>1421.355</ele>
        <time>2012-05-23T06:47:00Z</time>
      </trkpt>
      <trkpt lat="44.45156" lon="3.7478">
        <ele>1422.047</ele>
        <time>2012-05-23T06:47:13Z</time>
      </trkpt>
      <trkpt lat="44.45154" lon="3.74781">
        <ele>1421.907</ele>
        <time>2012-05-23T06:47:15Z</time>
      </trkpt>
      <trkpt lat="44.45123" lon="3.74777">
        <ele>1424.051</ele>
        <time>2012-05-23T06:47:42Z</time>
      </trkpt>
      <trkpt lat="44.451" lon="3.74773">
        <ele>1424.545</ele>
        <time>2012-05-23T06:48:01Z</time>
      </trkpt>
      <trkpt lat="44.45078" lon="3.7477">
        <ele>1425.924</ele>
        <time>2012-05-23T06:48:20Z</time>
      </trkpt>
      <trkpt lat="44.45053" lon="3.74765">
        <ele>1427.167</ele>
        <time>2012-05-23T06:48:42Z</time>
      </trkpt>
      <trkpt lat="44.45033" lon="3.74759">
        <ele>1429.464</ele>
        <time>2012-05-23T06:49:00Z</time>
      </trkpt>
      <trkpt lat="44.45014" lon="3.74752">
        <ele>1431.333</ele>
        <time>2012-05-23T06:49:19Z</time>
      </trkpt>
      <trkpt lat="44.44993" lon="3.74744">
        <ele>1433.41</ele>
        <time>2012-05-23T06:49:39Z</time>
      </trkpt>
      <trkpt lat="44.44983" lon="3.74739">
        <ele>1434.627</ele>
        <time>2012-05-23T06:49:55Z</time>
      </trkpt>
      <trkpt lat="44.44964" lon="3.74733">
        <ele>1435.897</ele>
        <time>2012-05-23T06:50:12Z</time>
      </trkpt>
      <trkpt lat="44.44949" lon="3.74729">
        <ele>1437.433</ele>
        <time>2012-05-23T06:50:28Z</time>
      </trkpt>
      <trkpt lat="44.44932" lon="3.74724">
        <ele>1438.477</ele>
        <time>2012-05-23T06:50:46Z</time>
      </trkpt>
      <trkpt lat="44.44922" lon="3.74722">
        <ele>1439.122</ele>
        <time>2012-05-23T06:50:56Z</time>
      </trkpt>
      <trkpt lat="44.4492" lon="3.74722">
        <ele>1439.868</ele>
        <time>2012-05-23T06:50:58Z</time>
      </trkpt>
      <trkpt lat="44.44896" lon="3.74716">
        <ele>1442.055</ele>
        <time>2012-05-23T06:51:20Z</time>
      </trkpt>
      <trkpt lat="44.44876" lon="3.74712">
        <ele>1444.363</ele>
        <time>2012-05-23T06:51:39Z</time>
      </trkpt>
      <trkpt lat="44.44853" lon="3.74706">
        <ele>1446.574</ele>
        <time>2012-05-23T06:52:01Z</time>
      </trkpt>
      <trkpt lat="44.4483" lon="3.74705">
        <ele>1448.008</ele>
        <time>2012-05-23T06:52:26Z</time>
      </trkpt>
      <trkpt lat="44.44803" lon="3.74701">
        <ele>1449.917</ele>
        <time>2012-05-23T06:52:50Z</time>
      </trkpt>
      <trkpt lat="44.4478" lon="3.747">
        <ele>1451.64</ele>
        <time>2012-05-23T06:53:09Z</time>
      </trkpt>
      <trkpt lat="44.44758" lon="3.74701">
        <ele>1453.502</ele>
        <time>2012-05-23T06:53:28Z</time>
      </trkpt>
      <trkpt lat="44.44733" lon="3.74704">
        <ele>1455.504</ele>
        <time>2012-05-23T06:53:49Z</time>
      </trkpt>
      <trkpt lat="44.44712" lon="3.74712">
        <ele>1457.377</ele>
        <time>2012-05-23T06:54:09Z</time>
      </trkpt>
      <trkpt lat="44.44705" lon="3.74716">
        <ele>1458.047</ele>
        <time>2012-05-23T06:54:16Z</time>
      </trkpt>
      <trkpt lat="44.44698" lon="3.7471">
        <ele>1457.311</ele>
        <time>2012-05-23T06:54:22Z</time>
      </trkpt>
      <trkpt lat="44.44693" lon="3.74712">
        <ele>1457.42</ele>
        <time>2012-05-23T06:54:27Z</time>
      </trkpt>
      <trkpt lat="44.44687" lon="3.74718">
        <ele>1458.096</ele>
        <time>2012-05-23T06:54:35Z</time>
      </trkpt>
      <trkpt lat="44.44684" lon="3.74721">
        <ele>1459.143</ele>
        <time>2012-05-23T06:54:40Z</time>
      </trkpt>
      <trkpt lat="44.4467" lon="3.74726">
        <ele>1460.536</ele>
        <time>2012-05-23T06:54:56Z</time>
      </trkpt>
      <trkpt lat="44.4465" lon="3.74732">
        <ele>1462.969</ele>
        <time>2012-05-23T06:55:16Z</time>
      </trkpt>
      <trkpt lat="44.44641" lon="3.74736">
        <ele>1464.148</ele>
        <time>2012-05-23T06:55:26Z</time>
      </trkpt>
      <trkpt lat="44.44622" lon="3.74744">
        <ele>1466.563</ele>
        <time>2012-05-23T06:55:46Z</time>
      </trkpt>
      <trkpt lat="44.44607" lon="3.74748">
        <ele>1468.314</ele>
        <time>2012-05-23T06:56:04Z</time>
      </trkpt>
      <trkpt lat="44.44594" lon="3.74754">
        <ele>1471.415</ele>
        <time>2012-05-23T06:56:19Z</time>
      </trkpt>
      <trkpt lat="44.44575" lon="3.74762">
        <ele>1473.522</ele>
        <time>2012-05-23T06:56:41Z</time>
      </trkpt>
      <trkpt lat="44.44572" lon="3.74764">
        <ele>1474.179</ele>
        <time>2012-05-23T06:56:45Z</time>
      </trkpt>
      <trkpt lat="44.44561" lon="3.74772">
        <ele>1477.236</ele>
        <time>2012-05-23T06:56:59Z</time>
      </trkpt>
      <trkpt lat="44.44545" lon="3.74777">
        <ele>1480.812</ele>
        <time>2012-05-23T06:57:20Z</time>
      </trkpt>
      <trkpt lat="44.44532" lon="3.74782">
        <ele>1482.075</ele>
        <time>2012-05-23T06:57:38Z</time>
      </trkpt>
      <trkpt lat="44.44521" lon="3.74794">
        <ele>1483.362</ele>
        <time>2012-05-23T06:57:54Z</time>
      </trkpt>
      <trkpt lat="44.44512" lon="3.7481">
        <ele>1484.63</ele>
        <time>2012-05-23T06:58:11Z</time>
      </trkpt>
      <trkpt lat="44.44497" lon="3.74817">
        <ele>1487.051</ele>
        <time>2012-05-23T06:58:30Z</time>
      </trkpt>
      <trkpt lat="44.44496" lon="3.74817">
        <ele>1487.511</ele>
        <time>2012-05-23T06:58:32Z</time>
      </trkpt>
      <trkpt lat="44.44485" lon="3.74817">
        <ele>1488.607</ele>
        <time>2012-05-23T06:58:46Z</time>
      </trkpt>
      <trkpt lat="44.44464" lon="3.74821">
        <ele>1491.431</ele>
        <time>2012-05-23T06:59:07Z</time>
      </trkpt>
      <trkpt lat="44.44447" lon="3.74822">
        <ele>1493.118</ele>
        <time>2012-05-23T06:59:26Z</time>
      </trkpt>
      <trkpt lat="44.4443" lon="3.74829">
        <ele>1494.977</ele>
        <time>2012-05-23T06:59:45Z</time>
      </trkpt>
      <trkpt lat="44.44428" lon="3.74829">
        <ele>1494.937</ele>
        <time>2012-05-23T06:59:47Z</time>
      </trkpt>
      <trkpt lat="44.4441" lon="3.74832">
        <ele>1497.824</ele>
        <time>2012-05-23T07:00:07Z</time>
      </trkpt>
      <trkpt lat="44.44397" lon="3.74839">
        <ele>1499.683</ele>
        <time>2012-05-23T07:00:24Z</time>
      </trkpt>
      <trkpt lat="44.44387" lon="3.74848">
        <ele>1502.009</ele>
        <time>2012-05-23T07:00:38Z</time>
      </trkpt>
      <trkpt lat="44.44376" lon="3.74861">
        <ele>1504.562</ele>
        <time>2012-05-23T07:00:55Z</time>
      </trkpt>
      <trkpt lat="44.44362" lon="3.74873">
        <ele>1506.361</ele>
        <time>2012-05-23T07:01:13Z</time>
      </trkpt>
      <trkpt lat="44.44349" lon="3.74885">
        <ele>1508.772</ele>
        <time>2012-05-23T07:01:32Z</time>
      </trkpt>
      <trkpt lat="44.44337" lon="3.74897">
        <ele>1510.837</ele>
        <time>2012-05-23T07:01:49Z</time>
      </trkpt>
      <trkpt lat="44.44323" lon="3.74904">
        <ele>1513.587</ele>
        <time>2012-05-23T07:02:08Z</time>
      </trkpt>
      <trkpt lat="44.44316" lon="3.74909">
        <ele>1514.706</ele>
        <time>2012-05-23T07:02:20Z</time>
      </trkpt>
      <trkpt lat="44.44312" lon="3.74914">
        <ele>1514.994</ele>
        <time>2012-05-23T07:02:26Z</time>
      </trkpt>
      <trkpt lat="44.44294" lon="3.74923">
        <ele>1516.362</ele>
        <time>2012-05-23T07:02:47Z</time>
      </trkpt>
      <trkpt lat="44.44277" lon="3.74935">
        <ele>1518.681</ele>
        <time>2012-05-23T07:03:07Z</time>
      </trkpt>
      <trkpt lat="44.44275" lon="3.74936">
        <ele>1519.25</ele>
        <time>2012-05-23T07:03:09Z</time>
      </trkpt>
      <trkpt lat="44.44268" lon="3.74935">
        <ele>1519.756</ele>
        <time>2012-05-23T07:03:33Z</time>
      </trkpt>
      <trkpt lat="44.44251" lon="3.74945">
        <ele>1523.031</ele>
        <time>2012-05-23T07:03:50Z</time>
      </trkpt>
      <trkpt lat="44.4423" lon="3.7495">
        <ele>1523.954</ele>
        <time>2012-05-23T07:04:10Z</time>
      </trkpt>
      <trkpt lat="44.44215" lon="3.74952">
        <ele>1527.397</ele>
        <time>2012-05-23T07:04:24Z</time>
      </trkpt>
      <trkpt lat="44.44198" lon="3.74952">
        <ele>1528.105</ele>
        <time>2012-05-23T07:04:41Z</time>
      </trkpt>
      <trkpt lat="44.44188" lon="3.74953">
        <ele>1529.461</ele>
        <time>2012-05-23T07:04:54Z</time>
      </trkpt>
      <trkpt lat="44.44182" lon="3.74953">
        <ele>1529.998</ele>
        <time>2012-05-23T07:05:01Z</time>
      </trkpt>
      <trkpt lat="44.44165" lon="3.74952">
        <ele>1530.924</ele>
        <time>2012-05-23T07:05:28Z</time>
      </trkpt>
      <trkpt lat="44.44158" lon="3.74953">
        <ele>1531.804</ele>
        <time>2012-05-23T07:05:34Z</time>
      </trkpt>
      <trkpt lat="44.4414" lon="3.74951">
        <ele>1532.768</ele>
        <time>2012-05-23T07:05:50Z</time>
      </trkpt>
      <trkpt lat="44.44119" lon="3.74953">
        <ele>1534.766</ele>
        <time>2012-05-23T07:06:09Z</time>
      </trkpt>
      <trkpt lat="44.44107" lon="3.74953">
        <ele>1536.205</ele>
        <time>2012-05-23T07:06:20Z</time>
      </trkpt>
      <trkpt lat="44.44083" lon="3.74948">
        <ele>1537.229</ele>
        <time>2012-05-23T07:06:42Z</time>
      </trkpt>
      <trkpt lat="44.44065" lon="3.74951">
        <ele>1537.843</ele>
        <time>2012-05-23T07:07:01Z</time>
      </trkpt>
      <trkpt lat="44.44062" lon="3.74952">
        <ele>1538.919</ele>
        <time>2012-05-23T07:07:17Z</time>
      </trkpt>
      <trkpt lat="44.44052" lon="3.74951">
        <ele>1538.838</ele>
        <time>2012-05-23T07:07:29Z</time>
      </trkpt>
      <trkpt lat="44.44049" lon="3.7495">
        <ele>1539.425</ele>
        <time>2012-05-23T07:07:31Z</time>
      </trkpt>
      <trkpt lat="44.44042" lon="3.74952">
        <ele>1540.338</ele>
        <time>2012-05-23T07:07:37Z</time>
      </trkpt>
      <trkpt lat="44.44022" lon="3.74949">
        <ele>1540.272</ele>
        <time>2012-05-23T07:07:56Z</time>
      </trkpt>
      <trkpt lat="44.43996" lon="3.74943">
        <ele>1542.45</ele>
        <time>2012-05-23T07:08:43Z</time>
      </trkpt>
      <trkpt lat="44.43976" lon="3.74942">
        <ele>1543.006</ele>
        <time>2012-05-23T07:09:00Z</time>
      </trkpt>
      <trkpt lat="44.43955" lon="3.74939">
        <ele>1545.374</ele>
        <time>2012-05-23T07:09:21Z</time>
      </trkpt>
      <trkpt lat="44.4393" lon="3.74938">
        <ele>1545.913</ele>
        <time>2012-05-23T07:09:45Z</time>
      </trkpt>
      <trkpt lat="44.43907" lon="3.7494">
        <ele>1545.967</ele>
        <time>2012-05-23T07:10:09Z</time>
      </trkpt>
      <trkpt lat="44.43894" lon="3.74939">
        <ele>1547.871</ele>
        <time>2012-05-23T07:10:20Z</time>
      </trkpt>
      <trkpt lat="44.43878" lon="3.74934">
        <ele>1547.256</ele>
        <time>2012-05-23T07:10:37Z</time>
      </trkpt>
      <trkpt lat="44.43856" lon="3.74932">
        <ele>1548.306</ele>
        <time>2012-05-23T07:10:58Z</time>
      </trkpt>
      <trkpt lat="44.4384" lon="3.74934">
        <ele>1549.328</ele>
        <time>2012-05-23T07:11:14Z</time>
      </trkpt>
      <trkpt lat="44.43821" lon="3.7493">
        <ele>1550.875</ele>
        <time>2012-05-23T07:11:32Z</time>
      </trkpt>
      <trkpt lat="44.43808" lon="3.7493">
        <ele>1552.207</ele>
        <time>2012-05-23T07:11:45Z</time>
      </trkpt>
      <trkpt lat="44.43785" lon="3.74926">
        <ele>1553.39</ele>
        <time>2012-05-23T07:12:07Z</time>
      </trkpt>
      <trkpt lat="44.43759" lon="3.74927">
        <ele>1555.199</ele>
        <time>2012-05-23T07:12:30Z</time>
      </trkpt>
      <trkpt lat="44.43739" lon="3.74927">
        <ele>1556.483</ele>
        <time>2012-05-23T07:12:49Z</time>
      </trkpt>
      <trkpt lat="44.43718" lon="3.74925">
        <ele>1558.646</ele>
        <time>2012-05-23T07:13:09Z</time>
      </trkpt>
      <trkpt lat="44.43696" lon="3.74925">
        <ele>1559.936</ele>
        <time>2012-05-23T07:13:28Z</time>
      </trkpt>
      <trkpt lat="44.43674" lon="3.74927">
        <ele>1561.407</ele>
        <time>2012-05-23T07:13:49Z</time>
      </trkpt>
      <trkpt lat="44.43652" lon="3.74929">
        <ele>1563.449</ele>
        <time>2012-05-23T07:14:10Z</time>
      </trkpt>
      <trkpt lat="44.43628" lon="3.74931">
        <ele>1566.579</ele>
        <time>2012-05-23T07:14:32Z</time>
      </trkpt>
      <trkpt lat="44.43601" lon="3.74935">
        <ele>1568.461</ele>
        <time>2012-05-23T07:14:56Z</time>
      </trkpt>
      <trkpt lat="44.43577" lon="3.74935">
        <ele>1569.701</ele>
        <time>2012-05-23T07:15:17Z</time>
      </trkpt>
      <trkpt lat="44.4356" lon="3.7493">
        <ele>1570.567</ele>
        <time>2012-05-23T07:15:34Z</time>
      </trkpt>
      <trkpt lat="44.43537" lon="3.74926">
        <ele>1570.465</ele>
        <time>2012-05-23T07:15:54Z</time>
      </trkpt>
      <trkpt lat="44.43533" lon="3.74925">
        <ele>1571.847</ele>
        <time>2012-05-23T07:15:57Z</time>
      </trkpt>
      <trkpt lat="44.43508" lon="3.74917">
        <ele>1571.629</ele>
        <time>2012-05-23T07:16:20Z</time>
      </trkpt>
      <trkpt lat="44.43482" lon="3.74909">
        <ele>1571.189</ele>
        <time>2012-05-23T07:16:43Z</time>
      </trkpt>
      <trkpt lat="44.4346" lon="3.74904">
        <ele>1571.196</ele>
        <time>2012-05-23T07:17:02Z</time>
      </trkpt>
      <trkpt lat="44.43433" lon="3.74896">
        <ele>1570.697</ele>
        <time>2012-05-23T07:17:26Z</time>
      </trkpt>
      <trkpt lat="44.43411" lon="3.74892">
        <ele>1570.79</ele>
        <time>2012-05-23T07:17:46Z</time>
      </trkpt>
      <trkpt lat="44.43389" lon="3.74888">
        <ele>1572.513</ele>
        <time>2012-05-23T07:18:06Z</time>
      </trkpt>
      <trkpt lat="44.43365" lon="3.74886">
        <ele>1574.146</ele>
        <time>2012-05-23T07:18:28Z</time>
      </trkpt>
      <trkpt lat="44.43359" lon="3.74885">
        <ele>1575.54</ele>
        <time>2012-05-23T07:18:44Z</time>
      </trkpt>
      <trkpt lat="44.43354" lon="3.74884">
        <ele>1574.128</ele>
        <time>2012-05-23T07:18:54Z</time>
      </trkpt>
      <trkpt lat="44.43347" lon="3.74884">
        <ele>1574.084</ele>
        <time>2012-05-23T07:19:00Z</time>
      </trkpt>
      <trkpt lat="44.43343" lon="3.74885">
        <ele>1575.437</ele>
        <time>2012-05-23T07:19:03Z</time>
      </trkpt>
      <trkpt lat="44.4333" lon="3.74885">
        <ele>1578.658</ele>
        <time>2012-05-23T07:19:15Z</time>
      </trkpt>
      <trkpt lat="44.43309" lon="3.74887">
        <ele>1580.269</ele>
        <time>2012-05-23T07:19:34Z</time>
      </trkpt>
      <trkpt lat="44.43294" lon="3.74889">
        <ele>1581.376</ele>
        <time>2012-05-23T07:19:51Z</time>
      </trkpt>
      <trkpt lat="44.4329" lon="3.74888">
        <ele>1580.418</ele>
        <time>2012-05-23T07:21:19Z</time>
      </trkpt>
      <trkpt lat="44.43287" lon="3.74889">
        <ele>1580.366</ele>
        <time>2012-05-23T07:23:58Z</time>
      </trkpt>
      <trkpt lat="44.43277" lon="3.74892">
        <ele>1581.372</ele>
        <time>2012-05-23T07:24:15Z</time>
      </trkpt>
      <trkpt lat="44.4326" lon="3.74896">
        <ele>1582.093</ele>
        <time>2012-05-23T07:24:32Z</time>
      </trkpt>
      <trkpt lat="44.4324" lon="3.74903">
        <ele>1584.646</ele>
        <time>2012-05-23T07:24:53Z</time>
      </trkpt>
      <trkpt lat="44.43213" lon="3.7491">
        <ele>1587.126</ele>
        <time>2012-05-23T07:25:19Z</time>
      </trkpt>
      <trkpt lat="44.43196" lon="3.74914">
        <ele>1590.331</ele>
        <time>2012-05-23T07:25:36Z</time>
      </trkpt>
      <trkpt lat="44.43176" lon="3.74919">
        <ele>1592.36</ele>
        <time>2012-05-23T07:25:56Z</time>
      </trkpt>
      <trkpt lat="44.43162" lon="3.74921">
        <ele>1595.162</ele>
        <time>2012-05-23T07:26:11Z</time>
      </trkpt>
      <trkpt lat="44.4314" lon="3.74925">
        <ele>1595.71</ele>
        <time>2012-05-23T07:26:32Z</time>
      </trkpt>
      <trkpt lat="44.43129" lon="3.74929">
        <ele>1598.458</ele>
        <time>2012-05-23T07:26:43Z</time>
      </trkpt>
      <trkpt lat="44.43107" lon="3.74935">
        <ele>1599.223</ele>
        <time>2012-05-23T07:27:06Z</time>
      </trkpt>
      <trkpt lat="44.43092" lon="3.74942">
        <ele>1600.807</ele>
        <time>2012-05-23T07:27:23Z</time>
      </trkpt>
      <trkpt lat="44.4309" lon="3.74943">
        <ele>1600.888</ele>
        <time>2012-05-23T07:27:25Z</time>
      </trkpt>
      <trkpt lat="44.43072" lon="3.74948">
        <ele>1603.534</ele>
        <time>2012-05-23T07:27:44Z</time>
      </trkpt>
      <trkpt lat="44.43057" lon="3.74957">
        <ele>1605.926</ele>
        <time>2012-05-23T07:28:01Z</time>
      </trkpt>
      <trkpt lat="44.43054" lon="3.74957">
        <ele>1607.546</ele>
        <time>2012-05-23T07:28:03Z</time>
      </trkpt>
      <trkpt lat="44.4303" lon="3.74966">
        <ele>1608.191</ele>
        <time>2012-05-23T07:28:28Z</time>
      </trkpt>
      <trkpt lat="44.43013" lon="3.74979">
        <ele>1609.782</ele>
        <time>2012-05-23T07:28:47Z</time>
      </trkpt>
      <trkpt lat="44.42989" lon="3.7499">
        <ele>1612.649</ele>
        <time>2012-05-23T07:29:11Z</time>
      </trkpt>
      <trkpt lat="44.42967" lon="3.74997">
        <ele>1615.125</ele>
        <time>2012-05-23T07:29:32Z</time>
      </trkpt>
      <trkpt lat="44.42945" lon="3.7501">
        <ele>1617.366</ele>
        <time>2012-05-23T07:29:54Z</time>
      </trkpt>
      <trkpt lat="44.4292" lon="3.75014">
        <ele>1620.023</ele>
        <time>2012-05-23T07:30:18Z</time>
      </trkpt>
      <trkpt lat="44.42904" lon="3.75016">
        <ele>1623.108</ele>
        <time>2012-05-23T07:30:34Z</time>
      </trkpt>
      <trkpt lat="44.42887" lon="3.75023">
        <ele>1625.85</ele>
        <time>2012-05-23T07:30:53Z</time>
      </trkpt>
      <trkpt lat="44.42872" lon="3.75023">
        <ele>1629.076</ele>
        <time>2012-05-23T07:31:08Z</time>
      </trkpt>
      <trkpt lat="44.42864" lon="3.75024">
        <ele>1628.809</ele>
        <time>2012-05-23T07:31:15Z</time>
      </trkpt>
      <trkpt lat="44.42845" lon="3.7503">
        <ele>1630.744</ele>
        <time>2012-05-23T07:31:34Z</time>
      </trkpt>
      <trkpt lat="44.42838" lon="3.75033">
        <ele>1632.704</ele>
        <time>2012-05-23T07:31:41Z</time>
      </trkpt>
      <trkpt lat="44.42812" lon="3.75049">
        <ele>1633.786</ele>
        <time>2012-05-23T07:32:07Z</time>
      </trkpt>
      <trkpt lat="44.42794" lon="3.75062">
        <ele>1635.68</ele>
        <time>2012-05-23T07:32:25Z</time>
      </trkpt>
      <trkpt lat="44.42775" lon="3.75082">
        <ele>1636.29</ele>
        <time>2012-05-23T07:32:47Z</time>
      </trkpt>
      <trkpt lat="44.42749" lon="3.75094">
        <ele>1638.389</ele>
        <time>2012-05-23T07:33:11Z</time>
      </trkpt>
      <trkpt lat="44.42732" lon="3.75101">
        <ele>1638.618</ele>
        <time>2012-05-23T07:33:29Z</time>
      </trkpt>
      <trkpt lat="44.42714" lon="3.75111">
        <ele>1640.657</ele>
        <time>2012-05-23T07:33:45Z</time>
      </trkpt>
      <trkpt lat="44.42694" lon="3.75122">
        <ele>1641.898</ele>
        <time>2012-05-23T07:34:04Z</time>
      </trkpt>
      <trkpt lat="44.42671" lon="3.75127">
        <ele>1645.064</ele>
        <time>2012-05-23T07:34:24Z</time>
      </trkpt>
      <trkpt lat="44.42658" lon="3.75134">
        <ele>1647.747</ele>
        <time>2012-05-23T07:35:02Z</time>
      </trkpt>
      <trkpt lat="44.42658" lon="3.75134">
        <ele>1642.532</ele>
        <time>2012-05-23T07:40:26Z</time>
      </trkpt>
      <trkpt lat="44.4265" lon="3.75135">
        <ele>1643.006</ele>
        <time>2012-05-23T07:40:34Z</time>
      </trkpt>
      <trkpt lat="44.42637" lon="3.75141">
        <ele>1643.559</ele>
        <time>2012-05-23T07:40:46Z</time>
      </trkpt>
      <trkpt lat="44.42632" lon="3.75146">
        <ele>1643.669</ele>
        <time>2012-05-23T07:40:52Z</time>
      </trkpt>
      <trkpt lat="44.42615" lon="3.75169">
        <ele>1641.825</ele>
        <time>2012-05-23T07:41:14Z</time>
      </trkpt>
      <trkpt lat="44.42614" lon="3.7518">
        <ele>1640.778</ele>
        <time>2012-05-23T07:41:21Z</time>
      </trkpt>
      <trkpt lat="44.42614" lon="3.75183">
        <ele>1642.135</ele>
        <time>2012-05-23T07:41:23Z</time>
      </trkpt>
      <trkpt lat="44.42613" lon="3.75191">
        <ele>1641.218</ele>
        <time>2012-05-23T07:41:28Z</time>
      </trkpt>
      <trkpt lat="44.42616" lon="3.75198">
        <ele>1640.792</ele>
        <time>2012-05-23T07:41:33Z</time>
      </trkpt>
      <trkpt lat="44.42626" lon="3.75229">
        <ele>1639.371</ele>
        <time>2012-05-23T07:41:54Z</time>
      </trkpt>
      <trkpt lat="44.42628" lon="3.75233">
        <ele>1637.955</ele>
        <time>2012-05-23T07:41:57Z</time>
      </trkpt>
      <trkpt lat="44.42632" lon="3.75239">
        <ele>1638.513</ele>
        <time>2012-05-23T07:42:01Z</time>
      </trkpt>
      <trkpt lat="44.42635" lon="3.75245">
        <ele>1635.872</ele>
        <time>2012-05-23T07:42:05Z</time>
      </trkpt>
      <trkpt lat="44.42637" lon="3.75248">
        <ele>1637.87</ele>
        <time>2012-05-23T07:42:07Z</time>
      </trkpt>
      <trkpt lat="44.42649" lon="3.75271">
        <ele>1635.796</ele>
        <time>2012-05-23T07:42:22Z</time>
      </trkpt>
      <trkpt lat="44.42653" lon="3.75289">
        <ele>1637.039</ele>
        <time>2012-05-23T07:42:33Z</time>
      </trkpt>
      <trkpt lat="44.42653" lon="3.75294">
        <ele>1635.049</ele>
        <time>2012-05-23T07:42:36Z</time>
      </trkpt>
      <trkpt lat="44.42666" lon="3.75328">
        <ele>1637.219</ele>
        <time>2012-05-23T07:42:58Z</time>
      </trkpt>
      <trkpt lat="44.42673" lon="3.75344">
        <ele>1636.514</ele>
        <time>2012-05-23T07:43:10Z</time>
      </trkpt>
      <trkpt lat="44.42677" lon="3.75351">
        <ele>1635.248</ele>
        <time>2012-05-23T07:43:15Z</time>
      </trkpt>
      <trkpt lat="44.42688" lon="3.7539">
        <ele>1634.254</ele>
        <time>2012-05-23T07:43:38Z</time>
      </trkpt>
      <trkpt lat="44.42688" lon="3.75397">
        <ele>1633.935</ele>
        <time>2012-05-23T07:43:42Z</time>
      </trkpt>
      <trkpt lat="44.42693" lon="3.75425">
        <ele>1633.675</ele>
        <time>2012-05-23T07:43:59Z</time>
      </trkpt>
      <trkpt lat="44.42694" lon="3.75459">
        <ele>1632.712</ele>
        <time>2012-05-23T07:44:19Z</time>
      </trkpt>
      <trkpt lat="44.42697" lon="3.75492">
        <ele>1633.458</ele>
        <time>2012-05-23T07:44:38Z</time>
      </trkpt>
      <trkpt lat="44.42698" lon="3.75501">
        <ele>1632.753</ele>
        <time>2012-05-23T07:44:43Z</time>
      </trkpt>
      <trkpt lat="44.42698" lon="3.75506">
        <ele>1634.023</ele>
        <time>2012-05-23T07:44:46Z</time>
      </trkpt>
      <trkpt lat="44.42699" lon="3.75521">
        <ele>1634.218</ele>
        <time>2012-05-23T07:44:55Z</time>
      </trkpt>
      <trkpt lat="44.427" lon="3.7554">
        <ele>1632.567</ele>
        <time>2012-05-23T07:45:06Z</time>
      </trkpt>
      <trkpt lat="44.42704" lon="3.75552">
        <ele>1632.264</ele>
        <time>2012-05-23T07:45:13Z</time>
      </trkpt>
      <trkpt lat="44.42703" lon="3.75584">
        <ele>1632.299</ele>
        <time>2012-05-23T07:45:32Z</time>
      </trkpt>
      <trkpt lat="44.42705" lon="3.75593">
        <ele>1630.183</ele>
        <time>2012-05-23T07:45:38Z</time>
      </trkpt>
      <trkpt lat="44.42706" lon="3.75596">
        <ele>1630.692</ele>
        <time>2012-05-23T07:45:40Z</time>
      </trkpt>
      <trkpt lat="44.42707" lon="3.75602">
        <ele>1630.874</ele>
        <time>2012-05-23T07:45:44Z</time>
      </trkpt>
      <trkpt lat="44.42709" lon="3.75625">
        <ele>1631.359</ele>
        <time>2012-05-23T07:45:57Z</time>
      </trkpt>
      <trkpt lat="44.42711" lon="3.75652">
        <ele>1628.861</ele>
        <time>2012-05-23T07:46:13Z</time>
      </trkpt>
      <trkpt lat="44.42712" lon="3.75666">
        <ele>1627.569</ele>
        <time>2012-05-23T07:46:21Z</time>
      </trkpt>
      <trkpt lat="44.42712" lon="3.75703">
        <ele>1627.124</ele>
        <time>2012-05-23T07:46:42Z</time>
      </trkpt>
      <trkpt lat="44.42711" lon="3.75706">
        <ele>1625.74</ele>
        <time>2012-05-23T07:46:44Z</time>
      </trkpt>
      <trkpt lat="44.42708" lon="3.75716">
        <ele>1626.724</ele>
        <time>2012-05-23T07:46:50Z</time>
      </trkpt>
      <trkpt lat="44.42709" lon="3.75722">
        <ele>1624.442</ele>
        <time>2012-05-23T07:46:54Z</time>
      </trkpt>
      <trkpt lat="44.4271" lon="3.75729">
        <ele>1622.813</ele>
        <time>2012-05-23T07:46:58Z</time>
      </trkpt>
      <trkpt lat="44.42709" lon="3.75734">
        <ele>1624.319</ele>
        <time>2012-05-23T07:47:01Z</time>
      </trkpt>
      <trkpt lat="44.42706" lon="3.75745">
        <ele>1623.964</ele>
        <time>2012-05-23T07:47:08Z</time>
      </trkpt>
      <trkpt lat="44.42705" lon="3.75755">
        <ele>1623.533</ele>
        <time>2012-05-23T07:47:14Z</time>
      </trkpt>
      <trkpt lat="44.42701" lon="3.75761">
        <ele>1621.764</ele>
        <time>2012-05-23T07:47:19Z</time>
      </trkpt>
      <trkpt lat="44.42687" lon="3.7579">
        <ele>1620.45</ele>
        <time>2012-05-23T07:47:39Z</time>
      </trkpt>
      <trkpt lat="44.42671" lon="3.75817">
        <ele>1617.227</ele>
        <time>2012-05-23T07:47:59Z</time>
      </trkpt>
      <trkpt lat="44.4267" lon="3.7582">
        <ele>1617.278</ele>
        <time>2012-05-23T07:48:01Z</time>
      </trkpt>
      <trkpt lat="44.4267" lon="3.75824">
        <ele>1615.989</ele>
        <time>2012-05-23T07:48:04Z</time>
      </trkpt>
      <trkpt lat="44.42676" lon="3.7583">
        <ele>1617.636</ele>
        <time>2012-05-23T07:48:10Z</time>
      </trkpt>
      <trkpt lat="44.4268" lon="3.75839">
        <ele>1614.33</ele>
        <time>2012-05-23T07:48:17Z</time>
      </trkpt>
      <trkpt lat="44.42683" lon="3.75849">
        <ele>1614.224</ele>
        <time>2012-05-23T07:48:24Z</time>
      </trkpt>
      <trkpt lat="44.42682" lon="3.75858">
        <ele>1613.066</ele>
        <time>2012-05-23T07:48:29Z</time>
      </trkpt>
      <trkpt lat="44.42683" lon="3.75864">
        <ele>1611.106</ele>
        <time>2012-05-23T07:48:33Z</time>
      </trkpt>
      <trkpt lat="44.42687" lon="3.75879">
        <ele>1609.53</ele>
        <time>2012-05-23T07:48:43Z</time>
      </trkpt>
      <trkpt lat="44.42686" lon="3.75886">
        <ele>1611.242</ele>
        <time>2012-05-23T07:48:47Z</time>
      </trkpt>
      <trkpt lat="44.42677" lon="3.75907">
        <ele>1607.826</ele>
        <time>2012-05-23T07:49:01Z</time>
      </trkpt>
      <trkpt lat="44.42659" lon="3.75925">
        <ele>1605.903</ele>
        <time>2012-05-23T07:49:20Z</time>
      </trkpt>
      <trkpt lat="44.42641" lon="3.75936">
        <ele>1602.14</ele>
        <time>2012-05-23T07:49:38Z</time>
      </trkpt>
      <trkpt lat="44.42629" lon="3.75951">
        <ele>1600.918</ele>
        <time>2012-05-23T07:49:51Z</time>
      </trkpt>
      <trkpt lat="44.42618" lon="3.75964">
        <ele>1599.814</ele>
        <time>2012-05-23T07:50:03Z</time>
      </trkpt>
      <trkpt lat="44.42596" lon="3.75988">
        <ele>1597.559</ele>
        <time>2012-05-23T07:50:26Z</time>
      </trkpt>
      <trkpt lat="44.4258" lon="3.76013">
        <ele>1595.792</ele>
        <time>2012-05-23T07:50:47Z</time>
      </trkpt>
      <trkpt lat="44.42558" lon="3.76035">
        <ele>1593.901</ele>
        <time>2012-05-23T07:51:11Z</time>
      </trkpt>
      <trkpt lat="44.42556" lon="3.7604">
        <ele>1594.244</ele>
        <time>2012-05-23T07:51:15Z</time>
      </trkpt>
      <trkpt lat="44.42531" lon="3.76061">
        <ele>1593.563</ele>
        <time>2012-05-23T07:51:38Z</time>
      </trkpt>
      <trkpt lat="44.42519" lon="3.76087">
        <ele>1592.482</ele>
        <time>2012-05-23T07:51:59Z</time>
      </trkpt>
      <trkpt lat="44.42515" lon="3.76098">
        <ele>1589.233</ele>
        <time>2012-05-23T07:52:07Z</time>
      </trkpt>
      <trkpt lat="44.42517" lon="3.76125">
        <ele>1586.879</ele>
        <time>2012-05-23T07:52:25Z</time>
      </trkpt>
      <trkpt lat="44.4252" lon="3.76133">
        <ele>1584.174</ele>
        <time>2012-05-23T07:52:30Z</time>
      </trkpt>
      <trkpt lat="44.42523" lon="3.76147">
        <ele>1581.658</ele>
        <time>2012-05-23T07:52:38Z</time>
      </trkpt>
      <trkpt lat="44.42524" lon="3.76169">
        <ele>1579.625</ele>
        <time>2012-05-23T07:52:53Z</time>
      </trkpt>
      <trkpt lat="44.42527" lon="3.76182">
        <ele>1578.852</ele>
        <time>2012-05-23T07:53:01Z</time>
      </trkpt>
      <trkpt lat="44.42533" lon="3.76212">
        <ele>1575.457</ele>
        <time>2012-05-23T07:53:19Z</time>
      </trkpt>
      <trkpt lat="44.42544" lon="3.76253">
        <ele>1571.732</ele>
        <time>2012-05-23T07:53:45Z</time>
      </trkpt>
      <trkpt lat="44.42545" lon="3.76257">
        <ele>1569.446</ele>
        <time>2012-05-23T07:53:48Z</time>
      </trkpt>
      <trkpt lat="44.42555" lon="3.76284">
        <ele>1566.434</ele>
        <time>2012-05-23T07:54:06Z</time>
      </trkpt>
      <trkpt lat="44.42559" lon="3.76306">
        <ele>1562.865</ele>
        <time>2012-05-23T07:54:18Z</time>
      </trkpt>
      <trkpt lat="44.42568" lon="3.76339">
        <ele>1559.499</ele>
        <time>2012-05-23T07:54:37Z</time>
      </trkpt>
      <trkpt lat="44.42568" lon="3.76349">
        <ele>1559.526</ele>
        <time>2012-05-23T07:54:51Z</time>
      </trkpt>
      <trkpt lat="44.42566" lon="3.76361">
        <ele>1559.66</ele>
        <time>2012-05-23T07:55:33Z</time>
      </trkpt>
      <trkpt lat="44.42563" lon="3.76375">
        <ele>1556.817</ele>
        <time>2012-05-23T07:55:51Z</time>
      </trkpt>
      <trkpt lat="44.42552" lon="3.76401">
        <ele>1556.048</ele>
        <time>2012-05-23T07:56:09Z</time>
      </trkpt>
      <trkpt lat="44.42544" lon="3.76416">
        <ele>1552.977</ele>
        <time>2012-05-23T07:56:21Z</time>
      </trkpt>
      <trkpt lat="44.42535" lon="3.76437">
        <ele>1551.692</ele>
        <time>2012-05-23T07:56:36Z</time>
      </trkpt>
      <trkpt lat="44.42534" lon="3.76442">
        <ele>1551.693</ele>
        <time>2012-05-23T07:56:39Z</time>
      </trkpt>
      <trkpt lat="44.42528" lon="3.76472">
        <ele>1549.238</ele>
        <time>2012-05-23T07:56:58Z</time>
      </trkpt>
      <trkpt lat="44.42522" lon="3.76505">
        <ele>1545.855</ele>
        <time>2012-05-23T07:57:18Z</time>
      </trkpt>
      <trkpt lat="44.42509" lon="3.76533">
        <ele>1543.388</ele>
        <time>2012-05-23T07:57:40Z</time>
      </trkpt>
      <trkpt lat="44.42506" lon="3.76543">
        <ele>1543.247</ele>
        <time>2012-05-23T08:00:04Z</time>
      </trkpt>
      <trkpt lat="44.42505" lon="3.76544">
        <ele>1542.629</ele>
        <time>2012-05-23T08:00:12Z</time>
      </trkpt>
      <trkpt lat="44.42487" lon="3.76559">
        <ele>1543.573</ele>
        <time>2012-05-23T08:00:29Z</time>
      </trkpt>
      <trkpt lat="44.42476" lon="3.76592">
        <ele>1544.557</ele>
        <time>2012-05-23T08:00:50Z</time>
      </trkpt>
      <trkpt lat="44.42473" lon="3.76596">
        <ele>1543.719</ele>
        <time>2012-05-23T08:00:53Z</time>
      </trkpt>
      <trkpt lat="44.4247" lon="3.76608">
        <ele>1544.5</ele>
        <time>2012-05-23T08:01:00Z</time>
      </trkpt>
      <trkpt lat="44.42468" lon="3.7664">
        <ele>1545.178</ele>
        <time>2012-05-23T08:01:19Z</time>
      </trkpt>
      <trkpt lat="44.42469" lon="3.76664">
        <ele>1544.631</ele>
        <time>2012-05-23T08:01:31Z</time>
      </trkpt>
      <trkpt lat="44.42469" lon="3.76671">
        <ele>1545.214</ele>
        <time>2012-05-23T08:01:35Z</time>
      </trkpt>
      <trkpt lat="44.42463" lon="3.76706">
        <ele>1545.541</ele>
        <time>2012-05-23T08:01:55Z</time>
      </trkpt>
      <trkpt lat="44.42454" lon="3.7674">
        <ele>1545.354</ele>
        <time>2012-05-23T08:02:16Z</time>
      </trkpt>
      <trkpt lat="44.4245" lon="3.76749">
        <ele>1545.11</ele>
        <time>2012-05-23T08:02:21Z</time>
      </trkpt>
      <trkpt lat="44.4245" lon="3.76752">
        <ele>1544.729</ele>
        <time>2012-05-23T08:02:23Z</time>
      </trkpt>
      <trkpt lat="44.42441" lon="3.76782">
        <ele>1545.017</ele>
        <time>2012-05-23T08:02:41Z</time>
      </trkpt>
      <trkpt lat="44.42427" lon="3.76816">
        <ele>1545.824</ele>
        <time>2012-05-23T08:03:04Z</time>
      </trkpt>
      <trkpt lat="44.42415" lon="3.76836">
        <ele>1544.996</ele>
        <time>2012-05-23T08:03:19Z</time>
      </trkpt>
      <trkpt lat="44.42413" lon="3.76841">
        <ele>1545.08</ele>
        <time>2012-05-23T08:03:24Z</time>
      </trkpt>
      <trkpt lat="44.42415" lon="3.76849">
        <ele>1544.034</ele>
        <time>2012-05-23T08:03:27Z</time>
      </trkpt>
      <trkpt lat="44.42414" lon="3.76868">
        <ele>1547.165</ele>
        <time>2012-05-23T08:03:37Z</time>
      </trkpt>
      <trkpt lat="44.4241" lon="3.76873">
        <ele>1547.677</ele>
        <time>2012-05-23T08:03:41Z</time>
      </trkpt>
      <trkpt lat="44.42409" lon="3.76876">
        <ele>1548.829</ele>
        <time>2012-05-23T08:03:43Z</time>
      </trkpt>
      <trkpt lat="44.42398" lon="3.76912">
        <ele>1548.856</ele>
        <time>2012-05-23T08:04:24Z</time>
      </trkpt>
      <trkpt lat="44.42386" lon="3.76921">
        <ele>1547.199</ele>
        <time>2012-05-23T08:06:28Z</time>
      </trkpt>
      <trkpt lat="44.42382" lon="3.7692">
        <ele>1547.838</ele>
        <time>2012-05-23T08:06:35Z</time>
      </trkpt>
      <trkpt lat="44.4237" lon="3.76917">
        <ele>1546.971</ele>
        <time>2012-05-23T08:06:45Z</time>
      </trkpt>
      <trkpt lat="44.42348" lon="3.7694">
        <ele>1547.721</ele>
        <time>2012-05-23T08:07:08Z</time>
      </trkpt>
      <trkpt lat="44.4232" lon="3.7696">
        <ele>1548.622</ele>
        <time>2012-05-23T08:07:32Z</time>
      </trkpt>
      <trkpt lat="44.42317" lon="3.76962">
        <ele>1548.955</ele>
        <time>2012-05-23T08:07:35Z</time>
      </trkpt>
      <trkpt lat="44.42313" lon="3.76965">
        <ele>1548.583</ele>
        <time>2012-05-23T08:07:39Z</time>
      </trkpt>
      <trkpt lat="44.42281" lon="3.76985">
        <ele>1547.668</ele>
        <time>2012-05-23T08:08:08Z</time>
      </trkpt>
      <trkpt lat="44.42262" lon="3.76998">
        <ele>1546.572</ele>
        <time>2012-05-23T08:08:25Z</time>
      </trkpt>
      <trkpt lat="44.42245" lon="3.77009">
        <ele>1546.7</ele>
        <time>2012-05-23T08:08:41Z</time>
      </trkpt>
      <trkpt lat="44.4222" lon="3.77016">
        <ele>1546.06</ele>
        <time>2012-05-23T08:08:59Z</time>
      </trkpt>
      <trkpt lat="44.42195" lon="3.77016">
        <ele>1544.819</ele>
        <time>2012-05-23T08:09:19Z</time>
      </trkpt>
      <trkpt lat="44.42178" lon="3.77014">
        <ele>1544.526</ele>
        <time>2012-05-23T08:09:32Z</time>
      </trkpt>
      <trkpt lat="44.42164" lon="3.77013">
        <ele>1543.663</ele>
        <time>2012-05-23T08:09:42Z</time>
      </trkpt>
      <trkpt lat="44.42134" lon="3.77015">
        <ele>1542.345</ele>
        <time>2012-05-23T08:10:04Z</time>
      </trkpt>
      <trkpt lat="44.42118" lon="3.77017">
        <ele>1541.874</ele>
        <time>2012-05-23T08:10:15Z</time>
      </trkpt>
      <trkpt lat="44.42109" lon="3.77017">
        <ele>1541.893</ele>
        <time>2012-05-23T08:10:22Z</time>
      </trkpt>
      <trkpt lat="44.42086" lon="3.77017">
        <ele>1540.627</ele>
        <time>2012-05-23T08:10:38Z</time>
      </trkpt>
      <trkpt lat="44.42085" lon="3.77017">
        <ele>1540.793</ele>
        <time>2012-05-23T08:10:39Z</time>
      </trkpt>
      <trkpt lat="44.42071" lon="3.77017">
        <ele>1539.743</ele>
        <time>2012-05-23T08:10:49Z</time>
      </trkpt>
      <trkpt lat="44.42054" lon="3.77021">
        <ele>1539.668</ele>
        <time>2012-05-23T08:11:03Z</time>
      </trkpt>
      <trkpt lat="44.42043" lon="3.77023">
        <ele>1538.96</ele>
        <time>2012-05-23T08:11:11Z</time>
      </trkpt>
      <trkpt lat="44.42023" lon="3.77029">
        <ele>1537.848</ele>
        <time>2012-05-23T08:11:25Z</time>
      </trkpt>
      <trkpt lat="44.42009" lon="3.77033">
        <ele>1537.01</ele>
        <time>2012-05-23T08:11:35Z</time>
      </trkpt>
      <trkpt lat="44.42003" lon="3.77033">
        <ele>1536.953</ele>
        <time>2012-05-23T08:11:39Z</time>
      </trkpt>
      <trkpt lat="44.41998" lon="3.77032">
        <ele>1536.282</ele>
        <time>2012-05-23T08:11:43Z</time>
      </trkpt>
      <trkpt lat="44.4198" lon="3.77039">
        <ele>1535.801</ele>
        <time>2012-05-23T08:11:56Z</time>
      </trkpt>
      <trkpt lat="44.4197" lon="3.77043">
        <ele>1534.953</ele>
        <time>2012-05-23T08:12:03Z</time>
      </trkpt>
      <trkpt lat="44.41941" lon="3.77051">
        <ele>1533.522</ele>
        <time>2012-05-23T08:12:24Z</time>
      </trkpt>
      <trkpt lat="44.41929" lon="3.77056">
        <ele>1534.211</ele>
        <time>2012-05-23T08:12:33Z</time>
      </trkpt>
      <trkpt lat="44.4191" lon="3.77063">
        <ele>1532.244</ele>
        <time>2012-05-23T08:12:49Z</time>
      </trkpt>
      <trkpt lat="44.41898" lon="3.77071">
        <ele>1534.587</ele>
        <time>2012-05-23T08:12:59Z</time>
      </trkpt>
      <trkpt lat="44.41893" lon="3.77075">
        <ele>1531.172</ele>
        <time>2012-05-23T08:13:03Z</time>
      </trkpt>
      <trkpt lat="44.41888" lon="3.77081">
        <ele>1532.659</ele>
        <time>2012-05-23T08:13:08Z</time>
      </trkpt>
      <trkpt lat="44.41864" lon="3.77095">
        <ele>1529.889</ele>
        <time>2012-05-23T08:13:26Z</time>
      </trkpt>
      <trkpt lat="44.41847" lon="3.77099">
        <ele>1529</ele>
        <time>2012-05-23T08:13:38Z</time>
      </trkpt>
      <trkpt lat="44.41828" lon="3.77107">
        <ele>1528.402</ele>
        <time>2012-05-23T08:13:54Z</time>
      </trkpt>
      <trkpt lat="44.41825" lon="3.77109">
        <ele>1528.39</ele>
        <time>2012-05-23T08:13:56Z</time>
      </trkpt>
      <trkpt lat="44.41821" lon="3.7711">
        <ele>1527.831</ele>
        <time>2012-05-23T08:13:59Z</time>
      </trkpt>
      <trkpt lat="44.41819" lon="3.77111">
        <ele>1527.18</ele>
        <time>2012-05-23T08:14:01Z</time>
      </trkpt>
      <trkpt lat="44.418" lon="3.77123">
        <ele>1527.276</ele>
        <time>2012-05-23T08:14:16Z</time>
      </trkpt>
      <trkpt lat="44.41788" lon="3.7713">
        <ele>1527.253</ele>
        <time>2012-05-23T08:14:28Z</time>
      </trkpt>
      <trkpt lat="44.41783" lon="3.77137">
        <ele>1525.391</ele>
        <time>2012-05-23T08:14:34Z</time>
      </trkpt>
      <trkpt lat="44.41778" lon="3.77141">
        <ele>1526.308</ele>
        <time>2012-05-23T08:14:38Z</time>
      </trkpt>
      <trkpt lat="44.41775" lon="3.77145">
        <ele>1526.786</ele>
        <time>2012-05-23T08:14:41Z</time>
      </trkpt>
      <trkpt lat="44.4177" lon="3.77151">
        <ele>1525.796</ele>
        <time>2012-05-23T08:14:45Z</time>
      </trkpt>
      <trkpt lat="44.41745" lon="3.77173">
        <ele>1524.561</ele>
        <time>2012-05-23T08:15:08Z</time>
      </trkpt>
      <trkpt lat="44.4172" lon="3.77196">
        <ele>1522.684</ele>
        <time>2012-05-23T08:15:30Z</time>
      </trkpt>
      <trkpt lat="44.41698" lon="3.77211">
        <ele>1521.48</ele>
        <time>2012-05-23T08:15:48Z</time>
      </trkpt>
      <trkpt lat="44.41696" lon="3.77212">
        <ele>1523.04</ele>
        <time>2012-05-23T08:15:50Z</time>
      </trkpt>
      <trkpt lat="44.41671" lon="3.77222">
        <ele>1521.294</ele>
        <time>2012-05-23T08:16:10Z</time>
      </trkpt>
      <trkpt lat="44.41662" lon="3.77226">
        <ele>1520.623</ele>
        <time>2012-05-23T08:16:17Z</time>
      </trkpt>
      <trkpt lat="44.41653" lon="3.77228">
        <ele>1520.516</ele>
        <time>2012-05-23T08:16:24Z</time>
      </trkpt>
      <trkpt lat="44.4165" lon="3.77228">
        <ele>1520.681</ele>
        <time>2012-05-23T08:16:26Z</time>
      </trkpt>
      <trkpt lat="44.4163" lon="3.77238">
        <ele>1519.499</ele>
        <time>2012-05-23T08:16:42Z</time>
      </trkpt>
      <trkpt lat="44.41613" lon="3.77246">
        <ele>1518.689</ele>
        <time>2012-05-23T08:16:55Z</time>
      </trkpt>
      <trkpt lat="44.41602" lon="3.77252">
        <ele>1518.478</ele>
        <time>2012-05-23T08:17:04Z</time>
      </trkpt>
      <trkpt lat="44.41592" lon="3.77259">
        <ele>1518.272</ele>
        <time>2012-05-23T08:17:21Z</time>
      </trkpt>
      <trkpt lat="44.41584" lon="3.77266">
        <ele>1517.073</ele>
        <time>2012-05-23T08:17:30Z</time>
      </trkpt>
      <trkpt lat="44.41569" lon="3.77277">
        <ele>1517.105</ele>
        <time>2012-05-23T08:17:47Z</time>
      </trkpt>
      <trkpt lat="44.41549" lon="3.77292">
        <ele>1516.316</ele>
        <time>2012-05-23T08:18:06Z</time>
      </trkpt>
      <trkpt lat="44.41529" lon="3.77308">
        <ele>1515.733</ele>
        <time>2012-05-23T08:18:24Z</time>
      </trkpt>
      <trkpt lat="44.41504" lon="3.7733">
        <ele>1513.94</ele>
        <time>2012-05-23T08:18:47Z</time>
      </trkpt>
      <trkpt lat="44.41494" lon="3.77337">
        <ele>1512.163</ele>
        <time>2012-05-23T08:18:56Z</time>
      </trkpt>
      <trkpt lat="44.4147" lon="3.77346">
        <ele>1512.256</ele>
        <time>2012-05-23T08:19:15Z</time>
      </trkpt>
      <trkpt lat="44.41451" lon="3.77333">
        <ele>1509.916</ele>
        <time>2012-05-23T08:19:32Z</time>
      </trkpt>
      <trkpt lat="44.41449" lon="3.7733">
        <ele>1511.351</ele>
        <time>2012-05-23T08:19:34Z</time>
      </trkpt>
      <trkpt lat="44.41436" lon="3.77295">
        <ele>1508.777</ele>
        <time>2012-05-23T08:19:56Z</time>
      </trkpt>
      <trkpt lat="44.41425" lon="3.77245">
        <ele>1506.537</ele>
        <time>2012-05-23T08:20:25Z</time>
      </trkpt>
      <trkpt lat="44.41408" lon="3.77209">
        <ele>1504.475</ele>
        <time>2012-05-23T08:20:49Z</time>
      </trkpt>
      <trkpt lat="44.41402" lon="3.772">
        <ele>1504.122</ele>
        <time>2012-05-23T08:23:36Z</time>
      </trkpt>
      <trkpt lat="44.41398" lon="3.77193">
        <ele>1502.797</ele>
        <time>2012-05-23T08:23:51Z</time>
      </trkpt>
      <trkpt lat="44.41395" lon="3.7719">
        <ele>1501.337</ele>
        <time>2012-05-23T08:23:55Z</time>
      </trkpt>
      <trkpt lat="44.41385" lon="3.77186">
        <ele>1500.942</ele>
        <time>2012-05-23T08:24:04Z</time>
      </trkpt>
      <trkpt lat="44.41384" lon="3.77185">
        <ele>1501.849</ele>
        <time>2012-05-23T08:24:05Z</time>
      </trkpt>
      <trkpt lat="44.41368" lon="3.77178">
        <ele>1500.307</ele>
        <time>2012-05-23T08:24:20Z</time>
      </trkpt>
      <trkpt lat="44.41354" lon="3.7717">
        <ele>1499.723</ele>
        <time>2012-05-23T08:24:32Z</time>
      </trkpt>
      <trkpt lat="44.41325" lon="3.77147">
        <ele>1497.579</ele>
        <time>2012-05-23T08:24:58Z</time>
      </trkpt>
      <trkpt lat="44.41308" lon="3.7713">
        <ele>1495.941</ele>
        <time>2012-05-23T08:25:15Z</time>
      </trkpt>
      <trkpt lat="44.413" lon="3.77121">
        <ele>1497.167</ele>
        <time>2012-05-23T08:25:32Z</time>
      </trkpt>
      <trkpt lat="44.41299" lon="3.7712">
        <ele>1495.918</ele>
        <time>2012-05-23T08:25:37Z</time>
      </trkpt>
      <trkpt lat="44.41296" lon="3.77118">
        <ele>1495.835</ele>
        <time>2012-05-23T08:25:40Z</time>
      </trkpt>
      <trkpt lat="44.41265" lon="3.77105">
        <ele>1493.585</ele>
        <time>2012-05-23T08:26:06Z</time>
      </trkpt>
      <trkpt lat="44.41248" lon="3.77106">
        <ele>1492.331</ele>
        <time>2012-05-23T08:26:19Z</time>
      </trkpt>
      <trkpt lat="44.41237" lon="3.77105">
        <ele>1492.033</ele>
        <time>2012-05-23T08:26:27Z</time>
      </trkpt>
      <trkpt lat="44.41234" lon="3.77106">
        <ele>1492.447</ele>
        <time>2012-05-23T08:26:29Z</time>
      </trkpt>
      <trkpt lat="44.41222" lon="3.77111">
        <ele>1491.399</ele>
        <time>2012-05-23T08:26:38Z</time>
      </trkpt>
      <trkpt lat="44.41219" lon="3.77111">
        <ele>1490.923</ele>
        <time>2012-05-23T08:26:41Z</time>
      </trkpt>
      <trkpt lat="44.41212" lon="3.77113">
        <ele>1490.787</ele>
        <time>2012-05-23T08:26:46Z</time>
      </trkpt>
      <trkpt lat="44.41196" lon="3.77113">
        <ele>1490.784</ele>
        <time>2012-05-23T08:26:59Z</time>
      </trkpt>
      <trkpt lat="44.41181" lon="3.77116">
        <ele>1488.182</ele>
        <time>2012-05-23T08:27:10Z</time>
      </trkpt>
      <trkpt lat="44.41163" lon="3.77126">
        <ele>1488.436</ele>
        <time>2012-05-23T08:27:28Z</time>
      </trkpt>
      <trkpt lat="44.41161" lon="3.77127">
        <ele>1488.434</ele>
        <time>2012-05-23T08:27:29Z</time>
      </trkpt>
      <trkpt lat="44.41149" lon="3.7713">
        <ele>1488.68</ele>
        <time>2012-05-23T08:27:39Z</time>
      </trkpt>
      <trkpt lat="44.41139" lon="3.77131">
        <ele>1487.418</ele>
        <time>2012-05-23T08:27:46Z</time>
      </trkpt>
      <trkpt lat="44.41117" lon="3.77129">
        <ele>1486.968</ele>
        <time>2012-05-23T08:28:01Z</time>
      </trkpt>
      <trkpt lat="44.41099" lon="3.7713">
        <ele>1485.708</ele>
        <time>2012-05-23T08:28:14Z</time>
      </trkpt>
      <trkpt lat="44.41087" lon="3.77129">
        <ele>1484.484</ele>
        <time>2012-05-23T08:28:24Z</time>
      </trkpt>
      <trkpt lat="44.41057" lon="3.7712">
        <ele>1483.229</ele>
        <time>2012-05-23T08:28:46Z</time>
      </trkpt>
      <trkpt lat="44.41045" lon="3.77117">
        <ele>1480.663</ele>
        <time>2012-05-23T08:28:55Z</time>
      </trkpt>
      <trkpt lat="44.41031" lon="3.77113">
        <ele>1481.045</ele>
        <time>2012-05-23T08:29:07Z</time>
      </trkpt>
      <trkpt lat="44.40993" lon="3.77101">
        <ele>1479.046</ele>
        <time>2012-05-23T08:29:37Z</time>
      </trkpt>
      <trkpt lat="44.40969" lon="3.77089">
        <ele>1478.355</ele>
        <time>2012-05-23T08:29:56Z</time>
      </trkpt>
      <trkpt lat="44.40959" lon="3.77078">
        <ele>1477.421</ele>
        <time>2012-05-23T08:30:25Z</time>
      </trkpt>
      <trkpt lat="44.40946" lon="3.77051">
        <ele>1475.893</ele>
        <time>2012-05-23T08:30:41Z</time>
      </trkpt>
      <trkpt lat="44.40941" lon="3.77042">
        <ele>1478.251</ele>
        <time>2012-05-23T08:30:47Z</time>
      </trkpt>
      <trkpt lat="44.40939" lon="3.77039">
        <ele>1476.107</ele>
        <time>2012-05-23T08:30:49Z</time>
      </trkpt>
      <trkpt lat="44.40916" lon="3.77">
        <ele>1472.797</ele>
        <time>2012-05-23T08:31:15Z</time>
      </trkpt>
      <trkpt lat="44.40894" lon="3.7696">
        <ele>1470.625</ele>
        <time>2012-05-23T08:31:41Z</time>
      </trkpt>
      <trkpt lat="44.4089" lon="3.76948">
        <ele>1470.461</ele>
        <time>2012-05-23T08:31:47Z</time>
      </trkpt>
      <trkpt lat="44.40888" lon="3.76938">
        <ele>1469.836</ele>
        <time>2012-05-23T08:31:52Z</time>
      </trkpt>
      <trkpt lat="44.40878" lon="3.76882">
        <ele>1467.068</ele>
        <time>2012-05-23T08:32:20Z</time>
      </trkpt>
      <trkpt lat="44.40872" lon="3.76875">
        <ele>1467.095</ele>
        <time>2012-05-23T08:32:25Z</time>
      </trkpt>
      <trkpt lat="44.40869" lon="3.76868">
        <ele>1466.241</ele>
        <time>2012-05-23T08:32:40Z</time>
      </trkpt>
      <trkpt lat="44.40862" lon="3.76831">
        <ele>1465.822</ele>
        <time>2012-05-23T08:33:00Z</time>
      </trkpt>
      <trkpt lat="44.40852" lon="3.76787">
        <ele>1463.312</ele>
        <time>2012-05-23T08:33:22Z</time>
      </trkpt>
      <trkpt lat="44.40844" lon="3.7676">
        <ele>1462.248</ele>
        <time>2012-05-23T08:33:51Z</time>
      </trkpt>
      <trkpt lat="44.40844" lon="3.76753">
        <ele>1462.479</ele>
        <time>2012-05-23T08:33:55Z</time>
      </trkpt>
      <trkpt lat="44.40835" lon="3.76732">
        <ele>1461.025</ele>
        <time>2012-05-23T08:34:07Z</time>
      </trkpt>
      <trkpt lat="44.4083" lon="3.76711">
        <ele>1460.335</ele>
        <time>2012-05-23T08:34:18Z</time>
      </trkpt>
      <trkpt lat="44.40802" lon="3.76677">
        <ele>1456.914</ele>
        <time>2012-05-23T08:34:44Z</time>
      </trkpt>
      <trkpt lat="44.40775" lon="3.76651">
        <ele>1455.912</ele>
        <time>2012-05-23T08:35:06Z</time>
      </trkpt>
      <trkpt lat="44.40743" lon="3.76623">
        <ele>1453.633</ele>
        <time>2012-05-23T08:35:30Z</time>
      </trkpt>
      <trkpt lat="44.40716" lon="3.76606">
        <ele>1451.949</ele>
        <time>2012-05-23T08:35:50Z</time>
      </trkpt>
      <trkpt lat="44.40686" lon="3.76597">
        <ele>1450.312</ele>
        <time>2012-05-23T08:36:11Z</time>
      </trkpt>
      <trkpt lat="44.40661" lon="3.76599">
        <ele>1449.587</ele>
        <time>2012-05-23T08:36:28Z</time>
      </trkpt>
      <trkpt lat="44.4066" lon="3.76601">
        <ele>1449.15</ele>
        <time>2012-05-23T08:36:30Z</time>
      </trkpt>
      <trkpt lat="44.4065" lon="3.76599">
        <ele>1449.714</ele>
        <time>2012-05-23T08:36:44Z</time>
      </trkpt>
      <trkpt lat="44.4062" lon="3.76595">
        <ele>1447.863</ele>
        <time>2012-05-23T08:37:04Z</time>
      </trkpt>
      <trkpt lat="44.40605" lon="3.76594">
        <ele>1446.83</ele>
        <time>2012-05-23T08:37:25Z</time>
      </trkpt>
      <trkpt lat="44.40589" lon="3.76566">
        <ele>1446.034</ele>
        <time>2012-05-23T08:37:46Z</time>
      </trkpt>
      <trkpt lat="44.40586" lon="3.76544">
        <ele>1444.556</ele>
        <time>2012-05-23T08:38:18Z</time>
      </trkpt>
      <trkpt lat="44.40587" lon="3.76542">
        <ele>1445.047</ele>
        <time>2012-05-23T08:38:29Z</time>
      </trkpt>
      <trkpt lat="44.4059" lon="3.76533">
        <ele>1444.732</ele>
        <time>2012-05-23T08:38:35Z</time>
      </trkpt>
      <trkpt lat="44.40603" lon="3.76498">
        <ele>1443.324</ele>
        <time>2012-05-23T08:38:55Z</time>
      </trkpt>
      <trkpt lat="44.40617" lon="3.76464">
        <ele>1440.059</ele>
        <time>2012-05-23T08:39:16Z</time>
      </trkpt>
      <trkpt lat="44.40632" lon="3.7643">
        <ele>1438.647</ele>
        <time>2012-05-23T08:39:37Z</time>
      </trkpt>
      <trkpt lat="44.40645" lon="3.76396">
        <ele>1436.253</ele>
        <time>2012-05-23T08:39:55Z</time>
      </trkpt>
      <trkpt lat="44.40645" lon="3.7637">
        <ele>1435.584</ele>
        <time>2012-05-23T08:40:08Z</time>
      </trkpt>
      <trkpt lat="44.40633" lon="3.76345">
        <ele>1433.249</ele>
        <time>2012-05-23T08:40:22Z</time>
      </trkpt>
      <trkpt lat="44.40618" lon="3.76335">
        <ele>1431.513</ele>
        <time>2012-05-23T08:40:34Z</time>
      </trkpt>
      <trkpt lat="44.40603" lon="3.76333">
        <ele>1430.448</ele>
        <time>2012-05-23T08:40:46Z</time>
      </trkpt>
      <trkpt lat="44.40574" lon="3.76329">
        <ele>1429.663</ele>
        <time>2012-05-23T08:41:06Z</time>
      </trkpt>
      <trkpt lat="44.40541" lon="3.76324">
        <ele>1426.509</ele>
        <time>2012-05-23T08:41:30Z</time>
      </trkpt>
      <trkpt lat="44.40527" lon="3.76322">
        <ele>1427.23</ele>
        <time>2012-05-23T08:41:48Z</time>
      </trkpt>
      <trkpt lat="44.40501" lon="3.76306">
        <ele>1424.711</ele>
        <time>2012-05-23T08:42:08Z</time>
      </trkpt>
      <trkpt lat="44.40471" lon="3.76309">
        <ele>1422.197</ele>
        <time>2012-05-23T08:42:30Z</time>
      </trkpt>
      <trkpt lat="44.40437" lon="3.76316">
        <ele>1419.289</ele>
        <time>2012-05-23T08:42:55Z</time>
      </trkpt>
      <trkpt lat="44.40421" lon="3.76314">
        <ele>1415.951</ele>
        <time>2012-05-23T08:43:07Z</time>
      </trkpt>
      <trkpt lat="44.40389" lon="3.76298">
        <ele>1415.302</ele>
        <time>2012-05-23T08:43:30Z</time>
      </trkpt>
      <trkpt lat="44.40367" lon="3.76275">
        <ele>1413.538</ele>
        <time>2012-05-23T08:43:51Z</time>
      </trkpt>
      <trkpt lat="44.40345" lon="3.76251">
        <ele>1410.461</ele>
        <time>2012-05-23T08:44:10Z</time>
      </trkpt>
      <trkpt lat="44.40322" lon="3.76209">
        <ele>1407.251</ele>
        <time>2012-05-23T08:44:37Z</time>
      </trkpt>
      <trkpt lat="44.4032" lon="3.76203">
        <ele>1408.48</ele>
        <time>2012-05-23T08:44:40Z</time>
      </trkpt>
      <trkpt lat="44.40315" lon="3.76188">
        <ele>1409.373</ele>
        <time>2012-05-23T08:44:49Z</time>
      </trkpt>
      <trkpt lat="44.40314" lon="3.76181">
        <ele>1407.408</ele>
        <time>2012-05-23T08:44:53Z</time>
      </trkpt>
      <trkpt lat="44.40321" lon="3.76142">
        <ele>1404.352</ele>
        <time>2012-05-23T08:45:15Z</time>
      </trkpt>
      <trkpt lat="44.40337" lon="3.76111">
        <ele>1401.278</ele>
        <time>2012-05-23T08:45:36Z</time>
      </trkpt>
      <trkpt lat="44.40352" lon="3.76077">
        <ele>1399.595</ele>
        <time>2012-05-23T08:45:57Z</time>
      </trkpt>
      <trkpt lat="44.40371" lon="3.76042">
        <ele>1396.01</ele>
        <time>2012-05-23T08:46:21Z</time>
      </trkpt>
      <trkpt lat="44.40389" lon="3.76021">
        <ele>1395.969</ele>
        <time>2012-05-23T08:46:45Z</time>
      </trkpt>
      <trkpt lat="44.40392" lon="3.76018">
        <ele>1393.526</ele>
        <time>2012-05-23T08:48:00Z</time>
      </trkpt>
      <trkpt lat="44.40421" lon="3.76011">
        <ele>1393.322</ele>
        <time>2012-05-23T08:48:24Z</time>
      </trkpt>
      <trkpt lat="44.40434" lon="3.76008">
        <ele>1389.991</ele>
        <time>2012-05-23T08:48:36Z</time>
      </trkpt>
      <trkpt lat="44.4046" lon="3.75992">
        <ele>1386.939</ele>
        <time>2012-05-23T08:48:57Z</time>
      </trkpt>
      <trkpt lat="44.40474" lon="3.75953">
        <ele>1383.556</ele>
        <time>2012-05-23T08:49:20Z</time>
      </trkpt>
      <trkpt lat="44.4048" lon="3.759">
        <ele>1380.185</ele>
        <time>2012-05-23T08:49:48Z</time>
      </trkpt>
      <trkpt lat="44.40491" lon="3.75852">
        <ele>1378.581</ele>
        <time>2012-05-23T08:50:15Z</time>
      </trkpt>
      <trkpt lat="44.40508" lon="3.75814">
        <ele>1375.658</ele>
        <time>2012-05-23T08:50:41Z</time>
      </trkpt>
      <trkpt lat="44.40525" lon="3.75789">
        <ele>1373.456</ele>
        <time>2012-05-23T08:51:04Z</time>
      </trkpt>
      <trkpt lat="44.40535" lon="3.75773">
        <ele>1374.346</ele>
        <time>2012-05-23T08:51:26Z</time>
      </trkpt>
      <trkpt lat="44.40547" lon="3.75759">
        <ele>1371.98</ele>
        <time>2012-05-23T08:51:38Z</time>
      </trkpt>
      <trkpt lat="44.40565" lon="3.75738">
        <ele>1375.095</ele>
        <time>2012-05-23T08:51:55Z</time>
      </trkpt>
      <trkpt lat="44.40567" lon="3.75735">
        <ele>1372.973</ele>
        <time>2012-05-23T08:51:57Z</time>
      </trkpt>
      <trkpt lat="44.40573" lon="3.75729">
        <ele>1370.995</ele>
        <time>2012-05-23T08:52:11Z</time>
      </trkpt>
      <trkpt lat="44.40571" lon="3.75727">
        <ele>1369.338</ele>
        <time>2012-05-23T08:57:49Z</time>
      </trkpt>
      <trkpt lat="44.40568" lon="3.75728">
        <ele>1368.536</ele>
        <time>2012-05-23T08:57:53Z</time>
      </trkpt>
      <trkpt lat="44.40565" lon="3.75724">
        <ele>1366.157</ele>
        <time>2012-05-23T08:57:59Z</time>
      </trkpt>
      <trkpt lat="44.40567" lon="3.75718">
        <ele>1365.198</ele>
        <time>2012-05-23T08:58:04Z</time>
      </trkpt>
      <trkpt lat="44.40566" lon="3.75713">
        <ele>1363.976</ele>
        <time>2012-05-23T08:58:07Z</time>
      </trkpt>
      <trkpt lat="44.40568" lon="3.75706">
        <ele>1362.858</ele>
        <time>2012-05-23T08:58:12Z</time>
      </trkpt>
      <trkpt lat="44.40561" lon="3.75697">
        <ele>1361.017</ele>
        <time>2012-05-23T08:58:20Z</time>
      </trkpt>
      <trkpt lat="44.40559" lon="3.75696">
        <ele>1361.177</ele>
        <time>2012-05-23T08:58:22Z</time>
      </trkpt>
      <trkpt lat="44.40555" lon="3.7569">
        <ele>1360.231</ele>
        <time>2012-05-23T08:58:28Z</time>
      </trkpt>
      <trkpt lat="44.40552" lon="3.75685">
        <ele>1361.591</ele>
        <time>2012-05-23T08:58:33Z</time>
      </trkpt>
      <trkpt lat="44.40548" lon="3.75675">
        <ele>1359.459</ele>
        <time>2012-05-23T08:58:40Z</time>
      </trkpt>
      <trkpt lat="44.40546" lon="3.75673">
        <ele>1357.9</ele>
        <time>2012-05-23T08:58:42Z</time>
      </trkpt>
      <trkpt lat="44.40542" lon="3.75665">
        <ele>1356.185</ele>
        <time>2012-05-23T08:58:47Z</time>
      </trkpt>
      <trkpt lat="44.40542" lon="3.75663">
        <ele>1356.068</ele>
        <time>2012-05-23T08:58:48Z</time>
      </trkpt>
      <trkpt lat="44.40533" lon="3.75648">
        <ele>1352.161</ele>
        <time>2012-05-23T08:58:58Z</time>
      </trkpt>
      <trkpt lat="44.40523" lon="3.7564">
        <ele>1349.77</ele>
        <time>2012-05-23T08:59:06Z</time>
      </trkpt>
      <trkpt lat="44.40517" lon="3.75635">
        <ele>1348.386</ele>
        <time>2012-05-23T08:59:13Z</time>
      </trkpt>
      <trkpt lat="44.40512" lon="3.75631">
        <ele>1347.336</ele>
        <time>2012-05-23T08:59:17Z</time>
      </trkpt>
      <trkpt lat="44.40507" lon="3.75628">
        <ele>1346.427</ele>
        <time>2012-05-23T08:59:22Z</time>
      </trkpt>
      <trkpt lat="44.40504" lon="3.75626">
        <ele>1345.547</ele>
        <time>2012-05-23T08:59:24Z</time>
      </trkpt>
      <trkpt lat="44.40499" lon="3.75622">
        <ele>1343.278</ele>
        <time>2012-05-23T08:59:30Z</time>
      </trkpt>
      <trkpt lat="44.40491" lon="3.75609">
        <ele>1341.594</ele>
        <time>2012-05-23T08:59:41Z</time>
      </trkpt>
      <trkpt lat="44.40488" lon="3.75603">
        <ele>1338.946</ele>
        <time>2012-05-23T08:59:45Z</time>
      </trkpt>
      <trkpt lat="44.40489" lon="3.75595">
        <ele>1339.682</ele>
        <time>2012-05-23T08:59:50Z</time>
      </trkpt>
      <trkpt lat="44.40487" lon="3.75594">
        <ele>1337.633</ele>
        <time>2012-05-23T08:59:52Z</time>
      </trkpt>
      <trkpt lat="44.40486" lon="3.75591">
        <ele>1336.313</ele>
        <time>2012-05-23T08:59:55Z</time>
      </trkpt>
      <trkpt lat="44.40483" lon="3.75591">
        <ele>1334.802</ele>
        <time>2012-05-23T08:59:57Z</time>
      </trkpt>
      <trkpt lat="44.40481" lon="3.75591">
        <ele>1333.027</ele>
        <time>2012-05-23T08:59:59Z</time>
      </trkpt>
      <trkpt lat="44.40482" lon="3.75587">
        <ele>1333.537</ele>
        <time>2012-05-23T09:00:02Z</time>
      </trkpt>
      <trkpt lat="44.40483" lon="3.75584">
        <ele>1331.901</ele>
        <time>2012-05-23T09:00:04Z</time>
      </trkpt>
      <trkpt lat="44.40481" lon="3.75579">
        <ele>1331.077</ele>
        <time>2012-05-23T09:00:07Z</time>
      </trkpt>
      <trkpt lat="44.40478" lon="3.75569">
        <ele>1330.379</ele>
        <time>2012-05-23T09:00:13Z</time>
      </trkpt>
      <trkpt lat="44.40478" lon="3.75562">
        <ele>1329.347</ele>
        <time>2012-05-23T09:00:17Z</time>
      </trkpt>
      <trkpt lat="44.40473" lon="3.75533">
        <ele>1327.86</ele>
        <time>2012-05-23T09:00:34Z</time>
      </trkpt>
      <trkpt lat="44.40471" lon="3.75531">
        <ele>1327.211</ele>
        <time>2012-05-23T09:00:36Z</time>
      </trkpt>
      <trkpt lat="44.40469" lon="3.75529">
        <ele>1325.137</ele>
        <time>2012-05-23T09:00:39Z</time>
      </trkpt>
      <trkpt lat="44.40462" lon="3.7553">
        <ele>1322.234</ele>
        <time>2012-05-23T09:00:45Z</time>
      </trkpt>
      <trkpt lat="44.4046" lon="3.75526">
        <ele>1320.838</ele>
        <time>2012-05-23T09:00:50Z</time>
      </trkpt>
      <trkpt lat="44.40461" lon="3.75518">
        <ele>1320.303</ele>
        <time>2012-05-23T09:00:55Z</time>
      </trkpt>
      <trkpt lat="44.40459" lon="3.75515">
        <ele>1319.351</ele>
        <time>2012-05-23T09:00:59Z</time>
      </trkpt>
      <trkpt lat="44.40455" lon="3.75512">
        <ele>1317.564</ele>
        <time>2012-05-23T09:01:03Z</time>
      </trkpt>
      <trkpt lat="44.40453" lon="3.75506">
        <ele>1316.351</ele>
        <time>2012-05-23T09:01:07Z</time>
      </trkpt>
      <trkpt lat="44.4045" lon="3.75503">
        <ele>1315.661</ele>
        <time>2012-05-23T09:01:10Z</time>
      </trkpt>
      <trkpt lat="44.40448" lon="3.75496">
        <ele>1314.796</ele>
        <time>2012-05-23T09:01:14Z</time>
      </trkpt>
      <trkpt lat="44.40448" lon="3.75492">
        <ele>1316.912</ele>
        <time>2012-05-23T09:01:31Z</time>
      </trkpt>
      <trkpt lat="44.40448" lon="3.75489">
        <ele>1316.818</ele>
        <time>2012-05-23T09:01:40Z</time>
      </trkpt>
      <trkpt lat="44.40446" lon="3.75487">
        <ele>1315.391</ele>
        <time>2012-05-23T09:01:42Z</time>
      </trkpt>
      <trkpt lat="44.40444" lon="3.75483">
        <ele>1313.984</ele>
        <time>2012-05-23T09:01:45Z</time>
      </trkpt>
      <trkpt lat="44.4044" lon="3.7548">
        <ele>1312.264</ele>
        <time>2012-05-23T09:01:48Z</time>
      </trkpt>
      <trkpt lat="44.40436" lon="3.75475">
        <ele>1313.273</ele>
        <time>2012-05-23T09:01:52Z</time>
      </trkpt>
      <trkpt lat="44.40434" lon="3.75472">
        <ele>1310.727</ele>
        <time>2012-05-23T09:01:54Z</time>
      </trkpt>
      <trkpt lat="44.40427" lon="3.75468">
        <ele>1308.035</ele>
        <time>2012-05-23T09:01:59Z</time>
      </trkpt>
      <trkpt lat="44.40425" lon="3.75464">
        <ele>1308.209</ele>
        <time>2012-05-23T09:02:03Z</time>
      </trkpt>
      <trkpt lat="44.40423" lon="3.75463">
        <ele>1306.4</ele>
        <time>2012-05-23T09:02:05Z</time>
      </trkpt>
      <trkpt lat="44.40415" lon="3.75454">
        <ele>1305.608</ele>
        <time>2012-05-23T09:02:12Z</time>
      </trkpt>
      <trkpt lat="44.40412" lon="3.7545">
        <ele>1306.928</ele>
        <time>2012-05-23T09:02:16Z</time>
      </trkpt>
      <trkpt lat="44.4041" lon="3.75451">
        <ele>1305.343</ele>
        <time>2012-05-23T09:02:18Z</time>
      </trkpt>
      <trkpt lat="44.40408" lon="3.75451">
        <ele>1303.016</ele>
        <time>2012-05-23T09:02:20Z</time>
      </trkpt>
      <trkpt lat="44.40398" lon="3.75445">
        <ele>1301.688</ele>
        <time>2012-05-23T09:02:28Z</time>
      </trkpt>
      <trkpt lat="44.40395" lon="3.75444">
        <ele>1301.188</ele>
        <time>2012-05-23T09:02:30Z</time>
      </trkpt>
      <trkpt lat="44.40392" lon="3.75449">
        <ele>1301.97</ele>
        <time>2012-05-23T09:02:34Z</time>
      </trkpt>
      <trkpt lat="44.40388" lon="3.75449">
        <ele>1299.501</ele>
        <time>2012-05-23T09:02:37Z</time>
      </trkpt>
      <trkpt lat="44.40378" lon="3.75438">
        <ele>1297.335</ele>
        <time>2012-05-23T09:02:46Z</time>
      </trkpt>
      <trkpt lat="44.40371" lon="3.75434">
        <ele>1295.691</ele>
        <time>2012-05-23T09:02:52Z</time>
      </trkpt>
      <trkpt lat="44.40366" lon="3.75435">
        <ele>1294.875</ele>
        <time>2012-05-23T09:02:55Z</time>
      </trkpt>
      <trkpt lat="44.40363" lon="3.75434">
        <ele>1293.718</ele>
        <time>2012-05-23T09:02:58Z</time>
      </trkpt>
      <trkpt lat="44.4036" lon="3.75436">
        <ele>1293.089</ele>
        <time>2012-05-23T09:03:01Z</time>
      </trkpt>
      <trkpt lat="44.40351" lon="3.75439">
        <ele>1291.115</ele>
        <time>2012-05-23T09:03:09Z</time>
      </trkpt>
      <trkpt lat="44.40348" lon="3.75442">
        <ele>1289.132</ele>
        <time>2012-05-23T09:03:12Z</time>
      </trkpt>
      <trkpt lat="44.40344" lon="3.7544">
        <ele>1288.678</ele>
        <time>2012-05-23T09:03:17Z</time>
      </trkpt>
      <trkpt lat="44.40336" lon="3.7544">
        <ele>1284.901</ele>
        <time>2012-05-23T09:03:24Z</time>
      </trkpt>
      <trkpt lat="44.40333" lon="3.75439">
        <ele>1284.132</ele>
        <time>2012-05-23T09:03:26Z</time>
      </trkpt>
      <trkpt lat="44.4033" lon="3.7544">
        <ele>1283.542</ele>
        <time>2012-05-23T09:03:29Z</time>
      </trkpt>
      <trkpt lat="44.40325" lon="3.75439">
        <ele>1281.95</ele>
        <time>2012-05-23T09:03:33Z</time>
      </trkpt>
      <trkpt lat="44.40322" lon="3.75438">
        <ele>1279.991</ele>
        <time>2012-05-23T09:03:37Z</time>
      </trkpt>
      <trkpt lat="44.40318" lon="3.75439">
        <ele>1278.511</ele>
        <time>2012-05-23T09:03:40Z</time>
      </trkpt>
      <trkpt lat="44.40314" lon="3.75429">
        <ele>1277.187</ele>
        <time>2012-05-23T09:03:48Z</time>
      </trkpt>
      <trkpt lat="44.40314" lon="3.75423">
        <ele>1275.665</ele>
        <time>2012-05-23T09:03:52Z</time>
      </trkpt>
      <trkpt lat="44.4031" lon="3.7542">
        <ele>1274.515</ele>
        <time>2012-05-23T09:03:56Z</time>
      </trkpt>
      <trkpt lat="44.40305" lon="3.7542">
        <ele>1273.352</ele>
        <time>2012-05-23T09:04:00Z</time>
      </trkpt>
      <trkpt lat="44.40296" lon="3.75413">
        <ele>1272.298</ele>
        <time>2012-05-23T09:04:07Z</time>
      </trkpt>
      <trkpt lat="44.40293" lon="3.75414">
        <ele>1271.799</ele>
        <time>2012-05-23T09:04:09Z</time>
      </trkpt>
      <trkpt lat="44.40274" lon="3.75406">
        <ele>1267.899</ele>
        <time>2012-05-23T09:04:23Z</time>
      </trkpt>
      <trkpt lat="44.4025" lon="3.75397">
        <ele>1265.654</ele>
        <time>2012-05-23T09:04:41Z</time>
      </trkpt>
      <trkpt lat="44.40228" lon="3.75389">
        <ele>1266.866</ele>
        <time>2012-05-23T09:04:59Z</time>
      </trkpt>
      <trkpt lat="44.40212" lon="3.75377">
        <ele>1263.693</ele>
        <time>2012-05-23T09:05:12Z</time>
      </trkpt>
      <trkpt lat="44.40211" lon="3.75377">
        <ele>1263.691</ele>
        <time>2012-05-23T09:05:13Z</time>
      </trkpt>
      <trkpt lat="44.40188" lon="3.75361">
        <ele>1260.816</ele>
        <time>2012-05-23T09:05:30Z</time>
      </trkpt>
      <trkpt lat="44.40182" lon="3.75358">
        <ele>1260.592</ele>
        <time>2012-05-23T09:05:35Z</time>
      </trkpt>
      <trkpt lat="44.40167" lon="3.75346">
        <ele>1258.793</ele>
        <time>2012-05-23T09:05:47Z</time>
      </trkpt>
      <trkpt lat="44.40156" lon="3.7534">
        <ele>1255.692</ele>
        <time>2012-05-23T09:05:56Z</time>
      </trkpt>
      <trkpt lat="44.40154" lon="3.7534">
        <ele>1255.69</ele>
        <time>2012-05-23T09:05:57Z</time>
      </trkpt>
      <trkpt lat="44.40131" lon="3.75334">
        <ele>1252.374</ele>
        <time>2012-05-23T09:06:15Z</time>
      </trkpt>
      <trkpt lat="44.40125" lon="3.75333">
        <ele>1251.752</ele>
        <time>2012-05-23T09:11:18Z</time>
      </trkpt>
      <trkpt lat="44.40122" lon="3.75332">
        <ele>1250.439</ele>
        <time>2012-05-23T09:11:40Z</time>
      </trkpt>
      <trkpt lat="44.4011" lon="3.75331">
        <ele>1250.023</ele>
        <time>2012-05-23T09:11:51Z</time>
      </trkpt>
      <trkpt lat="44.40097" lon="3.75334">
        <ele>1247.77</ele>
        <time>2012-05-23T09:12:04Z</time>
      </trkpt>
      <trkpt lat="44.40087" lon="3.75331">
        <ele>1245.373</ele>
        <time>2012-05-23T09:12:13Z</time>
      </trkpt>
      <trkpt lat="44.40076" lon="3.75329">
        <ele>1244.952</ele>
        <time>2012-05-23T09:12:22Z</time>
      </trkpt>
      <trkpt lat="44.40051" lon="3.75309">
        <ele>1244.142</ele>
        <time>2012-05-23T09:12:46Z</time>
      </trkpt>
      <trkpt lat="44.40024" lon="3.75288">
        <ele>1241.725</ele>
        <time>2012-05-23T09:13:09Z</time>
      </trkpt>
      <trkpt lat="44.40006" lon="3.7527">
        <ele>1238.213</ele>
        <time>2012-05-23T09:13:27Z</time>
      </trkpt>
      <trkpt lat="44.39988" lon="3.75259">
        <ele>1235.596</ele>
        <time>2012-05-23T09:13:41Z</time>
      </trkpt>
      <trkpt lat="44.39975" lon="3.75247">
        <ele>1233.001</ele>
        <time>2012-05-23T09:13:54Z</time>
      </trkpt>
      <trkpt lat="44.39961" lon="3.75238">
        <ele>1230.102</ele>
        <time>2012-05-23T09:14:08Z</time>
      </trkpt>
      <trkpt lat="44.39952" lon="3.75235">
        <ele>1228.322</ele>
        <time>2012-05-23T09:14:30Z</time>
      </trkpt>
      <trkpt lat="44.39948" lon="3.75236">
        <ele>1228.715</ele>
        <time>2012-05-23T09:15:06Z</time>
      </trkpt>
      <trkpt lat="44.39945" lon="3.75234">
        <ele>1230.03</ele>
        <time>2012-05-23T09:15:16Z</time>
      </trkpt>
      <trkpt lat="44.39949" lon="3.75229">
        <ele>1228.968</ele>
        <time>2012-05-23T09:15:28Z</time>
      </trkpt>
      <trkpt lat="44.39955" lon="3.75209">
        <ele>1225.725</ele>
        <time>2012-05-23T09:15:43Z</time>
      </trkpt>
      <trkpt lat="44.39955" lon="3.75208">
        <ele>1225.723</ele>
        <time>2012-05-23T09:15:44Z</time>
      </trkpt>
      <trkpt lat="44.39962" lon="3.75184">
        <ele>1225.441</ele>
        <time>2012-05-23T09:16:03Z</time>
      </trkpt>
      <trkpt lat="44.39974" lon="3.75163">
        <ele>1224.963</ele>
        <time>2012-05-23T09:16:38Z</time>
      </trkpt>
      <trkpt lat="44.39977" lon="3.75157">
        <ele>1224.611</ele>
        <time>2012-05-23T09:16:45Z</time>
      </trkpt>
      <trkpt lat="44.39975" lon="3.75149">
        <ele>1222.116</ele>
        <time>2012-05-23T09:16:50Z</time>
      </trkpt>
      <trkpt lat="44.39973" lon="3.75146">
        <ele>1221.404</ele>
        <time>2012-05-23T09:16:52Z</time>
      </trkpt>
      <trkpt lat="44.39969" lon="3.75138">
        <ele>1220.479</ele>
        <time>2012-05-23T09:17:06Z</time>
      </trkpt>
      <trkpt lat="44.39968" lon="3.75137">
        <ele>1220.352</ele>
        <time>2012-05-23T09:17:13Z</time>
      </trkpt>
      <trkpt lat="44.39962" lon="3.75121">
        <ele>1216.71</ele>
        <time>2012-05-23T09:17:30Z</time>
      </trkpt>
      <trkpt lat="44.39951" lon="3.75098">
        <ele>1216.642</ele>
        <time>2012-05-23T09:17:51Z</time>
      </trkpt>
      <trkpt lat="44.3995" lon="3.75095">
        <ele>1214.446</ele>
        <time>2012-05-23T09:17:53Z</time>
      </trkpt>
      <trkpt lat="44.39944" lon="3.75083">
        <ele>1213.514</ele>
        <time>2012-05-23T09:18:03Z</time>
      </trkpt>
      <trkpt lat="44.39943" lon="3.75079">
        <ele>1214.764</ele>
        <time>2012-05-23T09:18:05Z</time>
      </trkpt>
      <trkpt lat="44.3994" lon="3.75062">
        <ele>1213.56</ele>
        <time>2012-05-23T09:18:15Z</time>
      </trkpt>
      <trkpt lat="44.39939" lon="3.75049">
        <ele>1213.4</ele>
        <time>2012-05-23T09:18:23Z</time>
      </trkpt>
      <trkpt lat="44.39936" lon="3.75038">
        <ele>1211.333</ele>
        <time>2012-05-23T09:18:30Z</time>
      </trkpt>
      <trkpt lat="44.39935" lon="3.75036">
        <ele>1210.763</ele>
        <time>2012-05-23T09:18:44Z</time>
      </trkpt>
      <trkpt lat="44.39933" lon="3.75034">
        <ele>1210.078</ele>
        <time>2012-05-23T09:19:02Z</time>
      </trkpt>
      <trkpt lat="44.39929" lon="3.75025">
        <ele>1211.361</ele>
        <time>2012-05-23T09:19:13Z</time>
      </trkpt>
      <trkpt lat="44.39928" lon="3.75016">
        <ele>1208.762</ele>
        <time>2012-05-23T09:19:23Z</time>
      </trkpt>
      <trkpt lat="44.39926" lon="3.75015">
        <ele>1207.234</ele>
        <time>2012-05-23T09:19:32Z</time>
      </trkpt>
      <trkpt lat="44.3992" lon="3.7501">
        <ele>1207.507</ele>
        <time>2012-05-23T09:19:37Z</time>
      </trkpt>
      <trkpt lat="44.39915" lon="3.74999">
        <ele>1208.176</ele>
        <time>2012-05-23T09:19:46Z</time>
      </trkpt>
      <trkpt lat="44.39914" lon="3.74994">
        <ele>1206.186</ele>
        <time>2012-05-23T09:20:40Z</time>
      </trkpt>
      <trkpt lat="44.39931" lon="3.74989">
        <ele>1208.57</ele>
        <time>2012-05-23T09:20:52Z</time>
      </trkpt>
      <trkpt lat="44.39936" lon="3.74986">
        <ele>1207.416</ele>
        <time>2012-05-23T09:20:56Z</time>
      </trkpt>
      <trkpt lat="44.39938" lon="3.74985">
        <ele>1206.068</ele>
        <time>2012-05-23T09:20:58Z</time>
      </trkpt>
      <trkpt lat="44.39961" lon="3.74974">
        <ele>1206.425</ele>
        <time>2012-05-23T09:21:15Z</time>
      </trkpt>
      <trkpt lat="44.39973" lon="3.74967">
        <ele>1207.015</ele>
        <time>2012-05-23T09:21:32Z</time>
      </trkpt>
      <trkpt lat="44.39981" lon="3.74964">
        <ele>1207.655</ele>
        <time>2012-05-23T09:21:44Z</time>
      </trkpt>
      <trkpt lat="44.39982" lon="3.74963">
        <ele>1206.063</ele>
        <time>2012-05-23T09:21:46Z</time>
      </trkpt>
      <trkpt lat="44.39984" lon="3.74961">
        <ele>1204.681</ele>
        <time>2012-05-23T09:21:48Z</time>
      </trkpt>
      <trkpt lat="44.39986" lon="3.74959">
        <ele>1207.031</ele>
        <time>2012-05-23T09:21:50Z</time>
      </trkpt>
      <trkpt lat="44.39996" lon="3.7494">
        <ele>1207.802</ele>
        <time>2012-05-23T09:23:31Z</time>
      </trkpt>
      <trkpt lat="44.40003" lon="3.74939">
        <ele>1209.29</ele>
        <time>2012-05-23T09:23:38Z</time>
      </trkpt>
      <trkpt lat="44.40017" lon="3.74933">
        <ele>1209.752</ele>
        <time>2012-05-23T09:23:52Z</time>
      </trkpt>
      <trkpt lat="44.4002" lon="3.74933">
        <ele>1209.679</ele>
        <time>2012-05-23T09:23:54Z</time>
      </trkpt>
      <trkpt lat="44.40027" lon="3.74931">
        <ele>1211.002</ele>
        <time>2012-05-23T09:23:59Z</time>
      </trkpt>
      <trkpt lat="44.4003" lon="3.74931">
        <ele>1212.398</ele>
        <time>2012-05-23T09:24:01Z</time>
      </trkpt>
      <trkpt lat="44.40033" lon="3.74932">
        <ele>1214.948</ele>
        <time>2012-05-23T09:24:03Z</time>
      </trkpt>
      <trkpt lat="44.40037" lon="3.74932">
        <ele>1212.382</ele>
        <time>2012-05-23T09:24:07Z</time>
      </trkpt>
      <trkpt lat="44.4005" lon="3.7493">
        <ele>1210.807</ele>
        <time>2012-05-23T09:24:18Z</time>
      </trkpt>
      <trkpt lat="44.40067" lon="3.74928">
        <ele>1212.513</ele>
        <time>2012-05-23T09:24:30Z</time>
      </trkpt>
      <trkpt lat="44.40073" lon="3.74931">
        <ele>1214.242</ele>
        <time>2012-05-23T09:24:35Z</time>
      </trkpt>
      <trkpt lat="44.40075" lon="3.74932">
        <ele>1211.3</ele>
        <time>2012-05-23T09:24:37Z</time>
      </trkpt>
      <trkpt lat="44.40078" lon="3.74933">
        <ele>1208.804</ele>
        <time>2012-05-23T09:24:39Z</time>
      </trkpt>
      <trkpt lat="44.40086" lon="3.74933">
        <ele>1210.574</ele>
        <time>2012-05-23T09:24:44Z</time>
      </trkpt>
      <trkpt lat="44.40098" lon="3.74937">
        <ele>1212.275</ele>
        <time>2012-05-23T09:24:52Z</time>
      </trkpt>
      <trkpt lat="44.40119" lon="3.74944">
        <ele>1211.424</ele>
        <time>2012-05-23T09:25:11Z</time>
      </trkpt>
      <trkpt lat="44.40145" lon="3.74932">
        <ele>1212.59</ele>
        <time>2012-05-23T09:25:32Z</time>
      </trkpt>
      <trkpt lat="44.40151" lon="3.74921">
        <ele>1214.158</ele>
        <time>2012-05-23T09:25:40Z</time>
      </trkpt>
      <trkpt lat="44.40154" lon="3.74918">
        <ele>1215.761</ele>
        <time>2012-05-23T09:25:43Z</time>
      </trkpt>
      <trkpt lat="44.40156" lon="3.74915">
        <ele>1214.306</ele>
        <time>2012-05-23T09:25:45Z</time>
      </trkpt>
      <trkpt lat="44.40173" lon="3.74878">
        <ele>1215.929</ele>
        <time>2012-05-23T09:26:09Z</time>
      </trkpt>
      <trkpt lat="44.40189" lon="3.74849">
        <ele>1218.356</ele>
        <time>2012-05-23T09:26:30Z</time>
      </trkpt>
      <trkpt lat="44.40214" lon="3.74831">
        <ele>1218.94</ele>
        <time>2012-05-23T09:26:53Z</time>
      </trkpt>
      <trkpt lat="44.40236" lon="3.74825">
        <ele>1218.859</ele>
        <time>2012-05-23T09:27:10Z</time>
      </trkpt>
      <trkpt lat="44.40257" lon="3.74821">
        <ele>1221.166</ele>
        <time>2012-05-23T09:27:28Z</time>
      </trkpt>
      <trkpt lat="44.40268" lon="3.7482">
        <ele>1222.451</ele>
        <time>2012-05-23T09:27:37Z</time>
      </trkpt>
      <trkpt lat="44.40292" lon="3.74812">
        <ele>1222.637</ele>
        <time>2012-05-23T09:27:57Z</time>
      </trkpt>
      <trkpt lat="44.40298" lon="3.74809">
        <ele>1223.485</ele>
        <time>2012-05-23T09:28:02Z</time>
      </trkpt>
      <trkpt lat="44.40318" lon="3.748">
        <ele>1224.152</ele>
        <time>2012-05-23T09:28:17Z</time>
      </trkpt>
      <trkpt lat="44.40342" lon="3.74775">
        <ele>1225.194</ele>
        <time>2012-05-23T09:28:37Z</time>
      </trkpt>
      <trkpt lat="44.40345" lon="3.74764">
        <ele>1225.561</ele>
        <time>2012-05-23T09:28:43Z</time>
      </trkpt>
      <trkpt lat="44.40347" lon="3.74727">
        <ele>1224.258</ele>
        <time>2012-05-23T09:29:03Z</time>
      </trkpt>
      <trkpt lat="44.40345" lon="3.74719">
        <ele>1223.813</ele>
        <time>2012-05-23T09:29:08Z</time>
      </trkpt>
      <trkpt lat="44.40346" lon="3.74677">
        <ele>1222.38</ele>
        <time>2012-05-23T09:29:32Z</time>
      </trkpt>
      <trkpt lat="44.40348" lon="3.74652">
        <ele>1222.692</ele>
        <time>2012-05-23T09:29:46Z</time>
      </trkpt>
      <trkpt lat="44.4035" lon="3.74648">
        <ele>1223.467</ele>
        <time>2012-05-23T09:29:51Z</time>
      </trkpt>
      <trkpt lat="44.4035" lon="3.74635">
        <ele>1222.693</ele>
        <time>2012-05-23T09:30:07Z</time>
      </trkpt>
      <trkpt lat="44.40359" lon="3.74606">
        <ele>1224.134</ele>
        <time>2012-05-23T09:30:25Z</time>
      </trkpt>
      <trkpt lat="44.40359" lon="3.74602">
        <ele>1225.653</ele>
        <time>2012-05-23T09:30:28Z</time>
      </trkpt>
      <trkpt lat="44.4036" lon="3.74598">
        <ele>1223.825</ele>
        <time>2012-05-23T09:30:30Z</time>
      </trkpt>
      <trkpt lat="44.4036" lon="3.7459">
        <ele>1224.233</ele>
        <time>2012-05-23T09:30:34Z</time>
      </trkpt>
      <trkpt lat="44.40363" lon="3.74542">
        <ele>1225.32</ele>
        <time>2012-05-23T09:31:02Z</time>
      </trkpt>
      <trkpt lat="44.40351" lon="3.74525">
        <ele>1225.872</ele>
        <time>2012-05-23T09:31:19Z</time>
      </trkpt>
      <trkpt lat="44.40323" lon="3.74495">
        <ele>1223.685</ele>
        <time>2012-05-23T09:31:43Z</time>
      </trkpt>
      <trkpt lat="44.40304" lon="3.74483">
        <ele>1222.921</ele>
        <time>2012-05-23T09:32:01Z</time>
      </trkpt>
      <trkpt lat="44.40288" lon="3.74484">
        <ele>1222.641</ele>
        <time>2012-05-23T09:32:15Z</time>
      </trkpt>
      <trkpt lat="44.4027" lon="3.74477">
        <ele>1219.465</ele>
        <time>2012-05-23T09:32:30Z</time>
      </trkpt>
      <trkpt lat="44.40251" lon="3.74462">
        <ele>1218.228</ele>
        <time>2012-05-23T09:32:47Z</time>
      </trkpt>
      <trkpt lat="44.40249" lon="3.74461">
        <ele>1218.139</ele>
        <time>2012-05-23T09:32:49Z</time>
      </trkpt>
      <trkpt lat="44.40229" lon="3.74449">
        <ele>1217.039</ele>
        <time>2012-05-23T09:33:05Z</time>
      </trkpt>
      <trkpt lat="44.40208" lon="3.74436">
        <ele>1215.76</ele>
        <time>2012-05-23T09:33:23Z</time>
      </trkpt>
      <trkpt lat="44.40197" lon="3.74432">
        <ele>1215.26</ele>
        <time>2012-05-23T09:33:32Z</time>
      </trkpt>
      <trkpt lat="44.40193" lon="3.74432">
        <ele>1214.532</ele>
        <time>2012-05-23T09:33:35Z</time>
      </trkpt>
      <trkpt lat="44.40182" lon="3.74432">
        <ele>1213.98</ele>
        <time>2012-05-23T09:33:46Z</time>
      </trkpt>
      <trkpt lat="44.40172" lon="3.74432">
        <ele>1212.461</ele>
        <time>2012-05-23T09:34:03Z</time>
      </trkpt>
      <trkpt lat="44.40161" lon="3.74432">
        <ele>1211.82</ele>
        <time>2012-05-23T09:34:11Z</time>
      </trkpt>
      <trkpt lat="44.40146" lon="3.74434">
        <ele>1210.172</ele>
        <time>2012-05-23T09:34:25Z</time>
      </trkpt>
      <trkpt lat="44.40123" lon="3.74429">
        <ele>1208.88</ele>
        <time>2012-05-23T09:34:42Z</time>
      </trkpt>
      <trkpt lat="44.40108" lon="3.74425">
        <ele>1209.29</ele>
        <time>2012-05-23T09:34:59Z</time>
      </trkpt>
      <trkpt lat="44.40104" lon="3.74423">
        <ele>1207.759</ele>
        <time>2012-05-23T09:35:03Z</time>
      </trkpt>
      <trkpt lat="44.40091" lon="3.74394">
        <ele>1207.155</ele>
        <time>2012-05-23T09:35:23Z</time>
      </trkpt>
      <trkpt lat="44.40069" lon="3.74375">
        <ele>1205.124</ele>
        <time>2012-05-23T09:35:43Z</time>
      </trkpt>
      <trkpt lat="44.40051" lon="3.74374">
        <ele>1204.593</ele>
        <time>2012-05-23T09:35:57Z</time>
      </trkpt>
      <trkpt lat="44.40025" lon="3.74372">
        <ele>1203.303</ele>
        <time>2012-05-23T09:36:18Z</time>
      </trkpt>
      <trkpt lat="44.40023" lon="3.74378">
        <ele>1202.957</ele>
        <time>2012-05-23T09:36:22Z</time>
      </trkpt>
      <trkpt lat="44.40021" lon="3.74383">
        <ele>1202.319</ele>
        <time>2012-05-23T09:36:25Z</time>
      </trkpt>
      <trkpt lat="44.40016" lon="3.74403">
        <ele>1199.619</ele>
        <time>2012-05-23T09:36:39Z</time>
      </trkpt>
      <trkpt lat="44.40009" lon="3.74423">
        <ele>1199.172</ele>
        <time>2012-05-23T09:36:51Z</time>
      </trkpt>
      <trkpt lat="44.39991" lon="3.74438">
        <ele>1197.67</ele>
        <time>2012-05-23T09:37:08Z</time>
      </trkpt>
      <trkpt lat="44.39985" lon="3.74439">
        <ele>1197.838</ele>
        <time>2012-05-23T09:37:12Z</time>
      </trkpt>
      <trkpt lat="44.39966" lon="3.74439">
        <ele>1198.974</ele>
        <time>2012-05-23T09:37:27Z</time>
      </trkpt>
      <trkpt lat="44.39952" lon="3.74441">
        <ele>1197.482</ele>
        <time>2012-05-23T09:37:37Z</time>
      </trkpt>
      <trkpt lat="44.39931" lon="3.7445">
        <ele>1195.313</ele>
        <time>2012-05-23T09:37:56Z</time>
      </trkpt>
      <trkpt lat="44.39924" lon="3.74453">
        <ele>1195.02</ele>
        <time>2012-05-23T09:38:01Z</time>
      </trkpt>
      <trkpt lat="44.39907" lon="3.74457">
        <ele>1194.456</ele>
        <time>2012-05-23T09:38:16Z</time>
      </trkpt>
      <trkpt lat="44.39905" lon="3.74458">
        <ele>1194.179</ele>
        <time>2012-05-23T09:38:18Z</time>
      </trkpt>
      <trkpt lat="44.39883" lon="3.74454">
        <ele>1193.568</ele>
        <time>2012-05-23T09:38:36Z</time>
      </trkpt>
      <trkpt lat="44.39856" lon="3.74443">
        <ele>1194.994</ele>
        <time>2012-05-23T09:39:00Z</time>
      </trkpt>
      <trkpt lat="44.39832" lon="3.74445">
        <ele>1193.515</ele>
        <time>2012-05-23T09:39:20Z</time>
      </trkpt>
      <trkpt lat="44.39807" lon="3.74448">
        <ele>1192.91</ele>
        <time>2012-05-23T09:39:39Z</time>
      </trkpt>
      <trkpt lat="44.39789" lon="3.74451">
        <ele>1192.288</ele>
        <time>2012-05-23T09:39:54Z</time>
      </trkpt>
      <trkpt lat="44.39785" lon="3.74455">
        <ele>1192.911</ele>
        <time>2012-05-23T09:39:58Z</time>
      </trkpt>
      <trkpt lat="44.39778" lon="3.74469">
        <ele>1195.238</ele>
        <time>2012-05-23T09:40:14Z</time>
      </trkpt>
      <trkpt lat="44.39777" lon="3.74471">
        <ele>1192.98</ele>
        <time>2012-05-23T09:40:25Z</time>
      </trkpt>
      <trkpt lat="44.39775" lon="3.74473">
        <ele>1191.612</ele>
        <time>2012-05-23T09:40:27Z</time>
      </trkpt>
      <trkpt lat="44.39769" lon="3.74483">
        <ele>1192.5</ele>
        <time>2012-05-23T09:40:34Z</time>
      </trkpt>
      <trkpt lat="44.3975" lon="3.74508">
        <ele>1191.611</ele>
        <time>2012-05-23T09:40:54Z</time>
      </trkpt>
      <trkpt lat="44.39722" lon="3.7451">
        <ele>1190.172</ele>
        <time>2012-05-23T09:41:16Z</time>
      </trkpt>
      <trkpt lat="44.39702" lon="3.74508">
        <ele>1189.005</ele>
        <time>2012-05-23T09:41:30Z</time>
      </trkpt>
      <trkpt lat="44.3967" lon="3.74513">
        <ele>1188.119</ele>
        <time>2012-05-23T09:41:54Z</time>
      </trkpt>
      <trkpt lat="44.39649" lon="3.74508">
        <ele>1188.171</ele>
        <time>2012-05-23T09:42:10Z</time>
      </trkpt>
      <trkpt lat="44.39641" lon="3.74506">
        <ele>1188.131</ele>
        <time>2012-05-23T09:42:16Z</time>
      </trkpt>
      <trkpt lat="44.39623" lon="3.74512">
        <ele>1186.92</ele>
        <time>2012-05-23T09:42:31Z</time>
      </trkpt>
      <trkpt lat="44.39613" lon="3.74517">
        <ele>1185.33</ele>
        <time>2012-05-23T09:42:38Z</time>
      </trkpt>
      <trkpt lat="44.39587" lon="3.74521">
        <ele>1183.669</ele>
        <time>2012-05-23T09:42:57Z</time>
      </trkpt>
      <trkpt lat="44.3956" lon="3.74526">
        <ele>1182.273</ele>
        <time>2012-05-23T09:43:16Z</time>
      </trkpt>
      <trkpt lat="44.39545" lon="3.74529">
        <ele>1180.099</ele>
        <time>2012-05-23T09:43:28Z</time>
      </trkpt>
      <trkpt lat="44.39519" lon="3.74533">
        <ele>1180.339</ele>
        <time>2012-05-23T09:43:47Z</time>
      </trkpt>
      <trkpt lat="44.39512" lon="3.74533">
        <ele>1180.375</ele>
        <time>2012-05-23T09:43:53Z</time>
      </trkpt>
      <trkpt lat="44.39502" lon="3.74534">
        <ele>1179.571</ele>
        <time>2012-05-23T09:46:00Z</time>
      </trkpt>
      <trkpt lat="44.39497" lon="3.74535">
        <ele>1181.446</ele>
        <time>2012-05-23T09:46:04Z</time>
      </trkpt>
      <trkpt lat="44.3949" lon="3.74537">
        <ele>1179.932</ele>
        <time>2012-05-23T09:46:10Z</time>
      </trkpt>
      <trkpt lat="44.3946" lon="3.7455">
        <ele>1178.935</ele>
        <time>2012-05-23T09:46:34Z</time>
      </trkpt>
      <trkpt lat="44.39434" lon="3.74573">
        <ele>1177.843</ele>
        <time>2012-05-23T09:46:57Z</time>
      </trkpt>
      <trkpt lat="44.39427" lon="3.7458">
        <ele>1178.616</ele>
        <time>2012-05-23T09:47:03Z</time>
      </trkpt>
      <trkpt lat="44.3942" lon="3.74584">
        <ele>1177.542</ele>
        <time>2012-05-23T09:47:09Z</time>
      </trkpt>
      <trkpt lat="44.39411" lon="3.74592">
        <ele>1174.02</ele>
        <time>2012-05-23T09:47:17Z</time>
      </trkpt>
      <trkpt lat="44.39407" lon="3.746">
        <ele>1172.313</ele>
        <time>2012-05-23T09:47:22Z</time>
      </trkpt>
      <trkpt lat="44.39383" lon="3.74614">
        <ele>1170.463</ele>
        <time>2012-05-23T09:47:42Z</time>
      </trkpt>
      <trkpt lat="44.39371" lon="3.74611">
        <ele>1168.525</ele>
        <time>2012-05-23T09:47:50Z</time>
      </trkpt>
      <trkpt lat="44.39358" lon="3.74578">
        <ele>1167.668</ele>
        <time>2012-05-23T09:48:12Z</time>
      </trkpt>
      <trkpt lat="44.39355" lon="3.74562">
        <ele>1166.006</ele>
        <time>2012-05-23T09:48:21Z</time>
      </trkpt>
      <trkpt lat="44.39365" lon="3.74525">
        <ele>1163.343</ele>
        <time>2012-05-23T09:48:41Z</time>
      </trkpt>
      <trkpt lat="44.39379" lon="3.7449">
        <ele>1159.552</ele>
        <time>2012-05-23T09:49:02Z</time>
      </trkpt>
      <trkpt lat="44.3938" lon="3.74488">
        <ele>1159.548</ele>
        <time>2012-05-23T09:49:03Z</time>
      </trkpt>
      <trkpt lat="44.39381" lon="3.74486">
        <ele>1157.023</ele>
        <time>2012-05-23T09:49:05Z</time>
      </trkpt>
      <trkpt lat="44.39384" lon="3.74476">
        <ele>1156.261</ele>
        <time>2012-05-23T09:49:10Z</time>
      </trkpt>
      <trkpt lat="44.39395" lon="3.74441">
        <ele>1153.606</ele>
        <time>2012-05-23T09:49:30Z</time>
      </trkpt>
      <trkpt lat="44.39383" lon="3.74409">
        <ele>1152.437</ele>
        <time>2012-05-23T09:49:49Z</time>
      </trkpt>
      <trkpt lat="44.39363" lon="3.7439">
        <ele>1153.583</ele>
        <time>2012-05-23T09:50:08Z</time>
      </trkpt>
      <trkpt lat="44.39361" lon="3.74386">
        <ele>1154.196</ele>
        <time>2012-05-23T09:50:11Z</time>
      </trkpt>
      <trkpt lat="44.39355" lon="3.74369">
        <ele>1155.689</ele>
        <time>2012-05-23T09:50:24Z</time>
      </trkpt>
      <trkpt lat="44.39354" lon="3.74364">
        <ele>1155.918</ele>
        <time>2012-05-23T09:50:28Z</time>
      </trkpt>
      <trkpt lat="44.39334" lon="3.74345">
        <ele>1156.743</ele>
        <time>2012-05-23T09:50:49Z</time>
      </trkpt>
      <trkpt lat="44.39318" lon="3.74346">
        <ele>1157.939</ele>
        <time>2012-05-23T09:54:11Z</time>
      </trkpt>
      <trkpt lat="44.39315" lon="3.74345">
        <ele>1157.638</ele>
        <time>2012-05-23T09:54:21Z</time>
      </trkpt>
      <trkpt lat="44.39297" lon="3.74346">
        <ele>1156.748</ele>
        <time>2012-05-23T09:54:34Z</time>
      </trkpt>
      <trkpt lat="44.39278" lon="3.74348">
        <ele>1154.127</ele>
        <time>2012-05-23T09:54:50Z</time>
      </trkpt>
      <trkpt lat="44.39269" lon="3.74349">
        <ele>1153.385</ele>
        <time>2012-05-23T09:54:56Z</time>
      </trkpt>
      <trkpt lat="44.39248" lon="3.74352">
        <ele>1150.948</ele>
        <time>2012-05-23T09:55:10Z</time>
      </trkpt>
      <trkpt lat="44.39236" lon="3.74354">
        <ele>1148.426</ele>
        <time>2012-05-23T09:55:19Z</time>
      </trkpt>
      <trkpt lat="44.39232" lon="3.74355">
        <ele>1147.293</ele>
        <time>2012-05-23T09:55:23Z</time>
      </trkpt>
      <trkpt lat="44.39225" lon="3.74355">
        <ele>1146.064</ele>
        <time>2012-05-23T09:55:28Z</time>
      </trkpt>
      <trkpt lat="44.39205" lon="3.74335">
        <ele>1144.133</ele>
        <time>2012-05-23T09:55:45Z</time>
      </trkpt>
      <trkpt lat="44.39192" lon="3.74311">
        <ele>1145.558</ele>
        <time>2012-05-23T09:56:01Z</time>
      </trkpt>
      <trkpt lat="44.39186" lon="3.74305">
        <ele>1145.589</ele>
        <time>2012-05-23T09:56:06Z</time>
      </trkpt>
      <trkpt lat="44.39183" lon="3.74302">
        <ele>1145.622</ele>
        <time>2012-05-23T09:56:10Z</time>
      </trkpt>
      <trkpt lat="44.39174" lon="3.74299">
        <ele>1144.48</ele>
        <time>2012-05-23T09:56:19Z</time>
      </trkpt>
      <trkpt lat="44.39159" lon="3.743">
        <ele>1145.39</ele>
        <time>2012-05-23T09:56:38Z</time>
      </trkpt>
      <trkpt lat="44.39155" lon="3.743">
        <ele>1145.34</ele>
        <time>2012-05-23T09:56:42Z</time>
      </trkpt>
      <trkpt lat="44.39148" lon="3.74298">
        <ele>1145.104</ele>
        <time>2012-05-23T09:56:48Z</time>
      </trkpt>
      <trkpt lat="44.39142" lon="3.74304">
        <ele>1145.576</ele>
        <time>2012-05-23T09:56:53Z</time>
      </trkpt>
      <trkpt lat="44.39137" lon="3.74303">
        <ele>1145.279</ele>
        <time>2012-05-23T09:56:58Z</time>
      </trkpt>
      <trkpt lat="44.39125" lon="3.74319">
        <ele>1143.88</ele>
        <time>2012-05-23T09:57:09Z</time>
      </trkpt>
      <trkpt lat="44.39125" lon="3.74321">
        <ele>1143.572</ele>
        <time>2012-05-23T09:57:11Z</time>
      </trkpt>
      <trkpt lat="44.39121" lon="3.74324">
        <ele>1143.379</ele>
        <time>2012-05-23T09:57:14Z</time>
      </trkpt>
      <trkpt lat="44.39109" lon="3.74338">
        <ele>1142.726</ele>
        <time>2012-05-23T09:57:25Z</time>
      </trkpt>
      <trkpt lat="44.39107" lon="3.74341">
        <ele>1141.873</ele>
        <time>2012-05-23T09:57:27Z</time>
      </trkpt>
      <trkpt lat="44.39103" lon="3.74345">
        <ele>1141.268</ele>
        <time>2012-05-23T09:57:30Z</time>
      </trkpt>
      <trkpt lat="44.39082" lon="3.74356">
        <ele>1141.242</ele>
        <time>2012-05-23T09:57:47Z</time>
      </trkpt>
      <trkpt lat="44.39077" lon="3.74359">
        <ele>1140.28</ele>
        <time>2012-05-23T09:57:51Z</time>
      </trkpt>
      <trkpt lat="44.39055" lon="3.74368">
        <ele>1140.104</ele>
        <time>2012-05-23T09:58:08Z</time>
      </trkpt>
      <trkpt lat="44.39031" lon="3.7439">
        <ele>1141.178</ele>
        <time>2012-05-23T09:58:30Z</time>
      </trkpt>
      <trkpt lat="44.3901" lon="3.74418">
        <ele>1141.791</ele>
        <time>2012-05-23T09:58:52Z</time>
      </trkpt>
      <trkpt lat="44.38997" lon="3.7443">
        <ele>1142.679</ele>
        <time>2012-05-23T09:59:06Z</time>
      </trkpt>
      <trkpt lat="44.38987" lon="3.74441">
        <ele>1143.446</ele>
        <time>2012-05-23T09:59:22Z</time>
      </trkpt>
      <trkpt lat="44.38985" lon="3.74444">
        <ele>1143.693</ele>
        <time>2012-05-23T09:59:38Z</time>
      </trkpt>
      <trkpt lat="44.38981" lon="3.74445">
        <ele>1143.881</ele>
        <time>2012-05-23T09:59:41Z</time>
      </trkpt>
      <trkpt lat="44.38968" lon="3.74452">
        <ele>1146.111</ele>
        <time>2012-05-23T09:59:51Z</time>
      </trkpt>
      <trkpt lat="44.38965" lon="3.74454">
        <ele>1144.491</ele>
        <time>2012-05-23T09:59:53Z</time>
      </trkpt>
      <trkpt lat="44.38957" lon="3.74459">
        <ele>1143.314</ele>
        <time>2012-05-23T09:59:59Z</time>
      </trkpt>
      <trkpt lat="44.38934" lon="3.74472">
        <ele>1146.406</ele>
        <time>2012-05-23T10:00:18Z</time>
      </trkpt>
      <trkpt lat="44.38901" lon="3.74475">
        <ele>1146.203</ele>
        <time>2012-05-23T10:00:43Z</time>
      </trkpt>
      <trkpt lat="44.38878" lon="3.74473">
        <ele>1145.07</ele>
        <time>2012-05-23T10:01:02Z</time>
      </trkpt>
      <trkpt lat="44.38852" lon="3.74469">
        <ele>1142.159</ele>
        <time>2012-05-23T10:01:22Z</time>
      </trkpt>
      <trkpt lat="44.38823" lon="3.74477">
        <ele>1141.987</ele>
        <time>2012-05-23T10:01:45Z</time>
      </trkpt>
      <trkpt lat="44.3879" lon="3.74488">
        <ele>1141.201</ele>
        <time>2012-05-23T10:02:10Z</time>
      </trkpt>
      <trkpt lat="44.38769" lon="3.74492">
        <ele>1138.083</ele>
        <time>2012-05-23T10:02:26Z</time>
      </trkpt>
      <trkpt lat="44.38736" lon="3.74504">
        <ele>1135.948</ele>
        <time>2012-05-23T10:02:52Z</time>
      </trkpt>
      <trkpt lat="44.38711" lon="3.74527">
        <ele>1138.648</ele>
        <time>2012-05-23T10:03:16Z</time>
      </trkpt>
      <trkpt lat="44.387" lon="3.74536">
        <ele>1138.898</ele>
        <time>2012-05-23T10:03:26Z</time>
      </trkpt>
      <trkpt lat="44.38694" lon="3.74539">
        <ele>1136.745</ele>
        <time>2012-05-23T10:03:31Z</time>
      </trkpt>
      <trkpt lat="44.38672" lon="3.74548">
        <ele>1135.896</ele>
        <time>2012-05-23T10:03:50Z</time>
      </trkpt>
      <trkpt lat="44.38661" lon="3.74546">
        <ele>1135.657</ele>
        <time>2012-05-23T10:03:58Z</time>
      </trkpt>
      <trkpt lat="44.38629" lon="3.74534">
        <ele>1133.02</ele>
        <time>2012-05-23T10:04:24Z</time>
      </trkpt>
      <trkpt lat="44.38596" lon="3.74517">
        <ele>1131.548</ele>
        <time>2012-05-23T10:04:52Z</time>
      </trkpt>
      <trkpt lat="44.38576" lon="3.74496">
        <ele>1128.466</ele>
        <time>2012-05-23T10:05:12Z</time>
      </trkpt>
      <trkpt lat="44.38555" lon="3.74475">
        <ele>1128.884</ele>
        <time>2012-05-23T10:05:33Z</time>
      </trkpt>
      <trkpt lat="44.38527" lon="3.74465">
        <ele>1128.214</ele>
        <time>2012-05-23T10:05:56Z</time>
      </trkpt>
      <trkpt lat="44.385" lon="3.74473">
        <ele>1127.491</ele>
        <time>2012-05-23T10:06:18Z</time>
      </trkpt>
      <trkpt lat="44.38479" lon="3.74478">
        <ele>1126.671</ele>
        <time>2012-05-23T10:06:35Z</time>
      </trkpt>
      <trkpt lat="44.38452" lon="3.74481">
        <ele>1126.783</ele>
        <time>2012-05-23T10:06:56Z</time>
      </trkpt>
      <trkpt lat="44.38449" lon="3.74481">
        <ele>1129.583</ele>
        <time>2012-05-23T10:07:08Z</time>
      </trkpt>
      <trkpt lat="44.38438" lon="3.74475">
        <ele>1129.002</ele>
        <time>2012-05-23T10:07:22Z</time>
      </trkpt>
      <trkpt lat="44.38427" lon="3.74468">
        <ele>1127.529</ele>
        <time>2012-05-23T10:07:36Z</time>
      </trkpt>
      <trkpt lat="44.38404" lon="3.74458">
        <ele>1126.497</ele>
        <time>2012-05-23T10:07:56Z</time>
      </trkpt>
      <trkpt lat="44.38373" lon="3.74457">
        <ele>1123.91</ele>
        <time>2012-05-23T10:08:19Z</time>
      </trkpt>
      <trkpt lat="44.38342" lon="3.74454">
        <ele>1122.064</ele>
        <time>2012-05-23T10:08:42Z</time>
      </trkpt>
      <trkpt lat="44.38334" lon="3.74449">
        <ele>1122.02</ele>
        <time>2012-05-23T10:08:49Z</time>
      </trkpt>
      <trkpt lat="44.38333" lon="3.74446">
        <ele>1121.949</ele>
        <time>2012-05-23T10:08:51Z</time>
      </trkpt>
      <trkpt lat="44.38312" lon="3.74448">
        <ele>1121.884</ele>
        <time>2012-05-23T10:09:08Z</time>
      </trkpt>
      <trkpt lat="44.38305" lon="3.74455">
        <ele>1122.34</ele>
        <time>2012-05-23T10:09:14Z</time>
      </trkpt>
      <trkpt lat="44.383" lon="3.74458">
        <ele>1122.46</ele>
        <time>2012-05-23T10:09:18Z</time>
      </trkpt>
      <trkpt lat="44.38292" lon="3.74467">
        <ele>1122.127</ele>
        <time>2012-05-23T10:09:25Z</time>
      </trkpt>
      <trkpt lat="44.38284" lon="3.74485">
        <ele>1121.099</ele>
        <time>2012-05-23T10:09:36Z</time>
      </trkpt>
      <trkpt lat="44.3828" lon="3.74489">
        <ele>1123.049</ele>
        <time>2012-05-23T10:09:40Z</time>
      </trkpt>
      <trkpt lat="44.38254" lon="3.74499">
        <ele>1122.153</ele>
        <time>2012-05-23T10:10:00Z</time>
      </trkpt>
      <trkpt lat="44.38242" lon="3.74509">
        <ele>1125.181</ele>
        <time>2012-05-23T10:10:11Z</time>
      </trkpt>
      <trkpt lat="44.38238" lon="3.74513">
        <ele>1123.923</ele>
        <time>2012-05-23T10:10:15Z</time>
      </trkpt>
      <trkpt lat="44.38218" lon="3.74519">
        <ele>1121.374</ele>
        <time>2012-05-23T10:10:32Z</time>
      </trkpt>
      <trkpt lat="44.38206" lon="3.74514">
        <ele>1120.737</ele>
        <time>2012-05-23T10:10:49Z</time>
      </trkpt>
      <trkpt lat="44.382" lon="3.74512">
        <ele>1120.839</ele>
        <time>2012-05-23T10:10:53Z</time>
      </trkpt>
      <trkpt lat="44.38175" lon="3.74502">
        <ele>1119.91</ele>
        <time>2012-05-23T10:11:14Z</time>
      </trkpt>
      <trkpt lat="44.3817" lon="3.74499">
        <ele>1119.041</ele>
        <time>2012-05-23T10:11:18Z</time>
      </trkpt>
      <trkpt lat="44.38143" lon="3.74488">
        <ele>1117.051</ele>
        <time>2012-05-23T10:12:02Z</time>
      </trkpt>
      <trkpt lat="44.38141" lon="3.74488">
        <ele>1117.242</ele>
        <time>2012-05-23T10:12:04Z</time>
      </trkpt>
      <trkpt lat="44.38117" lon="3.74474">
        <ele>1118.566</ele>
        <time>2012-05-23T10:12:25Z</time>
      </trkpt>
      <trkpt lat="44.38093" lon="3.7447">
        <ele>1116.439</ele>
        <time>2012-05-23T10:12:44Z</time>
      </trkpt>
      <trkpt lat="44.38089" lon="3.74467">
        <ele>1115.056</ele>
        <time>2012-05-23T10:12:48Z</time>
      </trkpt>
      <trkpt lat="44.38084" lon="3.74464">
        <ele>1114.566</ele>
        <time>2012-05-23T10:12:52Z</time>
      </trkpt>
      <trkpt lat="44.38075" lon="3.74472">
        <ele>1112.028</ele>
        <time>2012-05-23T10:13:00Z</time>
      </trkpt>
      <trkpt lat="44.38069" lon="3.74484">
        <ele>1110.865</ele>
        <time>2012-05-23T10:13:09Z</time>
      </trkpt>
      <trkpt lat="44.38064" lon="3.74483">
        <ele>1110.667</ele>
        <time>2012-05-23T10:13:13Z</time>
      </trkpt>
      <trkpt lat="44.38059" lon="3.74474">
        <ele>1109.532</ele>
        <time>2012-05-23T10:13:21Z</time>
      </trkpt>
      <trkpt lat="44.38056" lon="3.74457">
        <ele>1107.851</ele>
        <time>2012-05-23T10:13:33Z</time>
      </trkpt>
      <trkpt lat="44.38045" lon="3.74446">
        <ele>1104.348</ele>
        <time>2012-05-23T10:13:44Z</time>
      </trkpt>
      <trkpt lat="44.38025" lon="3.74451">
        <ele>1102.4</ele>
        <time>2012-05-23T10:14:01Z</time>
      </trkpt>
      <trkpt lat="44.38019" lon="3.74451">
        <ele>1102.247</ele>
        <time>2012-05-23T10:14:05Z</time>
      </trkpt>
      <trkpt lat="44.38003" lon="3.74451">
        <ele>1101.767</ele>
        <time>2012-05-23T10:14:21Z</time>
      </trkpt>
      <trkpt lat="44.37999" lon="3.74451">
        <ele>1100.796</ele>
        <time>2012-05-23T10:14:25Z</time>
      </trkpt>
      <trkpt lat="44.37977" lon="3.74456">
        <ele>1100.265</ele>
        <time>2012-05-23T10:14:45Z</time>
      </trkpt>
      <trkpt lat="44.37966" lon="3.74447">
        <ele>1101.457</ele>
        <time>2012-05-23T10:15:03Z</time>
      </trkpt>
      <trkpt lat="44.3796" lon="3.74441">
        <ele>1102.702</ele>
        <time>2012-05-23T10:15:18Z</time>
      </trkpt>
      <trkpt lat="44.37955" lon="3.74439">
        <ele>1103.206</ele>
        <time>2012-05-23T10:15:24Z</time>
      </trkpt>
      <trkpt lat="44.37939" lon="3.74443">
        <ele>1102.867</ele>
        <time>2012-05-23T10:15:37Z</time>
      </trkpt>
      <trkpt lat="44.37917" lon="3.74445">
        <ele>1103.084</ele>
        <time>2012-05-23T10:15:57Z</time>
      </trkpt>
      <trkpt lat="44.37906" lon="3.74447">
        <ele>1105.714</ele>
        <time>2012-05-23T10:16:09Z</time>
      </trkpt>
      <trkpt lat="44.37901" lon="3.74444">
        <ele>1107.014</ele>
        <time>2012-05-23T10:16:14Z</time>
      </trkpt>
      <trkpt lat="44.37892" lon="3.74436">
        <ele>1104.811</ele>
        <time>2012-05-23T10:16:27Z</time>
      </trkpt>
      <trkpt lat="44.37889" lon="3.74433">
        <ele>1104.776</ele>
        <time>2012-05-23T10:16:30Z</time>
      </trkpt>
      <trkpt lat="44.37884" lon="3.7442">
        <ele>1103.691</ele>
        <time>2012-05-23T10:17:04Z</time>
      </trkpt>
      <trkpt lat="44.3788" lon="3.74413">
        <ele>1104.243</ele>
        <time>2012-05-23T10:17:10Z</time>
      </trkpt>
      <trkpt lat="44.37871" lon="3.74411">
        <ele>1105.779</ele>
        <time>2012-05-23T10:17:18Z</time>
      </trkpt>
      <trkpt lat="44.37869" lon="3.7441">
        <ele>1104.5</ele>
        <time>2012-05-23T10:17:20Z</time>
      </trkpt>
      <trkpt lat="44.37868" lon="3.74407">
        <ele>1106.011</ele>
        <time>2012-05-23T10:17:22Z</time>
      </trkpt>
      <trkpt lat="44.37863" lon="3.74393">
        <ele>1105.763</ele>
        <time>2012-05-23T10:17:34Z</time>
      </trkpt>
      <trkpt lat="44.37859" lon="3.7437">
        <ele>1106.534</ele>
        <time>2012-05-23T10:17:52Z</time>
      </trkpt>
      <trkpt lat="44.37859" lon="3.74367">
        <ele>1107.734</ele>
        <time>2012-05-23T10:17:54Z</time>
      </trkpt>
      <trkpt lat="44.37851" lon="3.74346">
        <ele>1111.022</ele>
        <time>2012-05-23T10:18:12Z</time>
      </trkpt>
      <trkpt lat="44.3785" lon="3.74345">
        <ele>1110.824</ele>
        <time>2012-05-23T10:18:14Z</time>
      </trkpt>
      <trkpt lat="44.37842" lon="3.7434">
        <ele>1112.281</ele>
        <time>2012-05-23T10:18:24Z</time>
      </trkpt>
      <trkpt lat="44.3784" lon="3.74323">
        <ele>1113.513</ele>
        <time>2012-05-23T10:18:36Z</time>
      </trkpt>
      <trkpt lat="44.37843" lon="3.74309">
        <ele>1114.799</ele>
        <time>2012-05-23T10:18:46Z</time>
      </trkpt>
      <trkpt lat="44.37843" lon="3.74299">
        <ele>1116.882</ele>
        <time>2012-05-23T10:18:58Z</time>
      </trkpt>
      <trkpt lat="44.37841" lon="3.743">
        <ele>1116.597</ele>
        <time>2012-05-23T10:19:01Z</time>
      </trkpt>
      <trkpt lat="44.3782" lon="3.74313">
        <ele>1114.377</ele>
        <time>2012-05-23T10:19:21Z</time>
      </trkpt>
      <trkpt lat="44.37805" lon="3.74314">
        <ele>1111.986</ele>
        <time>2012-05-23T10:19:33Z</time>
      </trkpt>
      <trkpt lat="44.37779" lon="3.74328">
        <ele>1112.664</ele>
        <time>2012-05-23T10:19:55Z</time>
      </trkpt>
      <trkpt lat="44.37767" lon="3.74341">
        <ele>1112.581</ele>
        <time>2012-05-23T10:20:07Z</time>
      </trkpt>
      <trkpt lat="44.37763" lon="3.74347">
        <ele>1111.036</ele>
        <time>2012-05-23T10:20:11Z</time>
      </trkpt>
      <trkpt lat="44.37746" lon="3.74372">
        <ele>1111.476</ele>
        <time>2012-05-23T10:20:31Z</time>
      </trkpt>
      <trkpt lat="44.37745" lon="3.74382">
        <ele>1111.27</ele>
        <time>2012-05-23T10:20:45Z</time>
      </trkpt>
      <trkpt lat="44.37727" lon="3.74373">
        <ele>1110.227</ele>
        <time>2012-05-23T10:21:00Z</time>
      </trkpt>
      <trkpt lat="44.37705" lon="3.74365">
        <ele>1109.65</ele>
        <time>2012-05-23T10:21:20Z</time>
      </trkpt>
      <trkpt lat="44.37663" lon="3.74361">
        <ele>1107.662</ele>
        <time>2012-05-23T10:21:54Z</time>
      </trkpt>
      <trkpt lat="44.37639" lon="3.74361">
        <ele>1107.303</ele>
        <time>2012-05-23T10:22:13Z</time>
      </trkpt>
      <trkpt lat="44.37628" lon="3.74361">
        <ele>1106.013</ele>
        <time>2012-05-23T10:22:29Z</time>
      </trkpt>
      <trkpt lat="44.37627" lon="3.74361">
        <ele>1105.436</ele>
        <time>2012-05-23T10:22:51Z</time>
      </trkpt>
      <trkpt lat="44.3762" lon="3.74359">
        <ele>1104.566</ele>
        <time>2012-05-23T10:24:26Z</time>
      </trkpt>
      <trkpt lat="44.37618" lon="3.74359">
        <ele>1103.513</ele>
        <time>2012-05-23T10:24:29Z</time>
      </trkpt>
      <trkpt lat="44.37614" lon="3.74349">
        <ele>1103.483</ele>
        <time>2012-05-23T10:24:38Z</time>
      </trkpt>
      <trkpt lat="44.37609" lon="3.74332">
        <ele>1100.802</ele>
        <time>2012-05-23T10:24:55Z</time>
      </trkpt>
      <trkpt lat="44.37607" lon="3.74331">
        <ele>1100.176</ele>
        <time>2012-05-23T10:24:58Z</time>
      </trkpt>
      <trkpt lat="44.37599" lon="3.74317">
        <ele>1098.399</ele>
        <time>2012-05-23T10:25:13Z</time>
      </trkpt>
      <trkpt lat="44.37597" lon="3.74314">
        <ele>1097.061</ele>
        <time>2012-05-23T10:25:16Z</time>
      </trkpt>
      <trkpt lat="44.37591" lon="3.74296">
        <ele>1095.153</ele>
        <time>2012-05-23T10:25:30Z</time>
      </trkpt>
      <trkpt lat="44.37586" lon="3.74283">
        <ele>1093.603</ele>
        <time>2012-05-23T10:25:42Z</time>
      </trkpt>
      <trkpt lat="44.37581" lon="3.74276">
        <ele>1092.283</ele>
        <time>2012-05-23T10:25:49Z</time>
      </trkpt>
      <trkpt lat="44.37579" lon="3.74278">
        <ele>1089.909</ele>
        <time>2012-05-23T10:25:55Z</time>
      </trkpt>
      <trkpt lat="44.37579" lon="3.74273">
        <ele>1089.908</ele>
        <time>2012-05-23T10:25:58Z</time>
      </trkpt>
      <trkpt lat="44.37573" lon="3.74256">
        <ele>1088.972</ele>
        <time>2012-05-23T10:26:11Z</time>
      </trkpt>
      <trkpt lat="44.3757" lon="3.74254">
        <ele>1087.72</ele>
        <time>2012-05-23T10:26:14Z</time>
      </trkpt>
      <trkpt lat="44.37566" lon="3.74255">
        <ele>1087.176</ele>
        <time>2012-05-23T10:26:20Z</time>
      </trkpt>
      <trkpt lat="44.37563" lon="3.74255">
        <ele>1086.765</ele>
        <time>2012-05-23T10:26:23Z</time>
      </trkpt>
      <trkpt lat="44.37555" lon="3.7427">
        <ele>1087.738</ele>
        <time>2012-05-23T10:26:37Z</time>
      </trkpt>
      <trkpt lat="44.37553" lon="3.74273">
        <ele>1087.745</ele>
        <time>2012-05-23T10:26:39Z</time>
      </trkpt>
      <trkpt lat="44.37549" lon="3.74281">
        <ele>1088.292</ele>
        <time>2012-05-23T10:26:46Z</time>
      </trkpt>
      <trkpt lat="44.37539" lon="3.74283">
        <ele>1089.826</ele>
        <time>2012-05-23T10:26:55Z</time>
      </trkpt>
      <trkpt lat="44.37529" lon="3.74286">
        <ele>1091.016</ele>
        <time>2012-05-23T10:27:08Z</time>
      </trkpt>
      <trkpt lat="44.37519" lon="3.74288">
        <ele>1092.004</ele>
        <time>2012-05-23T10:27:19Z</time>
      </trkpt>
      <trkpt lat="44.37497" lon="3.74306">
        <ele>1090.081</ele>
        <time>2012-05-23T10:27:40Z</time>
      </trkpt>
      <trkpt lat="44.37473" lon="3.74324">
        <ele>1088.815</ele>
        <time>2012-05-23T10:28:02Z</time>
      </trkpt>
      <trkpt lat="44.37448" lon="3.74346">
        <ele>1089.086</ele>
        <time>2012-05-23T10:28:27Z</time>
      </trkpt>
      <trkpt lat="44.37436" lon="3.74365">
        <ele>1089.841</ele>
        <time>2012-05-23T10:28:48Z</time>
      </trkpt>
      <trkpt lat="44.37432" lon="3.74364">
        <ele>1089.688</ele>
        <time>2012-05-23T10:29:21Z</time>
      </trkpt>
      <trkpt lat="44.37432" lon="3.74368">
        <ele>1090.592</ele>
        <time>2012-05-23T10:29:42Z</time>
      </trkpt>
      <trkpt lat="44.37431" lon="3.74374">
        <ele>1089.776</ele>
        <time>2012-05-23T10:29:46Z</time>
      </trkpt>
      <trkpt lat="44.37431" lon="3.74379">
        <ele>1088.5</ele>
        <time>2012-05-23T10:29:49Z</time>
      </trkpt>
      <trkpt lat="44.3743" lon="3.74386">
        <ele>1089.912</ele>
        <time>2012-05-23T10:29:53Z</time>
      </trkpt>
      <trkpt lat="44.37429" lon="3.7439">
        <ele>1089.043</ele>
        <time>2012-05-23T10:29:57Z</time>
      </trkpt>
      <trkpt lat="44.37416" lon="3.74416">
        <ele>1087.528</ele>
        <time>2012-05-23T10:30:16Z</time>
      </trkpt>
      <trkpt lat="44.37404" lon="3.74441">
        <ele>1087.444</ele>
        <time>2012-05-23T10:30:34Z</time>
      </trkpt>
      <trkpt lat="44.374" lon="3.74448">
        <ele>1088.932</ele>
        <time>2012-05-23T10:30:50Z</time>
      </trkpt>
      <trkpt lat="44.37393" lon="3.74464">
        <ele>1086.799</ele>
        <time>2012-05-23T10:31:02Z</time>
      </trkpt>
      <trkpt lat="44.37378" lon="3.74488">
        <ele>1086.172</ele>
        <time>2012-05-23T10:31:20Z</time>
      </trkpt>
      <trkpt lat="44.37355" lon="3.7451">
        <ele>1086.105</ele>
        <time>2012-05-23T10:31:42Z</time>
      </trkpt>
      <trkpt lat="44.37334" lon="3.74522">
        <ele>1087.794</ele>
        <time>2012-05-23T10:32:00Z</time>
      </trkpt>
      <trkpt lat="44.37329" lon="3.74524">
        <ele>1086.115</ele>
        <time>2012-05-23T10:32:04Z</time>
      </trkpt>
      <trkpt lat="44.37319" lon="3.74529">
        <ele>1082.704</ele>
        <time>2012-05-23T10:32:13Z</time>
      </trkpt>
      <trkpt lat="44.37302" lon="3.74529">
        <ele>1080.154</ele>
        <time>2012-05-23T10:32:28Z</time>
      </trkpt>
      <trkpt lat="44.37296" lon="3.74527">
        <ele>1079.931</ele>
        <time>2012-05-23T10:33:05Z</time>
      </trkpt>
      <trkpt lat="44.37289" lon="3.7452">
        <ele>1078.361</ele>
        <time>2012-05-23T10:33:22Z</time>
      </trkpt>
      <trkpt lat="44.37285" lon="3.74511">
        <ele>1078.452</ele>
        <time>2012-05-23T10:33:36Z</time>
      </trkpt>
      <trkpt lat="44.37283" lon="3.74507">
        <ele>1078.019</ele>
        <time>2012-05-23T10:33:45Z</time>
      </trkpt>
      <trkpt lat="44.37279" lon="3.74514">
        <ele>1075.713</ele>
        <time>2012-05-23T11:13:17Z</time>
      </trkpt>
      <trkpt lat="44.37277" lon="3.74513">
        <ele>1074.72</ele>
        <time>2012-05-23T11:13:27Z</time>
      </trkpt>
      <trkpt lat="44.37274" lon="3.74513">
        <ele>1073.852</ele>
        <time>2012-05-23T11:13:31Z</time>
      </trkpt>
      <trkpt lat="44.37269" lon="3.74516">
        <ele>1072.403</ele>
        <time>2012-05-23T11:13:37Z</time>
      </trkpt>
      <trkpt lat="44.37264" lon="3.74515">
        <ele>1071.647</ele>
        <time>2012-05-23T11:13:42Z</time>
      </trkpt>
      <trkpt lat="44.37258" lon="3.74517">
        <ele>1069.692</ele>
        <time>2012-05-23T11:13:48Z</time>
      </trkpt>
      <trkpt lat="44.37252" lon="3.74523">
        <ele>1068.92</ele>
        <time>2012-05-23T11:13:54Z</time>
      </trkpt>
      <trkpt lat="44.3725" lon="3.7453">
        <ele>1068.501</ele>
        <time>2012-05-23T11:14:00Z</time>
      </trkpt>
      <trkpt lat="44.37249" lon="3.74532">
        <ele>1068.297</ele>
        <time>2012-05-23T11:14:02Z</time>
      </trkpt>
      <trkpt lat="44.37247" lon="3.74537">
        <ele>1067.849</ele>
        <time>2012-05-23T11:14:05Z</time>
      </trkpt>
      <trkpt lat="44.37245" lon="3.7454">
        <ele>1067.034</ele>
        <time>2012-05-23T11:14:08Z</time>
      </trkpt>
      <trkpt lat="44.37234" lon="3.74563">
        <ele>1064.106</ele>
        <time>2012-05-23T11:14:25Z</time>
      </trkpt>
      <trkpt lat="44.37213" lon="3.74585">
        <ele>1060.598</ele>
        <time>2012-05-23T11:14:46Z</time>
      </trkpt>
      <trkpt lat="44.37198" lon="3.74598">
        <ele>1059.04</ele>
        <time>2012-05-23T11:15:01Z</time>
      </trkpt>
      <trkpt lat="44.37195" lon="3.746">
        <ele>1058.196</ele>
        <time>2012-05-23T11:15:04Z</time>
      </trkpt>
      <trkpt lat="44.37188" lon="3.74611">
        <ele>1057.454</ele>
        <time>2012-05-23T11:15:14Z</time>
      </trkpt>
      <trkpt lat="44.37188" lon="3.74614">
        <ele>1057.386</ele>
        <time>2012-05-23T11:15:17Z</time>
      </trkpt>
      <trkpt lat="44.37177" lon="3.74614">
        <ele>1054.704</ele>
        <time>2012-05-23T11:15:28Z</time>
      </trkpt>
      <trkpt lat="44.37175" lon="3.74614">
        <ele>1053.578</ele>
        <time>2012-05-23T11:15:30Z</time>
      </trkpt>
      <trkpt lat="44.37161" lon="3.74607">
        <ele>1050.608</ele>
        <time>2012-05-23T11:15:43Z</time>
      </trkpt>
      <trkpt lat="44.37148" lon="3.746">
        <ele>1047.57</ele>
        <time>2012-05-23T11:15:57Z</time>
      </trkpt>
      <trkpt lat="44.37139" lon="3.74606">
        <ele>1045.603</ele>
        <time>2012-05-23T11:16:54Z</time>
      </trkpt>
      <trkpt lat="44.37139" lon="3.7461">
        <ele>1044.919</ele>
        <time>2012-05-23T11:16:57Z</time>
      </trkpt>
      <trkpt lat="44.37135" lon="3.74621">
        <ele>1043.163</ele>
        <time>2012-05-23T11:17:08Z</time>
      </trkpt>
      <trkpt lat="44.3713" lon="3.74621">
        <ele>1042.193</ele>
        <time>2012-05-23T11:17:12Z</time>
      </trkpt>
      <trkpt lat="44.37128" lon="3.74619">
        <ele>1041.435</ele>
        <time>2012-05-23T11:17:14Z</time>
      </trkpt>
      <trkpt lat="44.37123" lon="3.74606">
        <ele>1039.121</ele>
        <time>2012-05-23T11:17:29Z</time>
      </trkpt>
      <trkpt lat="44.37118" lon="3.74607">
        <ele>1037.952</ele>
        <time>2012-05-23T11:17:38Z</time>
      </trkpt>
      <trkpt lat="44.37109" lon="3.74613">
        <ele>1037.612</ele>
        <time>2012-05-23T11:17:47Z</time>
      </trkpt>
      <trkpt lat="44.37098" lon="3.74617">
        <ele>1034.315</ele>
        <time>2012-05-23T11:17:56Z</time>
      </trkpt>
      <trkpt lat="44.37089" lon="3.74618">
        <ele>1034.619</ele>
        <time>2012-05-23T11:18:03Z</time>
      </trkpt>
      <trkpt lat="44.37086" lon="3.7461">
        <ele>1034.326</ele>
        <time>2012-05-23T11:18:18Z</time>
      </trkpt>
      <trkpt lat="44.37088" lon="3.74605">
        <ele>1032.697</ele>
        <time>2012-05-23T11:18:26Z</time>
      </trkpt>
      <trkpt lat="44.37098" lon="3.74584">
        <ele>1031.003</ele>
        <time>2012-05-23T11:18:48Z</time>
      </trkpt>
      <trkpt lat="44.37098" lon="3.74579">
        <ele>1030.664</ele>
        <time>2012-05-23T11:18:53Z</time>
      </trkpt>
      <trkpt lat="44.37104" lon="3.74555">
        <ele>1028.39</ele>
        <time>2012-05-23T11:19:12Z</time>
      </trkpt>
      <trkpt lat="44.37105" lon="3.74552">
        <ele>1027.327</ele>
        <time>2012-05-23T11:19:14Z</time>
      </trkpt>
      <trkpt lat="44.37107" lon="3.74545">
        <ele>1026.672</ele>
        <time>2012-05-23T11:19:20Z</time>
      </trkpt>
      <trkpt lat="44.3711" lon="3.74529">
        <ele>1023.629</ele>
        <time>2012-05-23T11:19:33Z</time>
      </trkpt>
      <trkpt lat="44.3711" lon="3.74506">
        <ele>1020.425</ele>
        <time>2012-05-23T11:19:52Z</time>
      </trkpt>
      <trkpt lat="44.371" lon="3.74504">
        <ele>1019.188</ele>
        <time>2012-05-23T11:20:06Z</time>
      </trkpt>
      <trkpt lat="44.37097" lon="3.74503">
        <ele>1018.4</ele>
        <time>2012-05-23T11:20:09Z</time>
      </trkpt>
      <trkpt lat="44.3708" lon="3.74502">
        <ele>1015.46</ele>
        <time>2012-05-23T11:20:25Z</time>
      </trkpt>
      <trkpt lat="44.37072" lon="3.74503">
        <ele>1013.828</ele>
        <time>2012-05-23T11:20:36Z</time>
      </trkpt>
      <trkpt lat="44.37052" lon="3.74504">
        <ele>1010.778</ele>
        <time>2012-05-23T11:20:57Z</time>
      </trkpt>
      <trkpt lat="44.37046" lon="3.74502">
        <ele>1010.428</ele>
        <time>2012-05-23T11:21:03Z</time>
      </trkpt>
      <trkpt lat="44.37022" lon="3.74491">
        <ele>1007.31</ele>
        <time>2012-05-23T11:21:24Z</time>
      </trkpt>
      <trkpt lat="44.37015" lon="3.74485">
        <ele>1006.641</ele>
        <time>2012-05-23T11:21:32Z</time>
      </trkpt>
      <trkpt lat="44.37013" lon="3.74486">
        <ele>1005.83</ele>
        <time>2012-05-23T11:21:36Z</time>
      </trkpt>
      <trkpt lat="44.37007" lon="3.74502">
        <ele>1002.064</ele>
        <time>2012-05-23T11:21:50Z</time>
      </trkpt>
      <trkpt lat="44.36996" lon="3.74499">
        <ele>999.971</ele>
        <time>2012-05-23T11:22:00Z</time>
      </trkpt>
      <trkpt lat="44.36981" lon="3.74497">
        <ele>996.682</ele>
        <time>2012-05-23T11:22:15Z</time>
      </trkpt>
      <trkpt lat="44.36963" lon="3.74495">
        <ele>993.623</ele>
        <time>2012-05-23T11:22:30Z</time>
      </trkpt>
      <trkpt lat="44.36948" lon="3.74488">
        <ele>990.577</ele>
        <time>2012-05-23T11:22:44Z</time>
      </trkpt>
      <trkpt lat="44.3694" lon="3.74486">
        <ele>989.403</ele>
        <time>2012-05-23T11:22:52Z</time>
      </trkpt>
      <trkpt lat="44.36927" lon="3.74487">
        <ele>986.637</ele>
        <time>2012-05-23T11:23:08Z</time>
      </trkpt>
      <trkpt lat="44.36915" lon="3.74479">
        <ele>983.167</ele>
        <time>2012-05-23T11:23:24Z</time>
      </trkpt>
      <trkpt lat="44.36902" lon="3.74464">
        <ele>979.847</ele>
        <time>2012-05-23T11:23:44Z</time>
      </trkpt>
      <trkpt lat="44.36899" lon="3.74461">
        <ele>979.25</ele>
        <time>2012-05-23T11:23:48Z</time>
      </trkpt>
      <trkpt lat="44.3688" lon="3.74452">
        <ele>976.198</ele>
        <time>2012-05-23T11:24:07Z</time>
      </trkpt>
      <trkpt lat="44.36869" lon="3.7445">
        <ele>973.744</ele>
        <time>2012-05-23T11:24:21Z</time>
      </trkpt>
      <trkpt lat="44.36849" lon="3.74443">
        <ele>970.801</ele>
        <time>2012-05-23T11:24:39Z</time>
      </trkpt>
      <trkpt lat="44.36832" lon="3.74442">
        <ele>966.814</ele>
        <time>2012-05-23T11:24:55Z</time>
      </trkpt>
      <trkpt lat="44.36815" lon="3.7444">
        <ele>964.744</ele>
        <time>2012-05-23T11:25:12Z</time>
      </trkpt>
      <trkpt lat="44.36796" lon="3.74425">
        <ele>962.627</ele>
        <time>2012-05-23T11:25:31Z</time>
      </trkpt>
      <trkpt lat="44.36782" lon="3.74394">
        <ele>965.254</ele>
        <time>2012-05-23T11:25:52Z</time>
      </trkpt>
      <trkpt lat="44.36764" lon="3.74372">
        <ele>965.489</ele>
        <time>2012-05-23T11:26:11Z</time>
      </trkpt>
      <trkpt lat="44.36739" lon="3.74375">
        <ele>963.395</ele>
        <time>2012-05-23T11:26:31Z</time>
      </trkpt>
      <trkpt lat="44.36719" lon="3.74382">
        <ele>960.288</ele>
        <time>2012-05-23T11:26:47Z</time>
      </trkpt>
      <trkpt lat="44.36694" lon="3.74379">
        <ele>957.054</ele>
        <time>2012-05-23T11:27:06Z</time>
      </trkpt>
      <trkpt lat="44.36669" lon="3.74382">
        <ele>954.995</ele>
        <time>2012-05-23T11:27:26Z</time>
      </trkpt>
      <trkpt lat="44.36642" lon="3.74384">
        <ele>952.788</ele>
        <time>2012-05-23T11:27:47Z</time>
      </trkpt>
      <trkpt lat="44.36633" lon="3.74378">
        <ele>949.224</ele>
        <time>2012-05-23T11:27:55Z</time>
      </trkpt>
      <trkpt lat="44.36631" lon="3.74378">
        <ele>949.221</ele>
        <time>2012-05-23T11:27:56Z</time>
      </trkpt>
      <trkpt lat="44.36625" lon="3.74377">
        <ele>946.431</ele>
        <time>2012-05-23T11:28:01Z</time>
      </trkpt>
      <trkpt lat="44.36618" lon="3.7438">
        <ele>944.308</ele>
        <time>2012-05-23T11:28:06Z</time>
      </trkpt>
      <trkpt lat="44.36611" lon="3.74383">
        <ele>941.02</ele>
        <time>2012-05-23T11:28:12Z</time>
      </trkpt>
      <trkpt lat="44.3661" lon="3.74384">
        <ele>941.019</ele>
        <time>2012-05-23T11:28:13Z</time>
      </trkpt>
      <trkpt lat="44.36604" lon="3.74385">
        <ele>940.099</ele>
        <time>2012-05-23T11:28:17Z</time>
      </trkpt>
      <trkpt lat="44.36594" lon="3.74388">
        <ele>938.961</ele>
        <time>2012-05-23T11:28:33Z</time>
      </trkpt>
      <trkpt lat="44.36585" lon="3.7439">
        <ele>937.345</ele>
        <time>2012-05-23T11:28:49Z</time>
      </trkpt>
      <trkpt lat="44.36568" lon="3.7438">
        <ele>934.282</ele>
        <time>2012-05-23T11:29:06Z</time>
      </trkpt>
      <trkpt lat="44.36563" lon="3.74375">
        <ele>933.244</ele>
        <time>2012-05-23T11:29:11Z</time>
      </trkpt>
      <trkpt lat="44.36558" lon="3.74376">
        <ele>932.651</ele>
        <time>2012-05-23T11:29:16Z</time>
      </trkpt>
      <trkpt lat="44.36562" lon="3.74385">
        <ele>930.969</ele>
        <time>2012-05-23T11:29:22Z</time>
      </trkpt>
      <trkpt lat="44.36579" lon="3.74411">
        <ele>926.961</ele>
        <time>2012-05-23T11:29:42Z</time>
      </trkpt>
      <trkpt lat="44.36602" lon="3.74431">
        <ele>924.561</ele>
        <time>2012-05-23T11:30:04Z</time>
      </trkpt>
      <trkpt lat="44.36603" lon="3.74434">
        <ele>923.926</ele>
        <time>2012-05-23T11:30:06Z</time>
      </trkpt>
      <trkpt lat="44.36595" lon="3.74438">
        <ele>921.829</ele>
        <time>2012-05-23T11:30:14Z</time>
      </trkpt>
      <trkpt lat="44.36583" lon="3.74436">
        <ele>918.579</ele>
        <time>2012-05-23T11:30:27Z</time>
      </trkpt>
      <trkpt lat="44.36566" lon="3.74434">
        <ele>915.422</ele>
        <time>2012-05-23T11:30:41Z</time>
      </trkpt>
      <trkpt lat="44.36551" lon="3.74427">
        <ele>911.97</ele>
        <time>2012-05-23T11:30:54Z</time>
      </trkpt>
      <trkpt lat="44.36533" lon="3.74418">
        <ele>908.852</ele>
        <time>2012-05-23T11:31:09Z</time>
      </trkpt>
      <trkpt lat="44.36509" lon="3.74408">
        <ele>906.958</ele>
        <time>2012-05-23T11:31:29Z</time>
      </trkpt>
      <trkpt lat="44.36492" lon="3.74408">
        <ele>906.524</ele>
        <time>2012-05-23T11:31:44Z</time>
      </trkpt>
      <trkpt lat="44.36478" lon="3.74408">
        <ele>903.083</ele>
        <time>2012-05-23T11:31:59Z</time>
      </trkpt>
      <trkpt lat="44.36469" lon="3.74409">
        <ele>901.043</ele>
        <time>2012-05-23T11:32:14Z</time>
      </trkpt>
      <trkpt lat="44.36471" lon="3.74409">
        <ele>901.638</ele>
        <time>2012-05-23T11:32:31Z</time>
      </trkpt>
      <trkpt lat="44.36462" lon="3.74409">
        <ele>899.292</ele>
        <time>2012-05-23T11:32:42Z</time>
      </trkpt>
      <trkpt lat="44.3645" lon="3.74393">
        <ele>896.284</ele>
        <time>2012-05-23T11:32:59Z</time>
      </trkpt>
      <trkpt lat="44.36437" lon="3.74374">
        <ele>893.031</ele>
        <time>2012-05-23T11:33:16Z</time>
      </trkpt>
      <trkpt lat="44.36432" lon="3.7437">
        <ele>892.276</ele>
        <time>2012-05-23T11:33:21Z</time>
      </trkpt>
      <trkpt lat="44.36422" lon="3.74378">
        <ele>889.184</ele>
        <time>2012-05-23T11:33:32Z</time>
      </trkpt>
      <trkpt lat="44.3642" lon="3.74382">
        <ele>888.225</ele>
        <time>2012-05-23T11:33:36Z</time>
      </trkpt>
      <trkpt lat="44.36403" lon="3.74386">
        <ele>885.314</ele>
        <time>2012-05-23T11:33:50Z</time>
      </trkpt>
      <trkpt lat="44.36396" lon="3.74383">
        <ele>883.291</ele>
        <time>2012-05-23T11:33:56Z</time>
      </trkpt>
      <trkpt lat="44.3639" lon="3.74385">
        <ele>882.52</ele>
        <time>2012-05-23T11:34:10Z</time>
      </trkpt>
      <trkpt lat="44.36384" lon="3.7436">
        <ele>881.4</ele>
        <time>2012-05-23T11:34:26Z</time>
      </trkpt>
      <trkpt lat="44.36379" lon="3.74335">
        <ele>878.291</ele>
        <time>2012-05-23T11:34:41Z</time>
      </trkpt>
      <trkpt lat="44.36375" lon="3.74336">
        <ele>877.082</ele>
        <time>2012-05-23T11:34:45Z</time>
      </trkpt>
      <trkpt lat="44.36368" lon="3.7434">
        <ele>876.829</ele>
        <time>2012-05-23T11:34:51Z</time>
      </trkpt>
      <trkpt lat="44.3636" lon="3.74346">
        <ele>876.647</ele>
        <time>2012-05-23T11:35:01Z</time>
      </trkpt>
      <trkpt lat="44.36359" lon="3.74346">
        <ele>876.655</ele>
        <time>2012-05-23T11:35:03Z</time>
      </trkpt>
      <trkpt lat="44.36355" lon="3.74353">
        <ele>877.033</ele>
        <time>2012-05-23T11:35:17Z</time>
      </trkpt>
      <trkpt lat="44.36353" lon="3.74352">
        <ele>877.293</ele>
        <time>2012-05-23T11:35:46Z</time>
      </trkpt>
      <trkpt lat="44.36351" lon="3.74352">
        <ele>877.279</ele>
        <time>2012-05-23T11:36:07Z</time>
      </trkpt>
      <trkpt lat="44.36339" lon="3.74358">
        <ele>876.357</ele>
        <time>2012-05-23T11:36:16Z</time>
      </trkpt>
      <trkpt lat="44.36326" lon="3.74358">
        <ele>876.597</ele>
        <time>2012-05-23T11:36:32Z</time>
      </trkpt>
      <trkpt lat="44.36322" lon="3.74355">
        <ele>876.826</ele>
        <time>2012-05-23T11:36:36Z</time>
      </trkpt>
      <trkpt lat="44.36312" lon="3.74352">
        <ele>876.733</ele>
        <time>2012-05-23T11:36:57Z</time>
      </trkpt>
      <trkpt lat="44.363" lon="3.74351">
        <ele>875.534</ele>
        <time>2012-05-23T11:37:12Z</time>
      </trkpt>
      <trkpt lat="44.36287" lon="3.74347">
        <ele>873.971</ele>
        <time>2012-05-23T11:37:24Z</time>
      </trkpt>
      <trkpt lat="44.36284" lon="3.74352">
        <ele>874.24</ele>
        <time>2012-05-23T11:37:28Z</time>
      </trkpt>
      <trkpt lat="44.36279" lon="3.74364">
        <ele>874.677</ele>
        <time>2012-05-23T11:37:41Z</time>
      </trkpt>
      <trkpt lat="44.36275" lon="3.74362">
        <ele>874.476</ele>
        <time>2012-05-23T11:38:42Z</time>
      </trkpt>
      <trkpt lat="44.36268" lon="3.74346">
        <ele>877.06</ele>
        <time>2012-05-23T11:39:26Z</time>
      </trkpt>
      <trkpt lat="44.36261" lon="3.74338">
        <ele>880.187</ele>
        <time>2012-05-23T11:39:40Z</time>
      </trkpt>
      <trkpt lat="44.36254" lon="3.74336">
        <ele>880.598</ele>
        <time>2012-05-23T11:39:55Z</time>
      </trkpt>
      <trkpt lat="44.36247" lon="3.74343">
        <ele>882.161</ele>
        <time>2012-05-23T11:40:07Z</time>
      </trkpt>
      <trkpt lat="44.36239" lon="3.74349">
        <ele>884.073</ele>
        <time>2012-05-23T11:40:32Z</time>
      </trkpt>
      <trkpt lat="44.36228" lon="3.74347">
        <ele>886.565</ele>
        <time>2012-05-23T11:40:49Z</time>
      </trkpt>
      <trkpt lat="44.3623" lon="3.74342">
        <ele>887.53</ele>
        <time>2012-05-23T11:40:54Z</time>
      </trkpt>
      <trkpt lat="44.36236" lon="3.74326">
        <ele>888.511</ele>
        <time>2012-05-23T11:41:09Z</time>
      </trkpt>
      <trkpt lat="44.36235" lon="3.74321">
        <ele>889.142</ele>
        <time>2012-05-23T11:41:17Z</time>
      </trkpt>
      <trkpt lat="44.3624" lon="3.74306">
        <ele>889.816</ele>
        <time>2012-05-23T11:41:32Z</time>
      </trkpt>
      <trkpt lat="44.36244" lon="3.74297">
        <ele>890.269</ele>
        <time>2012-05-23T11:41:44Z</time>
      </trkpt>
      <trkpt lat="44.36244" lon="3.74295">
        <ele>890.339</ele>
        <time>2012-05-23T11:42:02Z</time>
      </trkpt>
      <trkpt lat="44.36245" lon="3.7428">
        <ele>893.485</ele>
        <time>2012-05-23T11:42:18Z</time>
      </trkpt>
      <trkpt lat="44.3624" lon="3.74278">
        <ele>895.225</ele>
        <time>2012-05-23T11:42:49Z</time>
      </trkpt>
      <trkpt lat="44.36232" lon="3.74292">
        <ele>897.085</ele>
        <time>2012-05-23T11:43:04Z</time>
      </trkpt>
      <trkpt lat="44.36223" lon="3.74301">
        <ele>899.424</ele>
        <time>2012-05-23T11:43:19Z</time>
      </trkpt>
      <trkpt lat="44.36206" lon="3.74316">
        <ele>901.692</ele>
        <time>2012-05-23T11:43:38Z</time>
      </trkpt>
      <trkpt lat="44.36205" lon="3.74317">
        <ele>901.739</ele>
        <time>2012-05-23T11:43:40Z</time>
      </trkpt>
      <trkpt lat="44.36202" lon="3.74324">
        <ele>901.81</ele>
        <time>2012-05-23T11:43:47Z</time>
      </trkpt>
      <trkpt lat="44.36199" lon="3.74329">
        <ele>902.522</ele>
        <time>2012-05-23T11:43:51Z</time>
      </trkpt>
      <trkpt lat="44.36196" lon="3.74336">
        <ele>902.836</ele>
        <time>2012-05-23T11:43:57Z</time>
      </trkpt>
      <trkpt lat="44.36189" lon="3.74347">
        <ele>904.055</ele>
        <time>2012-05-23T11:44:12Z</time>
      </trkpt>
      <trkpt lat="44.36181" lon="3.74356">
        <ele>905.214</ele>
        <time>2012-05-23T11:44:22Z</time>
      </trkpt>
      <trkpt lat="44.36172" lon="3.74367">
        <ele>906.773</ele>
        <time>2012-05-23T11:44:34Z</time>
      </trkpt>
      <trkpt lat="44.36169" lon="3.74367">
        <ele>907.039</ele>
        <time>2012-05-23T11:44:48Z</time>
      </trkpt>
      <trkpt lat="44.36164" lon="3.7437">
        <ele>908.48</ele>
        <time>2012-05-23T11:45:48Z</time>
      </trkpt>
      <trkpt lat="44.36153" lon="3.74371">
        <ele>910.83</ele>
        <time>2012-05-23T11:46:03Z</time>
      </trkpt>
      <trkpt lat="44.36142" lon="3.74378">
        <ele>912.923</ele>
        <time>2012-05-23T11:46:17Z</time>
      </trkpt>
      <trkpt lat="44.36135" lon="3.7438">
        <ele>914.214</ele>
        <time>2012-05-23T11:46:26Z</time>
      </trkpt>
      <trkpt lat="44.36119" lon="3.74379">
        <ele>916.915</ele>
        <time>2012-05-23T11:46:46Z</time>
      </trkpt>
      <trkpt lat="44.36108" lon="3.74381">
        <ele>918.579</ele>
        <time>2012-05-23T11:47:04Z</time>
      </trkpt>
      <trkpt lat="44.36099" lon="3.74381">
        <ele>920.826</ele>
        <time>2012-05-23T11:47:19Z</time>
      </trkpt>
      <trkpt lat="44.3609" lon="3.74382">
        <ele>922.211</ele>
        <time>2012-05-23T11:47:33Z</time>
      </trkpt>
      <trkpt lat="44.36086" lon="3.74383">
        <ele>921.488</ele>
        <time>2012-05-23T11:48:47Z</time>
      </trkpt>
      <trkpt lat="44.36075" lon="3.74375">
        <ele>921.916</ele>
        <time>2012-05-23T11:48:58Z</time>
      </trkpt>
      <trkpt lat="44.3607" lon="3.74364">
        <ele>922.772</ele>
        <time>2012-05-23T11:49:10Z</time>
      </trkpt>
      <trkpt lat="44.36082" lon="3.74365">
        <ele>925.065</ele>
        <time>2012-05-23T11:49:27Z</time>
      </trkpt>
      <trkpt lat="44.3609" lon="3.74363">
        <ele>926.234</ele>
        <time>2012-05-23T11:49:36Z</time>
      </trkpt>
      <trkpt lat="44.36094" lon="3.74359">
        <ele>926.688</ele>
        <time>2012-05-23T11:49:41Z</time>
      </trkpt>
      <trkpt lat="44.361" lon="3.74345">
        <ele>928.199</ele>
        <time>2012-05-23T11:49:55Z</time>
      </trkpt>
      <trkpt lat="44.36102" lon="3.74335">
        <ele>929.168</ele>
        <time>2012-05-23T11:50:07Z</time>
      </trkpt>
      <trkpt lat="44.36092" lon="3.74331">
        <ele>932.143</ele>
        <time>2012-05-23T11:50:19Z</time>
      </trkpt>
      <trkpt lat="44.36091" lon="3.74317">
        <ele>935.228</ele>
        <time>2012-05-23T11:50:32Z</time>
      </trkpt>
      <trkpt lat="44.36095" lon="3.74311">
        <ele>937.263</ele>
        <time>2012-05-23T11:50:40Z</time>
      </trkpt>
      <trkpt lat="44.36106" lon="3.74302">
        <ele>938.777</ele>
        <time>2012-05-23T11:50:55Z</time>
      </trkpt>
      <trkpt lat="44.361" lon="3.74298">
        <ele>940.66</ele>
        <time>2012-05-23T11:51:08Z</time>
      </trkpt>
      <trkpt lat="44.36086" lon="3.74294">
        <ele>943.615</ele>
        <time>2012-05-23T11:51:28Z</time>
      </trkpt>
      <trkpt lat="44.36095" lon="3.74284">
        <ele>945.78</ele>
        <time>2012-05-23T11:51:43Z</time>
      </trkpt>
      <trkpt lat="44.36101" lon="3.74277">
        <ele>946.976</ele>
        <time>2012-05-23T11:51:55Z</time>
      </trkpt>
      <trkpt lat="44.36108" lon="3.74266">
        <ele>949.144</ele>
        <time>2012-05-23T11:52:13Z</time>
      </trkpt>
      <trkpt lat="44.36113" lon="3.7425">
        <ele>952.141</ele>
        <time>2012-05-23T11:52:29Z</time>
      </trkpt>
      <trkpt lat="44.36117" lon="3.74242">
        <ele>954.265</ele>
        <time>2012-05-23T11:53:03Z</time>
      </trkpt>
      <trkpt lat="44.36117" lon="3.74238">
        <ele>954.601</ele>
        <time>2012-05-23T11:53:07Z</time>
      </trkpt>
      <trkpt lat="44.36124" lon="3.74223">
        <ele>957.484</ele>
        <time>2012-05-23T11:53:22Z</time>
      </trkpt>
      <trkpt lat="44.36129" lon="3.74207">
        <ele>960.206</ele>
        <time>2012-05-23T11:53:40Z</time>
      </trkpt>
      <trkpt lat="44.36139" lon="3.74188">
        <ele>963.745</ele>
        <time>2012-05-23T11:54:00Z</time>
      </trkpt>
      <trkpt lat="44.36141" lon="3.74181">
        <ele>964.367</ele>
        <time>2012-05-23T11:54:06Z</time>
      </trkpt>
      <trkpt lat="44.36143" lon="3.74178">
        <ele>965.356</ele>
        <time>2012-05-23T11:54:09Z</time>
      </trkpt>
      <trkpt lat="44.3615" lon="3.74161">
        <ele>967.879</ele>
        <time>2012-05-23T11:54:25Z</time>
      </trkpt>
      <trkpt lat="44.36153" lon="3.74149">
        <ele>970.371</ele>
        <time>2012-05-23T11:54:41Z</time>
      </trkpt>
      <trkpt lat="44.36161" lon="3.7413">
        <ele>973.296</ele>
        <time>2012-05-23T11:55:01Z</time>
      </trkpt>
      <trkpt lat="44.3617" lon="3.74114">
        <ele>976.333</ele>
        <time>2012-05-23T11:55:19Z</time>
      </trkpt>
      <trkpt lat="44.36177" lon="3.74103">
        <ele>978.736</ele>
        <time>2012-05-23T11:55:37Z</time>
      </trkpt>
      <trkpt lat="44.36171" lon="3.74101">
        <ele>980.272</ele>
        <time>2012-05-23T11:55:53Z</time>
      </trkpt>
      <trkpt lat="44.36167" lon="3.74102">
        <ele>980.123</ele>
        <time>2012-05-23T11:56:03Z</time>
      </trkpt>
      <trkpt lat="44.36154" lon="3.74112">
        <ele>982.791</ele>
        <time>2012-05-23T11:56:21Z</time>
      </trkpt>
      <trkpt lat="44.36139" lon="3.74116">
        <ele>985.367</ele>
        <time>2012-05-23T11:56:38Z</time>
      </trkpt>
      <trkpt lat="44.36124" lon="3.74122">
        <ele>988.136</ele>
        <time>2012-05-23T11:56:55Z</time>
      </trkpt>
      <trkpt lat="44.3611" lon="3.7413">
        <ele>990.691</ele>
        <time>2012-05-23T11:57:12Z</time>
      </trkpt>
      <trkpt lat="44.36091" lon="3.74133">
        <ele>994.043</ele>
        <time>2012-05-23T11:57:34Z</time>
      </trkpt>
      <trkpt lat="44.36078" lon="3.74139">
        <ele>996.555</ele>
        <time>2012-05-23T11:57:50Z</time>
      </trkpt>
      <trkpt lat="44.36065" lon="3.74146">
        <ele>998.649</ele>
        <time>2012-05-23T11:58:09Z</time>
      </trkpt>
      <trkpt lat="44.36058" lon="3.74148">
        <ele>999.793</ele>
        <time>2012-05-23T11:58:22Z</time>
      </trkpt>
      <trkpt lat="44.36052" lon="3.7415">
        <ele>1001.512</ele>
        <time>2012-05-23T11:58:51Z</time>
      </trkpt>
      <trkpt lat="44.3605" lon="3.7415">
        <ele>1001.784</ele>
        <time>2012-05-23T11:58:56Z</time>
      </trkpt>
      <trkpt lat="44.36034" lon="3.74149">
        <ele>1003.164</ele>
        <time>2012-05-23T11:59:12Z</time>
      </trkpt>
      <trkpt lat="44.36017" lon="3.74145">
        <ele>1005.353</ele>
        <time>2012-05-23T11:59:29Z</time>
      </trkpt>
      <trkpt lat="44.36003" lon="3.7414">
        <ele>1006.937</ele>
        <time>2012-05-23T11:59:44Z</time>
      </trkpt>
      <trkpt lat="44.35998" lon="3.74139">
        <ele>1007.549</ele>
        <time>2012-05-23T11:59:49Z</time>
      </trkpt>
      <trkpt lat="44.3598" lon="3.74134">
        <ele>1008.468</ele>
        <time>2012-05-23T12:00:09Z</time>
      </trkpt>
      <trkpt lat="44.35967" lon="3.74132">
        <ele>1010.366</ele>
        <time>2012-05-23T12:00:32Z</time>
      </trkpt>
      <trkpt lat="44.35955" lon="3.74133">
        <ele>1012.969</ele>
        <time>2012-05-23T12:00:45Z</time>
      </trkpt>
      <trkpt lat="44.35938" lon="3.74119">
        <ele>1016.228</ele>
        <time>2012-05-23T12:01:07Z</time>
      </trkpt>
      <trkpt lat="44.35927" lon="3.74107">
        <ele>1019.472</ele>
        <time>2012-05-23T12:01:26Z</time>
      </trkpt>
      <trkpt lat="44.35918" lon="3.741">
        <ele>1021.205</ele>
        <time>2012-05-23T12:01:40Z</time>
      </trkpt>
      <trkpt lat="44.35905" lon="3.74093">
        <ele>1024.274</ele>
        <time>2012-05-23T12:01:57Z</time>
      </trkpt>
      <trkpt lat="44.35898" lon="3.74088">
        <ele>1025.657</ele>
        <time>2012-05-23T12:02:06Z</time>
      </trkpt>
      <trkpt lat="44.35896" lon="3.74089">
        <ele>1026.267</ele>
        <time>2012-05-23T12:02:08Z</time>
      </trkpt>
      <trkpt lat="44.35891" lon="3.74087">
        <ele>1026.474</ele>
        <time>2012-05-23T12:02:13Z</time>
      </trkpt>
      <trkpt lat="44.35878" lon="3.74079">
        <ele>1029.026</ele>
        <time>2012-05-23T12:02:28Z</time>
      </trkpt>
      <trkpt lat="44.35868" lon="3.74072">
        <ele>1030.726</ele>
        <time>2012-05-23T12:02:41Z</time>
      </trkpt>
      <trkpt lat="44.35856" lon="3.74065">
        <ele>1032.567</ele>
        <time>2012-05-23T12:02:56Z</time>
      </trkpt>
      <trkpt lat="44.3584" lon="3.74054">
        <ele>1035.221</ele>
        <time>2012-05-23T12:03:17Z</time>
      </trkpt>
      <trkpt lat="44.35828" lon="3.74038">
        <ele>1037.854</ele>
        <time>2012-05-23T12:03:36Z</time>
      </trkpt>
      <trkpt lat="44.35811" lon="3.7403">
        <ele>1040.908</ele>
        <time>2012-05-23T12:03:56Z</time>
      </trkpt>
      <trkpt lat="44.35809" lon="3.7403">
        <ele>1040.933</ele>
        <time>2012-05-23T12:03:58Z</time>
      </trkpt>
      <trkpt lat="44.35791" lon="3.74029">
        <ele>1043.178</ele>
        <time>2012-05-23T12:04:16Z</time>
      </trkpt>
      <trkpt lat="44.35773" lon="3.74032">
        <ele>1044.952</ele>
        <time>2012-05-23T12:04:34Z</time>
      </trkpt>
      <trkpt lat="44.35768" lon="3.74036">
        <ele>1045.546</ele>
        <time>2012-05-23T12:04:41Z</time>
      </trkpt>
      <trkpt lat="44.35751" lon="3.74047">
        <ele>1047.996</ele>
        <time>2012-05-23T12:05:01Z</time>
      </trkpt>
      <trkpt lat="44.3575" lon="3.74048">
        <ele>1048.656</ele>
        <time>2012-05-23T12:05:03Z</time>
      </trkpt>
      <trkpt lat="44.35732" lon="3.74053">
        <ele>1051.554</ele>
        <time>2012-05-23T12:05:24Z</time>
      </trkpt>
      <trkpt lat="44.35727" lon="3.74052">
        <ele>1053.223</ele>
        <time>2012-05-23T12:05:30Z</time>
      </trkpt>
      <trkpt lat="44.35715" lon="3.74056">
        <ele>1056.469</ele>
        <time>2012-05-23T12:05:48Z</time>
      </trkpt>
      <trkpt lat="44.357" lon="3.74058">
        <ele>1059.884</ele>
        <time>2012-05-23T12:06:09Z</time>
      </trkpt>
      <trkpt lat="44.35688" lon="3.74058">
        <ele>1062.665</ele>
        <time>2012-05-23T12:06:29Z</time>
      </trkpt>
      <trkpt lat="44.35685" lon="3.74059">
        <ele>1063.782</ele>
        <time>2012-05-23T12:08:44Z</time>
      </trkpt>
      <trkpt lat="44.35685" lon="3.74056">
        <ele>1063.47</ele>
        <time>2012-05-23T12:09:40Z</time>
      </trkpt>
      <trkpt lat="44.3569" lon="3.74052">
        <ele>1064.089</ele>
        <time>2012-05-23T12:10:09Z</time>
      </trkpt>
      <trkpt lat="44.35693" lon="3.74047">
        <ele>1064.36</ele>
        <time>2012-05-23T12:13:23Z</time>
      </trkpt>
      <trkpt lat="44.35702" lon="3.7404">
        <ele>1066.003</ele>
        <time>2012-05-23T12:13:39Z</time>
      </trkpt>
      <trkpt lat="44.35704" lon="3.74034">
        <ele>1067.976</ele>
        <time>2012-05-23T12:13:55Z</time>
      </trkpt>
      <trkpt lat="44.35691" lon="3.74037">
        <ele>1070.501</ele>
        <time>2012-05-23T12:14:05Z</time>
      </trkpt>
      <trkpt lat="44.35679" lon="3.74037">
        <ele>1071.023</ele>
        <time>2012-05-23T12:14:17Z</time>
      </trkpt>
      <trkpt lat="44.35674" lon="3.74039">
        <ele>1071.453</ele>
        <time>2012-05-23T12:14:22Z</time>
      </trkpt>
      <trkpt lat="44.35659" lon="3.74043">
        <ele>1074.484</ele>
        <time>2012-05-23T12:14:40Z</time>
      </trkpt>
      <trkpt lat="44.35648" lon="3.74044">
        <ele>1078.304</ele>
        <time>2012-05-23T12:14:53Z</time>
      </trkpt>
      <trkpt lat="44.35635" lon="3.74044">
        <ele>1078.459</ele>
        <time>2012-05-23T12:15:07Z</time>
      </trkpt>
      <trkpt lat="44.35625" lon="3.74046">
        <ele>1078.993</ele>
        <time>2012-05-23T12:15:18Z</time>
      </trkpt>
      <trkpt lat="44.35613" lon="3.74047">
        <ele>1082.069</ele>
        <time>2012-05-23T12:15:33Z</time>
      </trkpt>
      <trkpt lat="44.356" lon="3.74048">
        <ele>1084.816</ele>
        <time>2012-05-23T12:15:49Z</time>
      </trkpt>
      <trkpt lat="44.35587" lon="3.74053">
        <ele>1085.835</ele>
        <time>2012-05-23T12:16:05Z</time>
      </trkpt>
      <trkpt lat="44.35572" lon="3.74059">
        <ele>1088.735</ele>
        <time>2012-05-23T12:16:23Z</time>
      </trkpt>
      <trkpt lat="44.35552" lon="3.74057">
        <ele>1091.665</ele>
        <time>2012-05-23T12:16:46Z</time>
      </trkpt>
      <trkpt lat="44.35544" lon="3.74056">
        <ele>1092.023</ele>
        <time>2012-05-23T12:16:54Z</time>
      </trkpt>
      <trkpt lat="44.35523" lon="3.7406">
        <ele>1093.52</ele>
        <time>2012-05-23T12:17:13Z</time>
      </trkpt>
      <trkpt lat="44.35514" lon="3.74057">
        <ele>1094.015</ele>
        <time>2012-05-23T12:17:21Z</time>
      </trkpt>
      <trkpt lat="44.35501" lon="3.7405">
        <ele>1095.749</ele>
        <time>2012-05-23T12:17:36Z</time>
      </trkpt>
      <trkpt lat="44.35498" lon="3.74049">
        <ele>1096.07</ele>
        <time>2012-05-23T12:17:40Z</time>
      </trkpt>
      <trkpt lat="44.35474" lon="3.74046">
        <ele>1096.518</ele>
        <time>2012-05-23T12:18:02Z</time>
      </trkpt>
      <trkpt lat="44.35465" lon="3.74044">
        <ele>1097.098</ele>
        <time>2012-05-23T12:18:10Z</time>
      </trkpt>
      <trkpt lat="44.35457" lon="3.74047">
        <ele>1097.394</ele>
        <time>2012-05-23T12:18:17Z</time>
      </trkpt>
      <trkpt lat="44.35434" lon="3.74045">
        <ele>1097.593</ele>
        <time>2012-05-23T12:18:37Z</time>
      </trkpt>
      <trkpt lat="44.35408" lon="3.74042">
        <ele>1099.178</ele>
        <time>2012-05-23T12:19:01Z</time>
      </trkpt>
      <trkpt lat="44.35397" lon="3.74038">
        <ele>1099.235</ele>
        <time>2012-05-23T12:19:11Z</time>
      </trkpt>
      <trkpt lat="44.35377" lon="3.74027">
        <ele>1097.884</ele>
        <time>2012-05-23T12:19:29Z</time>
      </trkpt>
      <trkpt lat="44.35354" lon="3.74015">
        <ele>1097.429</ele>
        <time>2012-05-23T12:19:51Z</time>
      </trkpt>
      <trkpt lat="44.35331" lon="3.74002">
        <ele>1097.924</ele>
        <time>2012-05-23T12:20:13Z</time>
      </trkpt>
      <trkpt lat="44.35319" lon="3.73997">
        <ele>1098.228</ele>
        <time>2012-05-23T12:22:11Z</time>
      </trkpt>
      <trkpt lat="44.35312" lon="3.73994">
        <ele>1097.89</ele>
        <time>2012-05-23T12:22:18Z</time>
      </trkpt>
      <trkpt lat="44.35303" lon="3.7399">
        <ele>1098.05</ele>
        <time>2012-05-23T12:22:27Z</time>
      </trkpt>
      <trkpt lat="44.353" lon="3.73987">
        <ele>1097.676</ele>
        <time>2012-05-23T12:22:30Z</time>
      </trkpt>
      <trkpt lat="44.35293" lon="3.73981">
        <ele>1096.95</ele>
        <time>2012-05-23T12:22:38Z</time>
      </trkpt>
      <trkpt lat="44.35269" lon="3.73962">
        <ele>1095.109</ele>
        <time>2012-05-23T12:23:01Z</time>
      </trkpt>
      <trkpt lat="44.35249" lon="3.73945">
        <ele>1096.029</ele>
        <time>2012-05-23T12:23:21Z</time>
      </trkpt>
      <trkpt lat="44.35247" lon="3.73942">
        <ele>1096.31</ele>
        <time>2012-05-23T12:23:24Z</time>
      </trkpt>
      <trkpt lat="44.35242" lon="3.73941">
        <ele>1096.07</ele>
        <time>2012-05-23T12:23:28Z</time>
      </trkpt>
      <trkpt lat="44.35237" lon="3.73935">
        <ele>1097.824</ele>
        <time>2012-05-23T12:23:36Z</time>
      </trkpt>
      <trkpt lat="44.35217" lon="3.73933">
        <ele>1099.71</ele>
        <time>2012-05-23T12:23:56Z</time>
      </trkpt>
      <trkpt lat="44.35212" lon="3.7393">
        <ele>1100.277</ele>
        <time>2012-05-23T12:24:02Z</time>
      </trkpt>
      <trkpt lat="44.35211" lon="3.73928">
        <ele>1100.687</ele>
        <time>2012-05-23T12:24:04Z</time>
      </trkpt>
      <trkpt lat="44.35206" lon="3.73923">
        <ele>1101.253</ele>
        <time>2012-05-23T12:24:10Z</time>
      </trkpt>
      <trkpt lat="44.35192" lon="3.73912">
        <ele>1103.648</ele>
        <time>2012-05-23T12:24:23Z</time>
      </trkpt>
      <trkpt lat="44.35188" lon="3.73908">
        <ele>1104.066</ele>
        <time>2012-05-23T12:24:27Z</time>
      </trkpt>
      <trkpt lat="44.3517" lon="3.73899">
        <ele>1106.655</ele>
        <time>2012-05-23T12:24:45Z</time>
      </trkpt>
      <trkpt lat="44.35169" lon="3.73896">
        <ele>1106.696</ele>
        <time>2012-05-23T12:24:48Z</time>
      </trkpt>
      <trkpt lat="44.35164" lon="3.73889">
        <ele>1106.231</ele>
        <time>2012-05-23T12:24:54Z</time>
      </trkpt>
      <trkpt lat="44.35146" lon="3.73874">
        <ele>1105.174</ele>
        <time>2012-05-23T12:25:14Z</time>
      </trkpt>
      <trkpt lat="44.3513" lon="3.73856">
        <ele>1103.735</ele>
        <time>2012-05-23T12:25:33Z</time>
      </trkpt>
      <trkpt lat="44.35111" lon="3.73837">
        <ele>1105.039</ele>
        <time>2012-05-23T12:25:54Z</time>
      </trkpt>
      <trkpt lat="44.35108" lon="3.73835">
        <ele>1104.21</ele>
        <time>2012-05-23T12:25:58Z</time>
      </trkpt>
      <trkpt lat="44.35105" lon="3.73832">
        <ele>1104.345</ele>
        <time>2012-05-23T12:26:01Z</time>
      </trkpt>
      <trkpt lat="44.35097" lon="3.73824">
        <ele>1104.446</ele>
        <time>2012-05-23T12:26:10Z</time>
      </trkpt>
      <trkpt lat="44.3507" lon="3.73801">
        <ele>1102.582</ele>
        <time>2012-05-23T12:26:38Z</time>
      </trkpt>
      <trkpt lat="44.35047" lon="3.73784">
        <ele>1101.862</ele>
        <time>2012-05-23T12:26:58Z</time>
      </trkpt>
      <trkpt lat="44.35044" lon="3.73781">
        <ele>1101.249</ele>
        <time>2012-05-23T12:27:01Z</time>
      </trkpt>
      <trkpt lat="44.35019" lon="3.73765">
        <ele>1101.397</ele>
        <time>2012-05-23T12:27:23Z</time>
      </trkpt>
      <trkpt lat="44.35012" lon="3.73761">
        <ele>1100.618</ele>
        <time>2012-05-23T12:27:29Z</time>
      </trkpt>
      <trkpt lat="44.35005" lon="3.7376">
        <ele>1099.945</ele>
        <time>2012-05-23T12:27:35Z</time>
      </trkpt>
      <trkpt lat="44.34992" lon="3.73753">
        <ele>1099.904</ele>
        <time>2012-05-23T12:27:46Z</time>
      </trkpt>
      <trkpt lat="44.34983" lon="3.73745">
        <ele>1099.537</ele>
        <time>2012-05-23T12:27:57Z</time>
      </trkpt>
      <trkpt lat="44.34957" lon="3.73731">
        <ele>1099.063</ele>
        <time>2012-05-23T12:28:19Z</time>
      </trkpt>
      <trkpt lat="44.34945" lon="3.73724">
        <ele>1098.619</ele>
        <time>2012-05-23T12:28:29Z</time>
      </trkpt>
      <trkpt lat="44.34916" lon="3.73719">
        <ele>1098.183</ele>
        <time>2012-05-23T12:28:51Z</time>
      </trkpt>
      <trkpt lat="44.34891" lon="3.73703">
        <ele>1098.37</ele>
        <time>2012-05-23T12:29:12Z</time>
      </trkpt>
      <trkpt lat="44.34862" lon="3.73687">
        <ele>1099.275</ele>
        <time>2012-05-23T12:29:35Z</time>
      </trkpt>
      <trkpt lat="44.34849" lon="3.73684">
        <ele>1100.196</ele>
        <time>2012-05-23T12:29:45Z</time>
      </trkpt>
      <trkpt lat="44.34828" lon="3.73684">
        <ele>1100.441</ele>
        <time>2012-05-23T12:30:02Z</time>
      </trkpt>
      <trkpt lat="44.34806" lon="3.73688">
        <ele>1100.075</ele>
        <time>2012-05-23T12:30:19Z</time>
      </trkpt>
      <trkpt lat="44.34802" lon="3.73685">
        <ele>1099.974</ele>
        <time>2012-05-23T12:30:24Z</time>
      </trkpt>
      <trkpt lat="44.34793" lon="3.73686">
        <ele>1099.991</ele>
        <time>2012-05-23T12:30:36Z</time>
      </trkpt>
      <trkpt lat="44.34783" lon="3.73685">
        <ele>1100.397</ele>
        <time>2012-05-23T12:30:47Z</time>
      </trkpt>
      <trkpt lat="44.34759" lon="3.7368">
        <ele>1099.405</ele>
        <time>2012-05-23T12:31:08Z</time>
      </trkpt>
      <trkpt lat="44.34755" lon="3.7368">
        <ele>1099.483</ele>
        <time>2012-05-23T12:31:11Z</time>
      </trkpt>
      <trkpt lat="44.34736" lon="3.73681">
        <ele>1099.654</ele>
        <time>2012-05-23T12:31:27Z</time>
      </trkpt>
      <trkpt lat="44.34731" lon="3.73679">
        <ele>1099.864</ele>
        <time>2012-05-23T12:31:32Z</time>
      </trkpt>
      <trkpt lat="44.34725" lon="3.73678">
        <ele>1100.061</ele>
        <time>2012-05-23T12:31:37Z</time>
      </trkpt>
      <trkpt lat="44.34716" lon="3.73682">
        <ele>1100.445</ele>
        <time>2012-05-23T12:31:50Z</time>
      </trkpt>
      <trkpt lat="44.34694" lon="3.737">
        <ele>1099.353</ele>
        <time>2012-05-23T12:32:10Z</time>
      </trkpt>
      <trkpt lat="44.34677" lon="3.73724">
        <ele>1099.415</ele>
        <time>2012-05-23T12:32:29Z</time>
      </trkpt>
      <trkpt lat="44.3465" lon="3.73749">
        <ele>1099.058</ele>
        <time>2012-05-23T12:32:54Z</time>
      </trkpt>
      <trkpt lat="44.34627" lon="3.73768">
        <ele>1097.805</ele>
        <time>2012-05-23T12:33:16Z</time>
      </trkpt>
      <trkpt lat="44.34604" lon="3.73774">
        <ele>1097.632</ele>
        <time>2012-05-23T12:33:36Z</time>
      </trkpt>
      <trkpt lat="44.34575" lon="3.73767">
        <ele>1096.917</ele>
        <time>2012-05-23T12:33:58Z</time>
      </trkpt>
      <trkpt lat="44.34561" lon="3.73755">
        <ele>1097.311</ele>
        <time>2012-05-23T12:34:11Z</time>
      </trkpt>
      <trkpt lat="44.34532" lon="3.73748">
        <ele>1100.448</ele>
        <time>2012-05-23T12:34:34Z</time>
      </trkpt>
      <trkpt lat="44.34509" lon="3.73748">
        <ele>1103.329</ele>
        <time>2012-05-23T12:34:54Z</time>
      </trkpt>
      <trkpt lat="44.34485" lon="3.73755">
        <ele>1104.219</ele>
        <time>2012-05-23T12:35:16Z</time>
      </trkpt>
      <trkpt lat="44.34453" lon="3.73772">
        <ele>1104.974</ele>
        <time>2012-05-23T12:35:42Z</time>
      </trkpt>
      <trkpt lat="44.34426" lon="3.73784">
        <ele>1104.553</ele>
        <time>2012-05-23T12:36:03Z</time>
      </trkpt>
      <trkpt lat="44.34398" lon="3.73787">
        <ele>1104.277</ele>
        <time>2012-05-23T12:36:25Z</time>
      </trkpt>
      <trkpt lat="44.34372" lon="3.73788">
        <ele>1103.775</ele>
        <time>2012-05-23T12:36:47Z</time>
      </trkpt>
      <trkpt lat="44.34349" lon="3.7379">
        <ele>1101.796</ele>
        <time>2012-05-23T12:37:05Z</time>
      </trkpt>
      <trkpt lat="44.34322" lon="3.73787">
        <ele>1100.341</ele>
        <time>2012-05-23T12:37:28Z</time>
      </trkpt>
      <trkpt lat="44.34296" lon="3.73779">
        <ele>1099.034</ele>
        <time>2012-05-23T12:37:50Z</time>
      </trkpt>
      <trkpt lat="44.34286" lon="3.73782">
        <ele>1097.745</ele>
        <time>2012-05-23T12:37:58Z</time>
      </trkpt>
      <trkpt lat="44.34275" lon="3.73782">
        <ele>1097.261</ele>
        <time>2012-05-23T12:38:06Z</time>
      </trkpt>
      <trkpt lat="44.34257" lon="3.73759">
        <ele>1094.185</ele>
        <time>2012-05-23T12:38:26Z</time>
      </trkpt>
      <trkpt lat="44.34243" lon="3.73745">
        <ele>1093.289</ele>
        <time>2012-05-23T12:38:41Z</time>
      </trkpt>
      <trkpt lat="44.34237" lon="3.73745">
        <ele>1093.843</ele>
        <time>2012-05-23T12:38:56Z</time>
      </trkpt>
      <trkpt lat="44.34231" lon="3.73745">
        <ele>1092.899</ele>
        <time>2012-05-23T12:45:13Z</time>
      </trkpt>
      <trkpt lat="44.34224" lon="3.73753">
        <ele>1094.302</ele>
        <time>2012-05-23T12:45:40Z</time>
      </trkpt>
      <trkpt lat="44.34212" lon="3.73772">
        <ele>1093.838</ele>
        <time>2012-05-23T12:45:59Z</time>
      </trkpt>
      <trkpt lat="44.342" lon="3.73789">
        <ele>1092.346</ele>
        <time>2012-05-23T12:46:15Z</time>
      </trkpt>
      <trkpt lat="44.342" lon="3.73818">
        <ele>1090.653</ele>
        <time>2012-05-23T12:46:34Z</time>
      </trkpt>
      <trkpt lat="44.34197" lon="3.73833">
        <ele>1088.11</ele>
        <time>2012-05-23T12:46:44Z</time>
      </trkpt>
      <trkpt lat="44.34197" lon="3.7385">
        <ele>1086.728</ele>
        <time>2012-05-23T12:46:55Z</time>
      </trkpt>
      <trkpt lat="44.34195" lon="3.73862">
        <ele>1085.482</ele>
        <time>2012-05-23T12:47:03Z</time>
      </trkpt>
      <trkpt lat="44.34185" lon="3.73897">
        <ele>1084.272</ele>
        <time>2012-05-23T12:47:25Z</time>
      </trkpt>
      <trkpt lat="44.34184" lon="3.739">
        <ele>1084.362</ele>
        <time>2012-05-23T12:47:27Z</time>
      </trkpt>
      <trkpt lat="44.34171" lon="3.73929">
        <ele>1081.767</ele>
        <time>2012-05-23T12:47:48Z</time>
      </trkpt>
      <trkpt lat="44.34157" lon="3.73962">
        <ele>1079.557</ele>
        <time>2012-05-23T12:48:10Z</time>
      </trkpt>
      <trkpt lat="44.34136" lon="3.73994">
        <ele>1077.422</ele>
        <time>2012-05-23T12:48:35Z</time>
      </trkpt>
      <trkpt lat="44.34125" lon="3.74006">
        <ele>1075.415</ele>
        <time>2012-05-23T12:48:47Z</time>
      </trkpt>
      <trkpt lat="44.34119" lon="3.74012">
        <ele>1074.087</ele>
        <time>2012-05-23T12:48:53Z</time>
      </trkpt>
      <trkpt lat="44.34106" lon="3.74025">
        <ele>1073.22</ele>
        <time>2012-05-23T12:49:06Z</time>
      </trkpt>
      <trkpt lat="44.34094" lon="3.74042">
        <ele>1070.523</ele>
        <time>2012-05-23T12:49:22Z</time>
      </trkpt>
      <trkpt lat="44.34088" lon="3.7405">
        <ele>1070.069</ele>
        <time>2012-05-23T12:49:30Z</time>
      </trkpt>
      <trkpt lat="44.34084" lon="3.74063">
        <ele>1069.005</ele>
        <time>2012-05-23T12:49:39Z</time>
      </trkpt>
      <trkpt lat="44.34077" lon="3.74079">
        <ele>1068.491</ele>
        <time>2012-05-23T12:49:50Z</time>
      </trkpt>
      <trkpt lat="44.34074" lon="3.74088">
        <ele>1068.244</ele>
        <time>2012-05-23T12:49:55Z</time>
      </trkpt>
      <trkpt lat="44.34074" lon="3.74091">
        <ele>1067.909</ele>
        <time>2012-05-23T12:49:57Z</time>
      </trkpt>
      <trkpt lat="44.34066" lon="3.74107">
        <ele>1066.943</ele>
        <time>2012-05-23T12:50:08Z</time>
      </trkpt>
      <trkpt lat="44.34062" lon="3.74116">
        <ele>1066.013</ele>
        <time>2012-05-23T12:50:14Z</time>
      </trkpt>
      <trkpt lat="44.34059" lon="3.74122">
        <ele>1065.243</ele>
        <time>2012-05-23T12:50:21Z</time>
      </trkpt>
      <trkpt lat="44.34057" lon="3.7413">
        <ele>1064.32</ele>
        <time>2012-05-23T12:50:29Z</time>
      </trkpt>
      <trkpt lat="44.34053" lon="3.74133">
        <ele>1063.969</ele>
        <time>2012-05-23T12:50:33Z</time>
      </trkpt>
      <trkpt lat="44.34051" lon="3.74139">
        <ele>1063.708</ele>
        <time>2012-05-23T12:50:37Z</time>
      </trkpt>
      <trkpt lat="44.34051" lon="3.74153">
        <ele>1061.831</ele>
        <time>2012-05-23T12:50:46Z</time>
      </trkpt>
      <trkpt lat="44.3405" lon="3.74159">
        <ele>1062.148</ele>
        <time>2012-05-23T12:50:49Z</time>
      </trkpt>
      <trkpt lat="44.3405" lon="3.74166">
        <ele>1061.85</ele>
        <time>2012-05-23T12:50:54Z</time>
      </trkpt>
      <trkpt lat="44.34049" lon="3.74183">
        <ele>1060.304</ele>
        <time>2012-05-23T12:51:05Z</time>
      </trkpt>
      <trkpt lat="44.34049" lon="3.74188">
        <ele>1060.59</ele>
        <time>2012-05-23T12:51:08Z</time>
      </trkpt>
      <trkpt lat="44.34047" lon="3.74194">
        <ele>1060.12</ele>
        <time>2012-05-23T12:51:12Z</time>
      </trkpt>
      <trkpt lat="44.34045" lon="3.74199">
        <ele>1059.883</ele>
        <time>2012-05-23T12:51:16Z</time>
      </trkpt>
      <trkpt lat="44.34044" lon="3.74215">
        <ele>1059.276</ele>
        <time>2012-05-23T12:51:26Z</time>
      </trkpt>
      <trkpt lat="44.34042" lon="3.74236">
        <ele>1058.305</ele>
        <time>2012-05-23T12:51:39Z</time>
      </trkpt>
      <trkpt lat="44.34039" lon="3.74236">
        <ele>1057.552</ele>
        <time>2012-05-23T12:51:44Z</time>
      </trkpt>
      <trkpt lat="44.34033" lon="3.74212">
        <ele>1054.617</ele>
        <time>2012-05-23T12:52:02Z</time>
      </trkpt>
      <trkpt lat="44.34021" lon="3.74195">
        <ele>1052.724</ele>
        <time>2012-05-23T12:52:14Z</time>
      </trkpt>
      <trkpt lat="44.34014" lon="3.74185">
        <ele>1051.429</ele>
        <time>2012-05-23T12:52:22Z</time>
      </trkpt>
      <trkpt lat="44.34006" lon="3.74181">
        <ele>1050.037</ele>
        <time>2012-05-23T12:52:29Z</time>
      </trkpt>
      <trkpt lat="44.34003" lon="3.74181">
        <ele>1049.508</ele>
        <time>2012-05-23T12:52:33Z</time>
      </trkpt>
      <trkpt lat="44.33993" lon="3.74179">
        <ele>1047.516</ele>
        <time>2012-05-23T12:52:44Z</time>
      </trkpt>
      <trkpt lat="44.33991" lon="3.74174">
        <ele>1046.009</ele>
        <time>2012-05-23T12:52:49Z</time>
      </trkpt>
      <trkpt lat="44.33986" lon="3.74167">
        <ele>1044.837</ele>
        <time>2012-05-23T12:52:55Z</time>
      </trkpt>
      <trkpt lat="44.33982" lon="3.74161">
        <ele>1044.122</ele>
        <time>2012-05-23T12:52:59Z</time>
      </trkpt>
      <trkpt lat="44.3397" lon="3.74144">
        <ele>1040.655</ele>
        <time>2012-05-23T12:53:14Z</time>
      </trkpt>
      <trkpt lat="44.33967" lon="3.74139">
        <ele>1039.696</ele>
        <time>2012-05-23T12:53:22Z</time>
      </trkpt>
      <trkpt lat="44.33964" lon="3.74144">
        <ele>1038.401</ele>
        <time>2012-05-23T12:53:27Z</time>
      </trkpt>
      <trkpt lat="44.33959" lon="3.7415">
        <ele>1037.338</ele>
        <time>2012-05-23T12:53:33Z</time>
      </trkpt>
      <trkpt lat="44.33958" lon="3.74156">
        <ele>1036.829</ele>
        <time>2012-05-23T12:53:37Z</time>
      </trkpt>
      <trkpt lat="44.33956" lon="3.74158">
        <ele>1036.151</ele>
        <time>2012-05-23T12:53:40Z</time>
      </trkpt>
      <trkpt lat="44.33953" lon="3.74165">
        <ele>1035.98</ele>
        <time>2012-05-23T12:53:46Z</time>
      </trkpt>
      <trkpt lat="44.33951" lon="3.74171">
        <ele>1035.902</ele>
        <time>2012-05-23T12:53:51Z</time>
      </trkpt>
      <trkpt lat="44.33949" lon="3.74174">
        <ele>1035.322</ele>
        <time>2012-05-23T12:53:54Z</time>
      </trkpt>
      <trkpt lat="44.33947" lon="3.74178">
        <ele>1035.169</ele>
        <time>2012-05-23T12:53:57Z</time>
      </trkpt>
      <trkpt lat="44.33944" lon="3.74184">
        <ele>1034.019</ele>
        <time>2012-05-23T12:54:03Z</time>
      </trkpt>
      <trkpt lat="44.33942" lon="3.74188">
        <ele>1034.175</ele>
        <time>2012-05-23T12:54:06Z</time>
      </trkpt>
      <trkpt lat="44.33937" lon="3.74198">
        <ele>1032.957</ele>
        <time>2012-05-23T12:54:14Z</time>
      </trkpt>
      <trkpt lat="44.33935" lon="3.74215">
        <ele>1030.487</ele>
        <time>2012-05-23T12:54:26Z</time>
      </trkpt>
      <trkpt lat="44.33932" lon="3.74228">
        <ele>1029.419</ele>
        <time>2012-05-23T12:54:38Z</time>
      </trkpt>
      <trkpt lat="44.33931" lon="3.74242">
        <ele>1028.252</ele>
        <time>2012-05-23T12:54:46Z</time>
      </trkpt>
      <trkpt lat="44.33931" lon="3.74246">
        <ele>1027.699</ele>
        <time>2012-05-23T12:54:48Z</time>
      </trkpt>
      <trkpt lat="44.33922" lon="3.74261">
        <ele>1025.87</ele>
        <time>2012-05-23T12:55:00Z</time>
      </trkpt>
      <trkpt lat="44.33914" lon="3.74271">
        <ele>1025.45</ele>
        <time>2012-05-23T12:55:07Z</time>
      </trkpt>
      <trkpt lat="44.33908" lon="3.7428">
        <ele>1024.104</ele>
        <time>2012-05-23T12:55:14Z</time>
      </trkpt>
      <trkpt lat="44.33904" lon="3.74288">
        <ele>1022.946</ele>
        <time>2012-05-23T12:55:21Z</time>
      </trkpt>
      <trkpt lat="44.33895" lon="3.74298">
        <ele>1023.062</ele>
        <time>2012-05-23T12:55:31Z</time>
      </trkpt>
      <trkpt lat="44.3389" lon="3.743">
        <ele>1023.005</ele>
        <time>2012-05-23T12:55:35Z</time>
      </trkpt>
      <trkpt lat="44.33887" lon="3.74303">
        <ele>1022.318</ele>
        <time>2012-05-23T12:55:38Z</time>
      </trkpt>
      <trkpt lat="44.3387" lon="3.74306">
        <ele>1020.898</ele>
        <time>2012-05-23T12:55:53Z</time>
      </trkpt>
      <trkpt lat="44.33863" lon="3.74305">
        <ele>1020.864</ele>
        <time>2012-05-23T12:56:02Z</time>
      </trkpt>
      <trkpt lat="44.33854" lon="3.74308">
        <ele>1019.975</ele>
        <time>2012-05-23T12:56:08Z</time>
      </trkpt>
      <trkpt lat="44.33835" lon="3.74323">
        <ele>1016.587</ele>
        <time>2012-05-23T12:56:26Z</time>
      </trkpt>
      <trkpt lat="44.3383" lon="3.74322">
        <ele>1015.643</ele>
        <time>2012-05-23T12:56:30Z</time>
      </trkpt>
      <trkpt lat="44.33819" lon="3.74321">
        <ele>1012.887</ele>
        <time>2012-05-23T12:56:41Z</time>
      </trkpt>
      <trkpt lat="44.33816" lon="3.74324">
        <ele>1012.798</ele>
        <time>2012-05-23T12:56:44Z</time>
      </trkpt>
      <trkpt lat="44.33813" lon="3.74327">
        <ele>1013.086</ele>
        <time>2012-05-23T12:56:48Z</time>
      </trkpt>
      <trkpt lat="44.33812" lon="3.74342">
        <ele>1012.756</ele>
        <time>2012-05-23T12:56:58Z</time>
      </trkpt>
      <trkpt lat="44.3381" lon="3.74352">
        <ele>1011.74</ele>
        <time>2012-05-23T12:57:05Z</time>
      </trkpt>
      <trkpt lat="44.3381" lon="3.74354">
        <ele>1011.346</ele>
        <time>2012-05-23T12:57:07Z</time>
      </trkpt>
      <trkpt lat="44.33812" lon="3.74372">
        <ele>1010.122</ele>
        <time>2012-05-23T12:57:16Z</time>
      </trkpt>
      <trkpt lat="44.33806" lon="3.74388">
        <ele>1008.818</ele>
        <time>2012-05-23T12:57:26Z</time>
      </trkpt>
      <trkpt lat="44.33801" lon="3.74402">
        <ele>1007.052</ele>
        <time>2012-05-23T12:57:36Z</time>
      </trkpt>
      <trkpt lat="44.338" lon="3.74411">
        <ele>1006.612</ele>
        <time>2012-05-23T12:57:41Z</time>
      </trkpt>
      <trkpt lat="44.33796" lon="3.74416">
        <ele>1005.608</ele>
        <time>2012-05-23T12:57:45Z</time>
      </trkpt>
      <trkpt lat="44.33791" lon="3.74424">
        <ele>1004.614</ele>
        <time>2012-05-23T12:57:51Z</time>
      </trkpt>
      <trkpt lat="44.33787" lon="3.74427">
        <ele>1004.01</ele>
        <time>2012-05-23T12:57:55Z</time>
      </trkpt>
      <trkpt lat="44.33784" lon="3.74429">
        <ele>1003.653</ele>
        <time>2012-05-23T12:57:57Z</time>
      </trkpt>
      <trkpt lat="44.33774" lon="3.74442">
        <ele>1002.637</ele>
        <time>2012-05-23T12:58:07Z</time>
      </trkpt>
      <trkpt lat="44.33772" lon="3.74461">
        <ele>1003.047</ele>
        <time>2012-05-23T12:58:20Z</time>
      </trkpt>
      <trkpt lat="44.33795" lon="3.7446">
        <ele>1002.151</ele>
        <time>2012-05-23T12:58:40Z</time>
      </trkpt>
      <trkpt lat="44.33805" lon="3.74457">
        <ele>1001.248</ele>
        <time>2012-05-23T13:00:07Z</time>
      </trkpt>
      <trkpt lat="44.33814" lon="3.74445">
        <ele>1000.451</ele>
        <time>2012-05-23T13:00:21Z</time>
      </trkpt>
      <trkpt lat="44.33818" lon="3.74445">
        <ele>1000.427</ele>
        <time>2012-05-23T13:00:24Z</time>
      </trkpt>
      <trkpt lat="44.33833" lon="3.74438">
        <ele>999.598</ele>
        <time>2012-05-23T13:00:37Z</time>
      </trkpt>
      <trkpt lat="44.33851" lon="3.74438">
        <ele>998.606</ele>
        <time>2012-05-23T13:00:48Z</time>
      </trkpt>
      <trkpt lat="44.33862" lon="3.74434">
        <ele>997.835</ele>
        <time>2012-05-23T13:00:58Z</time>
      </trkpt>
      <trkpt lat="44.33888" lon="3.74434">
        <ele>997.797</ele>
        <time>2012-05-23T13:01:15Z</time>
      </trkpt>
      <trkpt lat="44.33896" lon="3.74432">
        <ele>997.761</ele>
        <time>2012-05-23T13:01:20Z</time>
      </trkpt>
      <trkpt lat="44.33919" lon="3.74416">
        <ele>997.88</ele>
        <time>2012-05-23T13:01:39Z</time>
      </trkpt>
      <trkpt lat="44.33936" lon="3.74422">
        <ele>997.615</ele>
        <time>2012-05-23T13:01:53Z</time>
      </trkpt>
      <trkpt lat="44.33949" lon="3.74447">
        <ele>996.451</ele>
        <time>2012-05-23T13:02:13Z</time>
      </trkpt>
      <trkpt lat="44.33956" lon="3.74472">
        <ele>996.416</ele>
        <time>2012-05-23T13:02:29Z</time>
      </trkpt>
      <trkpt lat="44.33956" lon="3.74515">
        <ele>997.62</ele>
        <time>2012-05-23T13:02:55Z</time>
      </trkpt>
      <trkpt lat="44.33957" lon="3.74521">
        <ele>996.901</ele>
        <time>2012-05-23T13:02:59Z</time>
      </trkpt>
      <trkpt lat="44.33956" lon="3.74528">
        <ele>997.69</ele>
        <time>2012-05-23T13:03:03Z</time>
      </trkpt>
      <trkpt lat="44.33955" lon="3.74531">
        <ele>997.135</ele>
        <time>2012-05-23T13:03:05Z</time>
      </trkpt>
      <trkpt lat="44.33955" lon="3.74535">
        <ele>996.943</ele>
        <time>2012-05-23T13:03:08Z</time>
      </trkpt>
      <trkpt lat="44.33955" lon="3.7454">
        <ele>996.729</ele>
        <time>2012-05-23T13:03:12Z</time>
      </trkpt>
      <trkpt lat="44.33954" lon="3.74553">
        <ele>996.661</ele>
        <time>2012-05-23T13:03:20Z</time>
      </trkpt>
      <trkpt lat="44.33951" lon="3.74573">
        <ele>996.612</ele>
        <time>2012-05-23T13:03:32Z</time>
      </trkpt>
      <trkpt lat="44.33942" lon="3.74606">
        <ele>996.595</ele>
        <time>2012-05-23T13:03:53Z</time>
      </trkpt>
      <trkpt lat="44.33939" lon="3.74615">
        <ele>996.449</ele>
        <time>2012-05-23T13:03:59Z</time>
      </trkpt>
      <trkpt lat="44.33937" lon="3.74625">
        <ele>996.109</ele>
        <time>2012-05-23T13:04:06Z</time>
      </trkpt>
      <trkpt lat="44.33933" lon="3.74636">
        <ele>996.438</ele>
        <time>2012-05-23T13:04:13Z</time>
      </trkpt>
      <trkpt lat="44.33933" lon="3.7464">
        <ele>996.314</ele>
        <time>2012-05-23T13:04:15Z</time>
      </trkpt>
      <trkpt lat="44.33931" lon="3.74643">
        <ele>996.307</ele>
        <time>2012-05-23T13:04:18Z</time>
      </trkpt>
      <trkpt lat="44.33932" lon="3.74652">
        <ele>996.326</ele>
        <time>2012-05-23T13:04:23Z</time>
      </trkpt>
      <trkpt lat="44.33932" lon="3.74664">
        <ele>995.877</ele>
        <time>2012-05-23T13:04:30Z</time>
      </trkpt>
      <trkpt lat="44.33933" lon="3.7468">
        <ele>995.568</ele>
        <time>2012-05-23T13:04:40Z</time>
      </trkpt>
      <trkpt lat="44.33935" lon="3.7469">
        <ele>994.713</ele>
        <time>2012-05-23T13:04:46Z</time>
      </trkpt>
      <trkpt lat="44.33934" lon="3.7473">
        <ele>993.912</ele>
        <time>2012-05-23T13:05:10Z</time>
      </trkpt>
      <trkpt lat="44.33926" lon="3.74768">
        <ele>992.787</ele>
        <time>2012-05-23T13:05:34Z</time>
      </trkpt>
      <trkpt lat="44.33923" lon="3.74796">
        <ele>993.39</ele>
        <time>2012-05-23T13:05:52Z</time>
      </trkpt>
      <trkpt lat="44.33924" lon="3.74804">
        <ele>993.622</ele>
        <time>2012-05-23T13:06:16Z</time>
      </trkpt>
      <trkpt lat="44.33922" lon="3.74815">
        <ele>993.879</ele>
        <time>2012-05-23T13:06:24Z</time>
      </trkpt>
      <trkpt lat="44.3392" lon="3.74845">
        <ele>996.899</ele>
        <time>2012-05-23T13:06:45Z</time>
      </trkpt>
      <trkpt lat="44.33919" lon="3.74863">
        <ele>998.119</ele>
        <time>2012-05-23T13:07:04Z</time>
      </trkpt>
      <trkpt lat="44.33917" lon="3.74881">
        <ele>1000.067</ele>
        <time>2012-05-23T13:07:23Z</time>
      </trkpt>
      <trkpt lat="44.33916" lon="3.74888">
        <ele>1000.383</ele>
        <time>2012-05-23T13:07:29Z</time>
      </trkpt>
      <trkpt lat="44.33915" lon="3.74899">
        <ele>1000.934</ele>
        <time>2012-05-23T13:07:37Z</time>
      </trkpt>
      <trkpt lat="44.33908" lon="3.74921">
        <ele>1002.729</ele>
        <time>2012-05-23T13:07:53Z</time>
      </trkpt>
      <trkpt lat="44.33903" lon="3.7493">
        <ele>1003.789</ele>
        <time>2012-05-23T13:08:01Z</time>
      </trkpt>
      <trkpt lat="44.33885" lon="3.74942">
        <ele>1005.248</ele>
        <time>2012-05-23T13:08:19Z</time>
      </trkpt>
      <trkpt lat="44.33883" lon="3.74944">
        <ele>1005.735</ele>
        <time>2012-05-23T13:08:21Z</time>
      </trkpt>
      <trkpt lat="44.33869" lon="3.74953">
        <ele>1008.221</ele>
        <time>2012-05-23T13:08:36Z</time>
      </trkpt>
      <trkpt lat="44.33849" lon="3.74962">
        <ele>1011.077</ele>
        <time>2012-05-23T13:08:58Z</time>
      </trkpt>
      <trkpt lat="44.33842" lon="3.74963">
        <ele>1011.765</ele>
        <time>2012-05-23T13:09:06Z</time>
      </trkpt>
      <trkpt lat="44.33838" lon="3.74963">
        <ele>1012.104</ele>
        <time>2012-05-23T13:09:10Z</time>
      </trkpt>
      <trkpt lat="44.33824" lon="3.74958">
        <ele>1013.875</ele>
        <time>2012-05-23T13:09:25Z</time>
      </trkpt>
      <trkpt lat="44.33815" lon="3.74954">
        <ele>1014.675</ele>
        <time>2012-05-23T13:09:35Z</time>
      </trkpt>
      <trkpt lat="44.33805" lon="3.7495">
        <ele>1015.488</ele>
        <time>2012-05-23T13:09:43Z</time>
      </trkpt>
      <trkpt lat="44.3379" lon="3.7496">
        <ele>1016.812</ele>
        <time>2012-05-23T13:10:00Z</time>
      </trkpt>
      <trkpt lat="44.33773" lon="3.74971">
        <ele>1020.209</ele>
        <time>2012-05-23T13:10:18Z</time>
      </trkpt>
      <trkpt lat="44.33752" lon="3.74978">
        <ele>1023.322</ele>
        <time>2012-05-23T13:10:41Z</time>
      </trkpt>
      <trkpt lat="44.33737" lon="3.74982">
        <ele>1025.561</ele>
        <time>2012-05-23T13:10:57Z</time>
      </trkpt>
      <trkpt lat="44.33733" lon="3.74985">
        <ele>1025.917</ele>
        <time>2012-05-23T13:11:02Z</time>
      </trkpt>
      <trkpt lat="44.33715" lon="3.7499">
        <ele>1028.515</ele>
        <time>2012-05-23T13:11:21Z</time>
      </trkpt>
      <trkpt lat="44.33695" lon="3.74995">
        <ele>1031.031</ele>
        <time>2012-05-23T13:11:44Z</time>
      </trkpt>
      <trkpt lat="44.33677" lon="3.74999">
        <ele>1033.111</ele>
        <time>2012-05-23T13:12:03Z</time>
      </trkpt>
      <trkpt lat="44.33667" lon="3.75008">
        <ele>1035.129</ele>
        <time>2012-05-23T13:12:15Z</time>
      </trkpt>
      <trkpt lat="44.33648" lon="3.7502">
        <ele>1037.637</ele>
        <time>2012-05-23T13:12:39Z</time>
      </trkpt>
      <trkpt lat="44.33632" lon="3.75031">
        <ele>1040.765</ele>
        <time>2012-05-23T13:12:59Z</time>
      </trkpt>
      <trkpt lat="44.33616" lon="3.75042">
        <ele>1043.502</ele>
        <time>2012-05-23T13:13:20Z</time>
      </trkpt>
      <trkpt lat="44.336" lon="3.75055">
        <ele>1046.835</ele>
        <time>2012-05-23T13:13:39Z</time>
      </trkpt>
      <trkpt lat="44.3359" lon="3.75062">
        <ele>1048.012</ele>
        <time>2012-05-23T13:13:51Z</time>
      </trkpt>
      <trkpt lat="44.33587" lon="3.75064">
        <ele>1048.253</ele>
        <time>2012-05-23T13:13:54Z</time>
      </trkpt>
      <trkpt lat="44.33567" lon="3.75077">
        <ele>1051.191</ele>
        <time>2012-05-23T13:14:15Z</time>
      </trkpt>
      <trkpt lat="44.33554" lon="3.75089">
        <ele>1053.014</ele>
        <time>2012-05-23T13:14:33Z</time>
      </trkpt>
      <trkpt lat="44.33544" lon="3.75097">
        <ele>1055.493</ele>
        <time>2012-05-23T13:14:45Z</time>
      </trkpt>
      <trkpt lat="44.33539" lon="3.75101">
        <ele>1057.064</ele>
        <time>2012-05-23T13:14:51Z</time>
      </trkpt>
      <trkpt lat="44.33533" lon="3.75102">
        <ele>1057.925</ele>
        <time>2012-05-23T13:14:57Z</time>
      </trkpt>
      <trkpt lat="44.33531" lon="3.75103">
        <ele>1058.291</ele>
        <time>2012-05-23T13:14:59Z</time>
      </trkpt>
      <trkpt lat="44.33522" lon="3.75107">
        <ele>1059.917</ele>
        <time>2012-05-23T13:15:08Z</time>
      </trkpt>
      <trkpt lat="44.33518" lon="3.75108">
        <ele>1060.491</ele>
        <time>2012-05-23T13:15:12Z</time>
      </trkpt>
      <trkpt lat="44.33515" lon="3.7511">
        <ele>1060.39</ele>
        <time>2012-05-23T13:15:16Z</time>
      </trkpt>
      <trkpt lat="44.3351" lon="3.75118">
        <ele>1061.553</ele>
        <time>2012-05-23T13:15:22Z</time>
      </trkpt>
      <trkpt lat="44.33496" lon="3.75125">
        <ele>1063.86</ele>
        <time>2012-05-23T13:15:37Z</time>
      </trkpt>
      <trkpt lat="44.33492" lon="3.75126">
        <ele>1064.391</ele>
        <time>2012-05-23T13:15:41Z</time>
      </trkpt>
      <trkpt lat="44.33483" lon="3.75133">
        <ele>1066.082</ele>
        <time>2012-05-23T13:15:51Z</time>
      </trkpt>
      <trkpt lat="44.33482" lon="3.75136">
        <ele>1066.486</ele>
        <time>2012-05-23T13:15:53Z</time>
      </trkpt>
      <trkpt lat="44.33471" lon="3.75148">
        <ele>1068.239</ele>
        <time>2012-05-23T13:16:06Z</time>
      </trkpt>
      <trkpt lat="44.33466" lon="3.75155">
        <ele>1069.011</ele>
        <time>2012-05-23T13:16:13Z</time>
      </trkpt>
      <trkpt lat="44.33453" lon="3.75164">
        <ele>1069.97</ele>
        <time>2012-05-23T13:16:27Z</time>
      </trkpt>
      <trkpt lat="44.3345" lon="3.7516">
        <ele>1069.872</ele>
        <time>2012-05-23T13:16:42Z</time>
      </trkpt>
      <trkpt lat="44.33441" lon="3.75164">
        <ele>1073.483</ele>
        <time>2012-05-23T13:19:44Z</time>
      </trkpt>
      <trkpt lat="44.33435" lon="3.75168">
        <ele>1072.932</ele>
        <time>2012-05-23T13:20:31Z</time>
      </trkpt>
      <trkpt lat="44.3342" lon="3.7519">
        <ele>1075.11</ele>
        <time>2012-05-23T13:20:53Z</time>
      </trkpt>
      <trkpt lat="44.3341" lon="3.75197">
        <ele>1076.244</ele>
        <time>2012-05-23T13:21:14Z</time>
      </trkpt>
      <trkpt lat="44.33399" lon="3.75206">
        <ele>1078.011</ele>
        <time>2012-05-23T13:21:41Z</time>
      </trkpt>
      <trkpt lat="44.33394" lon="3.75211">
        <ele>1079.517</ele>
        <time>2012-05-23T13:21:53Z</time>
      </trkpt>
      <trkpt lat="44.33386" lon="3.75223">
        <ele>1080.589</ele>
        <time>2012-05-23T13:22:08Z</time>
      </trkpt>
      <trkpt lat="44.33377" lon="3.75231">
        <ele>1081.069</ele>
        <time>2012-05-23T13:22:22Z</time>
      </trkpt>
      <trkpt lat="44.33369" lon="3.75245">
        <ele>1082.069</ele>
        <time>2012-05-23T13:22:32Z</time>
      </trkpt>
      <trkpt lat="44.33361" lon="3.75249">
        <ele>1082.478</ele>
        <time>2012-05-23T13:22:47Z</time>
      </trkpt>
      <trkpt lat="44.33357" lon="3.75254">
        <ele>1082.43</ele>
        <time>2012-05-23T13:22:52Z</time>
      </trkpt>
      <trkpt lat="44.33352" lon="3.75261">
        <ele>1082.405</ele>
        <time>2012-05-23T13:22:57Z</time>
      </trkpt>
      <trkpt lat="44.33351" lon="3.75267">
        <ele>1082.966</ele>
        <time>2012-05-23T13:23:02Z</time>
      </trkpt>
      <trkpt lat="44.3335" lon="3.75273">
        <ele>1082.643</ele>
        <time>2012-05-23T13:23:05Z</time>
      </trkpt>
      <trkpt lat="44.33347" lon="3.75282">
        <ele>1082.382</ele>
        <time>2012-05-23T13:23:19Z</time>
      </trkpt>
      <trkpt lat="44.33337" lon="3.753">
        <ele>1083.663</ele>
        <time>2012-05-23T13:29:00Z</time>
      </trkpt>
      <trkpt lat="44.33322" lon="3.75308">
        <ele>1083.684</ele>
        <time>2012-05-23T13:29:14Z</time>
      </trkpt>
      <trkpt lat="44.33308" lon="3.75322">
        <ele>1083.829</ele>
        <time>2012-05-23T13:29:29Z</time>
      </trkpt>
      <trkpt lat="44.33306" lon="3.75327">
        <ele>1084.033</ele>
        <time>2012-05-23T13:29:33Z</time>
      </trkpt>
      <trkpt lat="44.33292" lon="3.75334">
        <ele>1083.884</ele>
        <time>2012-05-23T13:29:46Z</time>
      </trkpt>
      <trkpt lat="44.33286" lon="3.75338">
        <ele>1084.434</ele>
        <time>2012-05-23T13:29:58Z</time>
      </trkpt>
      <trkpt lat="44.33273" lon="3.75342">
        <ele>1084.399</ele>
        <time>2012-05-23T13:30:10Z</time>
      </trkpt>
      <trkpt lat="44.33261" lon="3.75345">
        <ele>1084.882</ele>
        <time>2012-05-23T13:30:21Z</time>
      </trkpt>
      <trkpt lat="44.33245" lon="3.75348">
        <ele>1085.235</ele>
        <time>2012-05-23T13:30:34Z</time>
      </trkpt>
      <trkpt lat="44.3323" lon="3.75351">
        <ele>1086.456</ele>
        <time>2012-05-23T13:30:47Z</time>
      </trkpt>
      <trkpt lat="44.33209" lon="3.75366">
        <ele>1088.217</ele>
        <time>2012-05-23T13:31:07Z</time>
      </trkpt>
      <trkpt lat="44.33187" lon="3.75371">
        <ele>1089.272</ele>
        <time>2012-05-23T13:31:24Z</time>
      </trkpt>
      <trkpt lat="44.33176" lon="3.75373">
        <ele>1089.87</ele>
        <time>2012-05-23T13:31:34Z</time>
      </trkpt>
      <trkpt lat="44.33163" lon="3.75377">
        <ele>1090.788</ele>
        <time>2012-05-23T13:31:47Z</time>
      </trkpt>
      <trkpt lat="44.33144" lon="3.75398">
        <ele>1092.461</ele>
        <time>2012-05-23T13:32:09Z</time>
      </trkpt>
      <trkpt lat="44.33141" lon="3.75401">
        <ele>1092.732</ele>
        <time>2012-05-23T13:32:13Z</time>
      </trkpt>
      <trkpt lat="44.33129" lon="3.75409">
        <ele>1094.198</ele>
        <time>2012-05-23T13:32:26Z</time>
      </trkpt>
      <trkpt lat="44.33112" lon="3.75422">
        <ele>1097.434</ele>
        <time>2012-05-23T13:32:43Z</time>
      </trkpt>
      <trkpt lat="44.33096" lon="3.75431">
        <ele>1099.603</ele>
        <time>2012-05-23T13:33:00Z</time>
      </trkpt>
      <trkpt lat="44.33077" lon="3.75434">
        <ele>1101.572</ele>
        <time>2012-05-23T13:33:18Z</time>
      </trkpt>
      <trkpt lat="44.33071" lon="3.75434">
        <ele>1102.788</ele>
        <time>2012-05-23T13:33:24Z</time>
      </trkpt>
      <trkpt lat="44.33055" lon="3.75433">
        <ele>1106.202</ele>
        <time>2012-05-23T13:33:40Z</time>
      </trkpt>
      <trkpt lat="44.33043" lon="3.75431">
        <ele>1109.295</ele>
        <time>2012-05-23T13:33:53Z</time>
      </trkpt>
      <trkpt lat="44.33025" lon="3.75431">
        <ele>1111.198</ele>
        <time>2012-05-23T13:34:09Z</time>
      </trkpt>
      <trkpt lat="44.33022" lon="3.7543">
        <ele>1112.241</ele>
        <time>2012-05-23T13:34:12Z</time>
      </trkpt>
      <trkpt lat="44.33012" lon="3.75428">
        <ele>1114.189</ele>
        <time>2012-05-23T13:34:22Z</time>
      </trkpt>
      <trkpt lat="44.33001" lon="3.75425">
        <ele>1116.365</ele>
        <time>2012-05-23T13:34:34Z</time>
      </trkpt>
      <trkpt lat="44.32993" lon="3.75419">
        <ele>1118.214</ele>
        <time>2012-05-23T13:34:43Z</time>
      </trkpt>
      <trkpt lat="44.32982" lon="3.75411">
        <ele>1119.959</ele>
        <time>2012-05-23T13:34:55Z</time>
      </trkpt>
      <trkpt lat="44.3298" lon="3.7541">
        <ele>1120.457</ele>
        <time>2012-05-23T13:34:57Z</time>
      </trkpt>
      <trkpt lat="44.32969" lon="3.75403">
        <ele>1123.024</ele>
        <time>2012-05-23T13:35:10Z</time>
      </trkpt>
      <trkpt lat="44.32955" lon="3.75397">
        <ele>1126.379</ele>
        <time>2012-05-23T13:35:26Z</time>
      </trkpt>
      <trkpt lat="44.3295" lon="3.75385">
        <ele>1128.256</ele>
        <time>2012-05-23T13:35:36Z</time>
      </trkpt>
      <trkpt lat="44.32941" lon="3.75374">
        <ele>1130.807</ele>
        <time>2012-05-23T13:35:47Z</time>
      </trkpt>
      <trkpt lat="44.32934" lon="3.75359">
        <ele>1132.807</ele>
        <time>2012-05-23T13:36:00Z</time>
      </trkpt>
      <trkpt lat="44.32933" lon="3.75355">
        <ele>1132.914</ele>
        <time>2012-05-23T13:36:03Z</time>
      </trkpt>
      <trkpt lat="44.32931" lon="3.75348">
        <ele>1132.981</ele>
        <time>2012-05-23T13:36:08Z</time>
      </trkpt>
      <trkpt lat="44.32926" lon="3.75322">
        <ele>1135.156</ele>
        <time>2012-05-23T13:36:24Z</time>
      </trkpt>
      <trkpt lat="44.32924" lon="3.75318">
        <ele>1135.539</ele>
        <time>2012-05-23T13:36:27Z</time>
      </trkpt>
      <trkpt lat="44.32924" lon="3.75315">
        <ele>1135.303</ele>
        <time>2012-05-23T13:36:29Z</time>
      </trkpt>
      <trkpt lat="44.3292" lon="3.7531">
        <ele>1135.234</ele>
        <time>2012-05-23T13:36:33Z</time>
      </trkpt>
      <trkpt lat="44.32909" lon="3.75292">
        <ele>1136.811</ele>
        <time>2012-05-23T13:36:47Z</time>
      </trkpt>
      <trkpt lat="44.32905" lon="3.75286">
        <ele>1137.406</ele>
        <time>2012-05-23T13:36:52Z</time>
      </trkpt>
      <trkpt lat="44.32894" lon="3.75277">
        <ele>1138.832</ele>
        <time>2012-05-23T13:37:04Z</time>
      </trkpt>
      <trkpt lat="44.32884" lon="3.75267">
        <ele>1139.844</ele>
        <time>2012-05-23T13:37:21Z</time>
      </trkpt>
      <trkpt lat="44.3288" lon="3.75262">
        <ele>1139.374</ele>
        <time>2012-05-23T13:40:03Z</time>
      </trkpt>
      <trkpt lat="44.32878" lon="3.75257">
        <ele>1138.353</ele>
        <time>2012-05-23T13:42:00Z</time>
      </trkpt>
      <trkpt lat="44.32861" lon="3.75245">
        <ele>1137.579</ele>
        <time>2012-05-23T13:42:25Z</time>
      </trkpt>
      <trkpt lat="44.32836" lon="3.75231">
        <ele>1137.617</ele>
        <time>2012-05-23T13:42:50Z</time>
      </trkpt>
      <trkpt lat="44.32825" lon="3.75227">
        <ele>1138.147</ele>
        <time>2012-05-23T13:42:59Z</time>
      </trkpt>
      <trkpt lat="44.32818" lon="3.75227">
        <ele>1138.079</ele>
        <time>2012-05-23T13:43:04Z</time>
      </trkpt>
      <trkpt lat="44.32813" lon="3.75229">
        <ele>1138.459</ele>
        <time>2012-05-23T13:43:09Z</time>
      </trkpt>
      <trkpt lat="44.3281" lon="3.75231">
        <ele>1138.911</ele>
        <time>2012-05-23T13:43:13Z</time>
      </trkpt>
      <trkpt lat="44.32803" lon="3.75226">
        <ele>1138.877</ele>
        <time>2012-05-23T13:43:22Z</time>
      </trkpt>
      <trkpt lat="44.32798" lon="3.75226">
        <ele>1138.916</ele>
        <time>2012-05-23T13:43:28Z</time>
      </trkpt>
      <trkpt lat="44.32789" lon="3.75231">
        <ele>1138.574</ele>
        <time>2012-05-23T13:43:35Z</time>
      </trkpt>
      <trkpt lat="44.32771" lon="3.75229">
        <ele>1137.263</ele>
        <time>2012-05-23T13:43:50Z</time>
      </trkpt>
      <trkpt lat="44.32756" lon="3.75225">
        <ele>1137.844</ele>
        <time>2012-05-23T13:44:02Z</time>
      </trkpt>
      <trkpt lat="44.32741" lon="3.75216">
        <ele>1138.193</ele>
        <time>2012-05-23T13:44:17Z</time>
      </trkpt>
      <trkpt lat="44.3273" lon="3.75209">
        <ele>1138.521</ele>
        <time>2012-05-23T13:44:30Z</time>
      </trkpt>
      <trkpt lat="44.32716" lon="3.75196">
        <ele>1140.099</ele>
        <time>2012-05-23T13:44:47Z</time>
      </trkpt>
      <trkpt lat="44.32706" lon="3.75173">
        <ele>1140.79</ele>
        <time>2012-05-23T13:45:04Z</time>
      </trkpt>
      <trkpt lat="44.32704" lon="3.75163">
        <ele>1140.636</ele>
        <time>2012-05-23T13:45:11Z</time>
      </trkpt>
      <trkpt lat="44.32702" lon="3.75157">
        <ele>1140.576</ele>
        <time>2012-05-23T13:45:15Z</time>
      </trkpt>
      <trkpt lat="44.32694" lon="3.75134">
        <ele>1142.024</ele>
        <time>2012-05-23T13:45:31Z</time>
      </trkpt>
      <trkpt lat="44.32685" lon="3.75119">
        <ele>1143.232</ele>
        <time>2012-05-23T13:45:44Z</time>
      </trkpt>
      <trkpt lat="44.32685" lon="3.75116">
        <ele>1143.321</ele>
        <time>2012-05-23T13:45:46Z</time>
      </trkpt>
      <trkpt lat="44.3268" lon="3.7511">
        <ele>1143.794</ele>
        <time>2012-05-23T13:45:52Z</time>
      </trkpt>
      <trkpt lat="44.32675" lon="3.75097">
        <ele>1145.065</ele>
        <time>2012-05-23T13:46:02Z</time>
      </trkpt>
      <trkpt lat="44.32672" lon="3.75087">
        <ele>1145.677</ele>
        <time>2012-05-23T13:46:09Z</time>
      </trkpt>
      <trkpt lat="44.3266" lon="3.75075">
        <ele>1147.421</ele>
        <time>2012-05-23T13:46:24Z</time>
      </trkpt>
      <trkpt lat="44.32651" lon="3.75064">
        <ele>1148.464</ele>
        <time>2012-05-23T13:46:36Z</time>
      </trkpt>
      <trkpt lat="44.32637" lon="3.75053">
        <ele>1149.602</ele>
        <time>2012-05-23T13:46:50Z</time>
      </trkpt>
      <trkpt lat="44.32629" lon="3.75046">
        <ele>1150.565</ele>
        <time>2012-05-23T13:47:00Z</time>
      </trkpt>
      <trkpt lat="44.32622" lon="3.75039">
        <ele>1151.122</ele>
        <time>2012-05-23T13:47:08Z</time>
      </trkpt>
      <trkpt lat="44.32614" lon="3.75029">
        <ele>1151.581</ele>
        <time>2012-05-23T13:47:20Z</time>
      </trkpt>
      <trkpt lat="44.32613" lon="3.75026">
        <ele>1151.977</ele>
        <time>2012-05-23T13:47:23Z</time>
      </trkpt>
      <trkpt lat="44.32599" lon="3.75016">
        <ele>1152.844</ele>
        <time>2012-05-23T13:47:38Z</time>
      </trkpt>
      <trkpt lat="44.32588" lon="3.74999">
        <ele>1154.188</ele>
        <time>2012-05-23T13:47:55Z</time>
      </trkpt>
      <trkpt lat="44.32582" lon="3.74991">
        <ele>1154.521</ele>
        <time>2012-05-23T13:48:03Z</time>
      </trkpt>
      <trkpt lat="44.3258" lon="3.74985">
        <ele>1155.297</ele>
        <time>2012-05-23T13:48:07Z</time>
      </trkpt>
      <trkpt lat="44.32571" lon="3.74976">
        <ele>1156.167</ele>
        <time>2012-05-23T13:48:19Z</time>
      </trkpt>
      <trkpt lat="44.32569" lon="3.74971">
        <ele>1156.427</ele>
        <time>2012-05-23T13:48:23Z</time>
      </trkpt>
      <trkpt lat="44.32561" lon="3.74959">
        <ele>1157.402</ele>
        <time>2012-05-23T13:48:34Z</time>
      </trkpt>
      <trkpt lat="44.32556" lon="3.74952">
        <ele>1157.955</ele>
        <time>2012-05-23T13:48:40Z</time>
      </trkpt>
      <trkpt lat="44.32552" lon="3.74946">
        <ele>1158.686</ele>
        <time>2012-05-23T13:48:46Z</time>
      </trkpt>
      <trkpt lat="44.32539" lon="3.74934">
        <ele>1160.721</ele>
        <time>2012-05-23T13:49:03Z</time>
      </trkpt>
      <trkpt lat="44.32528" lon="3.74922">
        <ele>1162.216</ele>
        <time>2012-05-23T13:49:17Z</time>
      </trkpt>
      <trkpt lat="44.32519" lon="3.74912">
        <ele>1162.616</ele>
        <time>2012-05-23T13:49:29Z</time>
      </trkpt>
      <trkpt lat="44.32517" lon="3.7491">
        <ele>1163.7</ele>
        <time>2012-05-23T13:49:32Z</time>
      </trkpt>
      <trkpt lat="44.32513" lon="3.74908">
        <ele>1163.993</ele>
        <time>2012-05-23T13:49:36Z</time>
      </trkpt>
      <trkpt lat="44.32499" lon="3.74896">
        <ele>1165.772</ele>
        <time>2012-05-23T13:49:53Z</time>
      </trkpt>
      <trkpt lat="44.32498" lon="3.74895">
        <ele>1165.773</ele>
        <time>2012-05-23T13:49:54Z</time>
      </trkpt>
      <trkpt lat="44.32496" lon="3.74894">
        <ele>1166.345</ele>
        <time>2012-05-23T13:49:56Z</time>
      </trkpt>
      <trkpt lat="44.32491" lon="3.74888">
        <ele>1167.385</ele>
        <time>2012-05-23T13:50:04Z</time>
      </trkpt>
      <trkpt lat="44.32481" lon="3.74877">
        <ele>1169.595</ele>
        <time>2012-05-23T13:50:20Z</time>
      </trkpt>
      <trkpt lat="44.32471" lon="3.74867">
        <ele>1170.81</ele>
        <time>2012-05-23T13:50:31Z</time>
      </trkpt>
      <trkpt lat="44.32466" lon="3.7486">
        <ele>1171.801</ele>
        <time>2012-05-23T13:50:36Z</time>
      </trkpt>
      <trkpt lat="44.32463" lon="3.74858">
        <ele>1171.631</ele>
        <time>2012-05-23T13:50:39Z</time>
      </trkpt>
      <trkpt lat="44.32453" lon="3.74846">
        <ele>1173.252</ele>
        <time>2012-05-23T13:50:54Z</time>
      </trkpt>
      <trkpt lat="44.32444" lon="3.74834">
        <ele>1174.803</ele>
        <time>2012-05-23T13:51:08Z</time>
      </trkpt>
      <trkpt lat="44.32431" lon="3.7482">
        <ele>1175.677</ele>
        <time>2012-05-23T13:51:23Z</time>
      </trkpt>
      <trkpt lat="44.32429" lon="3.74817">
        <ele>1176.658</ele>
        <time>2012-05-23T13:51:26Z</time>
      </trkpt>
      <trkpt lat="44.3242" lon="3.74811">
        <ele>1177.181</ele>
        <time>2012-05-23T13:51:37Z</time>
      </trkpt>
      <trkpt lat="44.32413" lon="3.74805">
        <ele>1178.279</ele>
        <time>2012-05-23T13:51:46Z</time>
      </trkpt>
      <trkpt lat="44.32412" lon="3.74803">
        <ele>1178.619</ele>
        <time>2012-05-23T13:51:48Z</time>
      </trkpt>
      <trkpt lat="44.32409" lon="3.748">
        <ele>1179.336</ele>
        <time>2012-05-23T13:51:51Z</time>
      </trkpt>
      <trkpt lat="44.32403" lon="3.74795">
        <ele>1180.126</ele>
        <time>2012-05-23T13:51:59Z</time>
      </trkpt>
      <trkpt lat="44.32401" lon="3.74794">
        <ele>1180.332</ele>
        <time>2012-05-23T13:52:01Z</time>
      </trkpt>
      <trkpt lat="44.32395" lon="3.74788">
        <ele>1180.962</ele>
        <time>2012-05-23T13:52:09Z</time>
      </trkpt>
      <trkpt lat="44.32383" lon="3.74776">
        <ele>1182.899</ele>
        <time>2012-05-23T13:52:26Z</time>
      </trkpt>
      <trkpt lat="44.32372" lon="3.74765">
        <ele>1185.802</ele>
        <time>2012-05-23T13:52:43Z</time>
      </trkpt>
      <trkpt lat="44.32363" lon="3.74759">
        <ele>1186.807</ele>
        <time>2012-05-23T13:52:55Z</time>
      </trkpt>
      <trkpt lat="44.32353" lon="3.74753">
        <ele>1188.552</ele>
        <time>2012-05-23T13:53:07Z</time>
      </trkpt>
      <trkpt lat="44.3235" lon="3.74748">
        <ele>1188.758</ele>
        <time>2012-05-23T13:53:12Z</time>
      </trkpt>
      <trkpt lat="44.32344" lon="3.74748">
        <ele>1190.345</ele>
        <time>2012-05-23T13:53:18Z</time>
      </trkpt>
      <trkpt lat="44.32332" lon="3.74738">
        <ele>1191.67</ele>
        <time>2012-05-23T13:53:32Z</time>
      </trkpt>
      <trkpt lat="44.32326" lon="3.74734">
        <ele>1192.612</ele>
        <time>2012-05-23T13:53:39Z</time>
      </trkpt>
      <trkpt lat="44.32313" lon="3.74724">
        <ele>1194.27</ele>
        <time>2012-05-23T13:53:56Z</time>
      </trkpt>
      <trkpt lat="44.323" lon="3.74722">
        <ele>1196.848</ele>
        <time>2012-05-23T13:54:10Z</time>
      </trkpt>
      <trkpt lat="44.3229" lon="3.74723">
        <ele>1198.9</ele>
        <time>2012-05-23T13:54:23Z</time>
      </trkpt>
      <trkpt lat="44.32274" lon="3.74727">
        <ele>1200.052</ele>
        <time>2012-05-23T13:54:39Z</time>
      </trkpt>
      <trkpt lat="44.32271" lon="3.74727">
        <ele>1200.962</ele>
        <time>2012-05-23T13:54:42Z</time>
      </trkpt>
      <trkpt lat="44.32257" lon="3.74727">
        <ele>1202.413</ele>
        <time>2012-05-23T13:54:55Z</time>
      </trkpt>
      <trkpt lat="44.3224" lon="3.74735">
        <ele>1205.428</ele>
        <time>2012-05-23T13:55:14Z</time>
      </trkpt>
      <trkpt lat="44.32228" lon="3.74742">
        <ele>1206.256</ele>
        <time>2012-05-23T13:55:28Z</time>
      </trkpt>
      <trkpt lat="44.32225" lon="3.74743">
        <ele>1206.754</ele>
        <time>2012-05-23T13:55:31Z</time>
      </trkpt>
      <trkpt lat="44.32214" lon="3.74753">
        <ele>1208.145</ele>
        <time>2012-05-23T13:55:45Z</time>
      </trkpt>
      <trkpt lat="44.32206" lon="3.74759">
        <ele>1209.434</ele>
        <time>2012-05-23T13:55:54Z</time>
      </trkpt>
      <trkpt lat="44.32196" lon="3.74765">
        <ele>1209.809</ele>
        <time>2012-05-23T13:56:06Z</time>
      </trkpt>
      <trkpt lat="44.32194" lon="3.74767">
        <ele>1210.093</ele>
        <time>2012-05-23T13:56:08Z</time>
      </trkpt>
      <trkpt lat="44.32187" lon="3.74769">
        <ele>1211.392</ele>
        <time>2012-05-23T13:56:15Z</time>
      </trkpt>
      <trkpt lat="44.32175" lon="3.7478">
        <ele>1212.565</ele>
        <time>2012-05-23T13:56:30Z</time>
      </trkpt>
      <trkpt lat="44.32156" lon="3.74801">
        <ele>1213.815</ele>
        <time>2012-05-23T13:56:53Z</time>
      </trkpt>
      <trkpt lat="44.32147" lon="3.74812">
        <ele>1215.386</ele>
        <time>2012-05-23T13:57:04Z</time>
      </trkpt>
      <trkpt lat="44.32136" lon="3.74826">
        <ele>1217.306</ele>
        <time>2012-05-23T13:57:20Z</time>
      </trkpt>
      <trkpt lat="44.32132" lon="3.7483">
        <ele>1217.745</ele>
        <time>2012-05-23T13:57:24Z</time>
      </trkpt>
      <trkpt lat="44.32123" lon="3.74839">
        <ele>1219.894</ele>
        <time>2012-05-23T13:57:35Z</time>
      </trkpt>
      <trkpt lat="44.3212" lon="3.74844">
        <ele>1220.004</ele>
        <time>2012-05-23T13:57:40Z</time>
      </trkpt>
      <trkpt lat="44.32118" lon="3.74846">
        <ele>1220.042</ele>
        <time>2012-05-23T13:57:42Z</time>
      </trkpt>
      <trkpt lat="44.32112" lon="3.74852">
        <ele>1221.782</ele>
        <time>2012-05-23T13:57:52Z</time>
      </trkpt>
      <trkpt lat="44.3211" lon="3.74856">
        <ele>1222.183</ele>
        <time>2012-05-23T13:57:55Z</time>
      </trkpt>
      <trkpt lat="44.32108" lon="3.74858">
        <ele>1223.15</ele>
        <time>2012-05-23T13:57:58Z</time>
      </trkpt>
      <trkpt lat="44.32104" lon="3.74864">
        <ele>1223.553</ele>
        <time>2012-05-23T13:58:05Z</time>
      </trkpt>
      <trkpt lat="44.32094" lon="3.74876">
        <ele>1225.832</ele>
        <time>2012-05-23T13:58:19Z</time>
      </trkpt>
      <trkpt lat="44.32085" lon="3.74889">
        <ele>1227.867</ele>
        <time>2012-05-23T13:58:33Z</time>
      </trkpt>
      <trkpt lat="44.3208" lon="3.74895">
        <ele>1228.829</ele>
        <time>2012-05-23T13:58:41Z</time>
      </trkpt>
      <trkpt lat="44.32076" lon="3.749">
        <ele>1229.903</ele>
        <time>2012-05-23T13:58:46Z</time>
      </trkpt>
      <trkpt lat="44.32068" lon="3.74915">
        <ele>1231.157</ele>
        <time>2012-05-23T13:59:01Z</time>
      </trkpt>
      <trkpt lat="44.32066" lon="3.74918">
        <ele>1232.457</ele>
        <time>2012-05-23T13:59:05Z</time>
      </trkpt>
      <trkpt lat="44.32063" lon="3.74921">
        <ele>1233.362</ele>
        <time>2012-05-23T13:59:10Z</time>
      </trkpt>
      <trkpt lat="44.32061" lon="3.74926">
        <ele>1233.832</ele>
        <time>2012-05-23T13:59:15Z</time>
      </trkpt>
      <trkpt lat="44.32052" lon="3.74928">
        <ele>1235.089</ele>
        <time>2012-05-23T13:59:23Z</time>
      </trkpt>
      <trkpt lat="44.32048" lon="3.74935">
        <ele>1236.984</ele>
        <time>2012-05-23T13:59:34Z</time>
      </trkpt>
      <trkpt lat="44.32036" lon="3.74941">
        <ele>1240.047</ele>
        <time>2012-05-23T13:59:52Z</time>
      </trkpt>
      <trkpt lat="44.32028" lon="3.7494">
        <ele>1241.341</ele>
        <time>2012-05-23T14:00:01Z</time>
      </trkpt>
      <trkpt lat="44.32021" lon="3.74937">
        <ele>1242.04</ele>
        <time>2012-05-23T14:00:08Z</time>
      </trkpt>
      <trkpt lat="44.32018" lon="3.74938">
        <ele>1242.635</ele>
        <time>2012-05-23T14:00:11Z</time>
      </trkpt>
      <trkpt lat="44.32001" lon="3.74932">
        <ele>1245.402</ele>
        <time>2012-05-23T14:00:28Z</time>
      </trkpt>
      <trkpt lat="44.31994" lon="3.74931">
        <ele>1246.496</ele>
        <time>2012-05-23T14:00:35Z</time>
      </trkpt>
      <trkpt lat="44.31991" lon="3.74931">
        <ele>1246.461</ele>
        <time>2012-05-23T14:00:38Z</time>
      </trkpt>
      <trkpt lat="44.31982" lon="3.7492">
        <ele>1248.749</ele>
        <time>2012-05-23T14:00:49Z</time>
      </trkpt>
      <trkpt lat="44.31979" lon="3.7492">
        <ele>1248.744</ele>
        <time>2012-05-23T14:00:51Z</time>
      </trkpt>
      <trkpt lat="44.31971" lon="3.74907">
        <ele>1250.22</ele>
        <time>2012-05-23T14:01:02Z</time>
      </trkpt>
      <trkpt lat="44.31965" lon="3.74902">
        <ele>1251.268</ele>
        <time>2012-05-23T14:01:14Z</time>
      </trkpt>
      <trkpt lat="44.31959" lon="3.74888">
        <ele>1251.51</ele>
        <time>2012-05-23T14:01:30Z</time>
      </trkpt>
      <trkpt lat="44.31952" lon="3.74875">
        <ele>1251.3</ele>
        <time>2012-05-23T14:01:44Z</time>
      </trkpt>
      <trkpt lat="44.31943" lon="3.7487">
        <ele>1251.805</ele>
        <time>2012-05-23T14:01:53Z</time>
      </trkpt>
      <trkpt lat="44.3193" lon="3.74861">
        <ele>1250.861</ele>
        <time>2012-05-23T14:02:07Z</time>
      </trkpt>
      <trkpt lat="44.31924" lon="3.74858">
        <ele>1251.213</ele>
        <time>2012-05-23T14:02:16Z</time>
      </trkpt>
      <trkpt lat="44.3191" lon="3.74842">
        <ele>1252.671</ele>
        <time>2012-05-23T14:02:33Z</time>
      </trkpt>
      <trkpt lat="44.31902" lon="3.74825">
        <ele>1252.221</ele>
        <time>2012-05-23T14:02:46Z</time>
      </trkpt>
      <trkpt lat="44.31892" lon="3.74812">
        <ele>1255.267</ele>
        <time>2012-05-23T14:02:58Z</time>
      </trkpt>
      <trkpt lat="44.31886" lon="3.74801">
        <ele>1257.175</ele>
        <time>2012-05-23T14:03:13Z</time>
      </trkpt>
      <trkpt lat="44.31882" lon="3.74796">
        <ele>1257.833</ele>
        <time>2012-05-23T14:03:18Z</time>
      </trkpt>
      <trkpt lat="44.3188" lon="3.74795">
        <ele>1258.575</ele>
        <time>2012-05-23T14:03:20Z</time>
      </trkpt>
      <trkpt lat="44.31873" lon="3.74787">
        <ele>1259.48</ele>
        <time>2012-05-23T14:03:28Z</time>
      </trkpt>
      <trkpt lat="44.31865" lon="3.74777">
        <ele>1261.774</ele>
        <time>2012-05-23T14:03:41Z</time>
      </trkpt>
      <trkpt lat="44.31857" lon="3.74773">
        <ele>1262.655</ele>
        <time>2012-05-23T14:03:48Z</time>
      </trkpt>
      <trkpt lat="44.31852" lon="3.74767">
        <ele>1263.538</ele>
        <time>2012-05-23T14:03:53Z</time>
      </trkpt>
      <trkpt lat="44.31841" lon="3.7475">
        <ele>1265.89</ele>
        <time>2012-05-23T14:04:10Z</time>
      </trkpt>
      <trkpt lat="44.31831" lon="3.74736">
        <ele>1268.813</ele>
        <time>2012-05-23T14:04:26Z</time>
      </trkpt>
      <trkpt lat="44.3183" lon="3.74735">
        <ele>1268.622</ele>
        <time>2012-05-23T14:04:28Z</time>
      </trkpt>
      <trkpt lat="44.31824" lon="3.74723">
        <ele>1269.922</ele>
        <time>2012-05-23T14:04:38Z</time>
      </trkpt>
      <trkpt lat="44.31815" lon="3.74713">
        <ele>1272.108</ele>
        <time>2012-05-23T14:04:52Z</time>
      </trkpt>
      <trkpt lat="44.31808" lon="3.74706">
        <ele>1274.095</ele>
        <time>2012-05-23T14:05:02Z</time>
      </trkpt>
      <trkpt lat="44.31799" lon="3.74697">
        <ele>1277.017</ele>
        <time>2012-05-23T14:05:15Z</time>
      </trkpt>
      <trkpt lat="44.31792" lon="3.74694">
        <ele>1278.173</ele>
        <time>2012-05-23T14:05:25Z</time>
      </trkpt>
      <trkpt lat="44.31785" lon="3.74693">
        <ele>1280.154</ele>
        <time>2012-05-23T14:05:35Z</time>
      </trkpt>
      <trkpt lat="44.31773" lon="3.74689">
        <ele>1282.102</ele>
        <time>2012-05-23T14:05:48Z</time>
      </trkpt>
      <trkpt lat="44.31768" lon="3.74684">
        <ele>1284.197</ele>
        <time>2012-05-23T14:05:59Z</time>
      </trkpt>
      <trkpt lat="44.31757" lon="3.7467">
        <ele>1287.183</ele>
        <time>2012-05-23T14:06:14Z</time>
      </trkpt>
      <trkpt lat="44.3175" lon="3.74665">
        <ele>1288.917</ele>
        <time>2012-05-23T14:06:24Z</time>
      </trkpt>
      <trkpt lat="44.31742" lon="3.74658">
        <ele>1291.451</ele>
        <time>2012-05-23T14:06:37Z</time>
      </trkpt>
      <trkpt lat="44.31732" lon="3.74648">
        <ele>1292.944</ele>
        <time>2012-05-23T14:06:50Z</time>
      </trkpt>
      <trkpt lat="44.31726" lon="3.74641">
        <ele>1294.021</ele>
        <time>2012-05-23T14:06:57Z</time>
      </trkpt>
      <trkpt lat="44.31712" lon="3.74628">
        <ele>1295.813</ele>
        <time>2012-05-23T14:07:13Z</time>
      </trkpt>
      <trkpt lat="44.31706" lon="3.74621">
        <ele>1296.801</ele>
        <time>2012-05-23T14:07:21Z</time>
      </trkpt>
      <trkpt lat="44.31705" lon="3.7462">
        <ele>1296.606</ele>
        <time>2012-05-23T14:07:23Z</time>
      </trkpt>
      <trkpt lat="44.31704" lon="3.74618">
        <ele>1296.942</ele>
        <time>2012-05-23T14:07:25Z</time>
      </trkpt>
      <trkpt lat="44.31691" lon="3.74605">
        <ele>1298.003</ele>
        <time>2012-05-23T14:07:40Z</time>
      </trkpt>
      <trkpt lat="44.31687" lon="3.74604">
        <ele>1298.261</ele>
        <time>2012-05-23T14:07:44Z</time>
      </trkpt>
      <trkpt lat="44.31681" lon="3.74605">
        <ele>1298.065</ele>
        <time>2012-05-23T14:07:48Z</time>
      </trkpt>
      <trkpt lat="44.31679" lon="3.74604">
        <ele>1297.879</ele>
        <time>2012-05-23T14:07:50Z</time>
      </trkpt>
      <trkpt lat="44.3168" lon="3.74595">
        <ele>1298.088</ele>
        <time>2012-05-23T14:08:03Z</time>
      </trkpt>
      <trkpt lat="44.31679" lon="3.74584">
        <ele>1298.492</ele>
        <time>2012-05-23T14:15:38Z</time>
      </trkpt>
      <trkpt lat="44.31679" lon="3.74573">
        <ele>1302.979</ele>
        <time>2012-05-23T14:23:08Z</time>
      </trkpt>
      <trkpt lat="44.31679" lon="3.74564">
        <ele>1302.911</ele>
        <time>2012-05-23T14:23:20Z</time>
      </trkpt>
      <trkpt lat="44.31678" lon="3.74547">
        <ele>1304.114</ele>
        <time>2012-05-23T14:23:35Z</time>
      </trkpt>
      <trkpt lat="44.31677" lon="3.74532">
        <ele>1304.652</ele>
        <time>2012-05-23T14:23:47Z</time>
      </trkpt>
      <trkpt lat="44.31671" lon="3.74509">
        <ele>1304.799</ele>
        <time>2012-05-23T14:24:06Z</time>
      </trkpt>
      <trkpt lat="44.3166" lon="3.74486">
        <ele>1304.838</ele>
        <time>2012-05-23T14:24:27Z</time>
      </trkpt>
      <trkpt lat="44.3165" lon="3.74465">
        <ele>1305.989</ele>
        <time>2012-05-23T14:24:45Z</time>
      </trkpt>
      <trkpt lat="44.31641" lon="3.74439">
        <ele>1307.893</ele>
        <time>2012-05-23T14:25:05Z</time>
      </trkpt>
      <trkpt lat="44.31636" lon="3.74424">
        <ele>1308.217</ele>
        <time>2012-05-23T14:25:19Z</time>
      </trkpt>
      <trkpt lat="44.31632" lon="3.74414">
        <ele>1309.013</ele>
        <time>2012-05-23T14:25:29Z</time>
      </trkpt>
      <trkpt lat="44.31626" lon="3.74398">
        <ele>1310.144</ele>
        <time>2012-05-23T14:25:45Z</time>
      </trkpt>
      <trkpt lat="44.31623" lon="3.74383">
        <ele>1311.059</ele>
        <time>2012-05-23T14:25:57Z</time>
      </trkpt>
      <trkpt lat="44.31621" lon="3.74378">
        <ele>1312.113</ele>
        <time>2012-05-23T14:26:01Z</time>
      </trkpt>
      <trkpt lat="44.3162" lon="3.74373">
        <ele>1312.746</ele>
        <time>2012-05-23T14:26:05Z</time>
      </trkpt>
      <trkpt lat="44.31619" lon="3.74366">
        <ele>1312.973</ele>
        <time>2012-05-23T14:26:11Z</time>
      </trkpt>
      <trkpt lat="44.31619" lon="3.74362">
        <ele>1312.521</ele>
        <time>2012-05-23T14:26:13Z</time>
      </trkpt>
      <trkpt lat="44.31615" lon="3.74348">
        <ele>1312.911</ele>
        <time>2012-05-23T14:26:24Z</time>
      </trkpt>
      <trkpt lat="44.31609" lon="3.74333">
        <ele>1314.31</ele>
        <time>2012-05-23T14:26:35Z</time>
      </trkpt>
      <trkpt lat="44.31607" lon="3.74326">
        <ele>1314.319</ele>
        <time>2012-05-23T14:26:39Z</time>
      </trkpt>
      <trkpt lat="44.31606" lon="3.74323">
        <ele>1313.973</ele>
        <time>2012-05-23T14:26:42Z</time>
      </trkpt>
      <trkpt lat="44.31604" lon="3.74318">
        <ele>1314.736</ele>
        <time>2012-05-23T14:26:46Z</time>
      </trkpt>
      <trkpt lat="44.31602" lon="3.74312">
        <ele>1314.784</ele>
        <time>2012-05-23T14:26:51Z</time>
      </trkpt>
      <trkpt lat="44.31599" lon="3.7429">
        <ele>1315.623</ele>
        <time>2012-05-23T14:27:05Z</time>
      </trkpt>
      <trkpt lat="44.31598" lon="3.74282">
        <ele>1315.99</ele>
        <time>2012-05-23T14:27:11Z</time>
      </trkpt>
      <trkpt lat="44.31598" lon="3.74278">
        <ele>1316.105</ele>
        <time>2012-05-23T14:27:14Z</time>
      </trkpt>
      <trkpt lat="44.31598" lon="3.7426">
        <ele>1317.13</ele>
        <time>2012-05-23T14:27:26Z</time>
      </trkpt>
      <trkpt lat="44.31597" lon="3.74244">
        <ele>1317.696</ele>
        <time>2012-05-23T14:27:37Z</time>
      </trkpt>
      <trkpt lat="44.31593" lon="3.74229">
        <ele>1318.808</ele>
        <time>2012-05-23T14:27:48Z</time>
      </trkpt>
      <trkpt lat="44.31591" lon="3.7422">
        <ele>1319.233</ele>
        <time>2012-05-23T14:27:54Z</time>
      </trkpt>
      <trkpt lat="44.31587" lon="3.74199">
        <ele>1321.228</ele>
        <time>2012-05-23T14:28:10Z</time>
      </trkpt>
      <trkpt lat="44.31579" lon="3.7418">
        <ele>1321.611</ele>
        <time>2012-05-23T14:28:26Z</time>
      </trkpt>
      <trkpt lat="44.31578" lon="3.74176">
        <ele>1321.783</ele>
        <time>2012-05-23T14:28:30Z</time>
      </trkpt>
      <trkpt lat="44.31575" lon="3.74173">
        <ele>1322.512</ele>
        <time>2012-05-23T14:28:33Z</time>
      </trkpt>
      <trkpt lat="44.31575" lon="3.7417">
        <ele>1322.596</ele>
        <time>2012-05-23T14:28:35Z</time>
      </trkpt>
      <trkpt lat="44.3156" lon="3.74156">
        <ele>1323.585</ele>
        <time>2012-05-23T14:28:52Z</time>
      </trkpt>
      <trkpt lat="44.31556" lon="3.74152">
        <ele>1323.364</ele>
        <time>2012-05-23T14:28:58Z</time>
      </trkpt>
      <trkpt lat="44.3155" lon="3.74149">
        <ele>1323.701</ele>
        <time>2012-05-23T14:29:04Z</time>
      </trkpt>
      <trkpt lat="44.31546" lon="3.74143">
        <ele>1325.152</ele>
        <time>2012-05-23T14:29:10Z</time>
      </trkpt>
      <trkpt lat="44.31544" lon="3.74137">
        <ele>1325.613</ele>
        <time>2012-05-23T14:29:15Z</time>
      </trkpt>
      <trkpt lat="44.31546" lon="3.74126">
        <ele>1325.91</ele>
        <time>2012-05-23T14:29:24Z</time>
      </trkpt>
      <trkpt lat="44.31551" lon="3.74107">
        <ele>1328.332</ele>
        <time>2012-05-23T14:29:39Z</time>
      </trkpt>
      <trkpt lat="44.31553" lon="3.741">
        <ele>1329.579</ele>
        <time>2012-05-23T14:29:47Z</time>
      </trkpt>
      <trkpt lat="44.31549" lon="3.7409">
        <ele>1331.992</ele>
        <time>2012-05-23T14:29:57Z</time>
      </trkpt>
      <trkpt lat="44.31549" lon="3.74075">
        <ele>1334.533</ele>
        <time>2012-05-23T14:30:10Z</time>
      </trkpt>
      <trkpt lat="44.31551" lon="3.74071">
        <ele>1335.102</ele>
        <time>2012-05-23T14:30:14Z</time>
      </trkpt>
      <trkpt lat="44.3155" lon="3.74066">
        <ele>1336.313</ele>
        <time>2012-05-23T14:30:20Z</time>
      </trkpt>
      <trkpt lat="44.31553" lon="3.74057">
        <ele>1337.761</ele>
        <time>2012-05-23T14:30:25Z</time>
      </trkpt>
      <trkpt lat="44.3155" lon="3.74045">
        <ele>1339.57</ele>
        <time>2012-05-23T14:30:37Z</time>
      </trkpt>
      <trkpt lat="44.31549" lon="3.74031">
        <ele>1342.608</ele>
        <time>2012-05-23T14:30:52Z</time>
      </trkpt>
      <trkpt lat="44.31549" lon="3.74017">
        <ele>1345.021</ele>
        <time>2012-05-23T14:31:07Z</time>
      </trkpt>
      <trkpt lat="44.31545" lon="3.73998">
        <ele>1348.382</ele>
        <time>2012-05-23T14:31:22Z</time>
      </trkpt>
      <trkpt lat="44.31546" lon="3.73993">
        <ele>1348.745</ele>
        <time>2012-05-23T14:31:26Z</time>
      </trkpt>
      <trkpt lat="44.31543" lon="3.73985">
        <ele>1350.633</ele>
        <time>2012-05-23T14:31:36Z</time>
      </trkpt>
      <trkpt lat="44.31543" lon="3.73971">
        <ele>1353.75</ele>
        <time>2012-05-23T14:31:50Z</time>
      </trkpt>
      <trkpt lat="44.31541" lon="3.73963">
        <ele>1354.173</ele>
        <time>2012-05-23T14:31:56Z</time>
      </trkpt>
      <trkpt lat="44.31541" lon="3.73952">
        <ele>1356.299</ele>
        <time>2012-05-23T14:32:08Z</time>
      </trkpt>
      <trkpt lat="44.31539" lon="3.73936">
        <ele>1359.043</ele>
        <time>2012-05-23T14:32:22Z</time>
      </trkpt>
      <trkpt lat="44.31536" lon="3.73927">
        <ele>1360.62</ele>
        <time>2012-05-23T14:32:30Z</time>
      </trkpt>
      <trkpt lat="44.31532" lon="3.73916">
        <ele>1361.866</ele>
        <time>2012-05-23T14:32:39Z</time>
      </trkpt>
      <trkpt lat="44.31531" lon="3.73904">
        <ele>1363.704</ele>
        <time>2012-05-23T14:32:50Z</time>
      </trkpt>
      <trkpt lat="44.31529" lon="3.73897">
        <ele>1364.841</ele>
        <time>2012-05-23T14:32:57Z</time>
      </trkpt>
      <trkpt lat="44.31528" lon="3.73876">
        <ele>1367.878</ele>
        <time>2012-05-23T14:33:14Z</time>
      </trkpt>
      <trkpt lat="44.31524" lon="3.73864">
        <ele>1369.258</ele>
        <time>2012-05-23T14:33:25Z</time>
      </trkpt>
      <trkpt lat="44.31523" lon="3.73852">
        <ele>1370.75</ele>
        <time>2012-05-23T14:33:34Z</time>
      </trkpt>
      <trkpt lat="44.31522" lon="3.73847">
        <ele>1371.649</ele>
        <time>2012-05-23T14:33:38Z</time>
      </trkpt>
      <trkpt lat="44.31521" lon="3.73842">
        <ele>1372.733</ele>
        <time>2012-05-23T14:33:42Z</time>
      </trkpt>
      <trkpt lat="44.31518" lon="3.73827">
        <ele>1374.537</ele>
        <time>2012-05-23T14:33:55Z</time>
      </trkpt>
      <trkpt lat="44.31519" lon="3.7382">
        <ele>1375.337</ele>
        <time>2012-05-23T14:34:01Z</time>
      </trkpt>
      <trkpt lat="44.31518" lon="3.73817">
        <ele>1375.565</ele>
        <time>2012-05-23T14:34:04Z</time>
      </trkpt>
      <trkpt lat="44.31516" lon="3.73812">
        <ele>1376.357</ele>
        <time>2012-05-23T14:34:07Z</time>
      </trkpt>
      <trkpt lat="44.31513" lon="3.73805">
        <ele>1377.406</ele>
        <time>2012-05-23T14:34:13Z</time>
      </trkpt>
      <trkpt lat="44.31514" lon="3.73797">
        <ele>1378.271</ele>
        <time>2012-05-23T14:34:21Z</time>
      </trkpt>
      <trkpt lat="44.31513" lon="3.73782">
        <ele>1380.085</ele>
        <time>2012-05-23T14:34:31Z</time>
      </trkpt>
      <trkpt lat="44.31511" lon="3.7378">
        <ele>1379.929</ele>
        <time>2012-05-23T14:34:33Z</time>
      </trkpt>
      <trkpt lat="44.3151" lon="3.73777">
        <ele>1380.392</ele>
        <time>2012-05-23T14:34:35Z</time>
      </trkpt>
      <trkpt lat="44.31509" lon="3.73768">
        <ele>1381.683</ele>
        <time>2012-05-23T14:34:42Z</time>
      </trkpt>
      <trkpt lat="44.31506" lon="3.73765">
        <ele>1382.446</ele>
        <time>2012-05-23T14:34:45Z</time>
      </trkpt>
      <trkpt lat="44.31506" lon="3.73748">
        <ele>1383.904</ele>
        <time>2012-05-23T14:34:57Z</time>
      </trkpt>
      <trkpt lat="44.31507" lon="3.73746">
        <ele>1383.816</ele>
        <time>2012-05-23T14:34:59Z</time>
      </trkpt>
      <trkpt lat="44.31506" lon="3.73743">
        <ele>1385.102</ele>
        <time>2012-05-23T14:35:02Z</time>
      </trkpt>
      <trkpt lat="44.31505" lon="3.73737">
        <ele>1385.375</ele>
        <time>2012-05-23T14:35:07Z</time>
      </trkpt>
      <trkpt lat="44.31502" lon="3.73723">
        <ele>1386.794</ele>
        <time>2012-05-23T14:35:19Z</time>
      </trkpt>
      <trkpt lat="44.31498" lon="3.73709">
        <ele>1387.917</ele>
        <time>2012-05-23T14:35:29Z</time>
      </trkpt>
      <trkpt lat="44.31497" lon="3.73701">
        <ele>1389.008</ele>
        <time>2012-05-23T14:35:35Z</time>
      </trkpt>
      <trkpt lat="44.31497" lon="3.73687">
        <ele>1390.69</ele>
        <time>2012-05-23T14:35:47Z</time>
      </trkpt>
      <trkpt lat="44.31498" lon="3.7368">
        <ele>1391.54</ele>
        <time>2012-05-23T14:35:52Z</time>
      </trkpt>
      <trkpt lat="44.31504" lon="3.73663">
        <ele>1391.29</ele>
        <time>2012-05-23T14:36:11Z</time>
      </trkpt>
      <trkpt lat="44.31506" lon="3.73659">
        <ele>1399.143</ele>
        <time>2012-05-23T14:39:04Z</time>
      </trkpt>
      <trkpt lat="44.3151" lon="3.73656">
        <ele>1397.627</ele>
        <time>2012-05-23T14:40:04Z</time>
      </trkpt>
      <trkpt lat="44.31513" lon="3.73652">
        <ele>1398.052</ele>
        <time>2012-05-23T14:40:24Z</time>
      </trkpt>
      <trkpt lat="44.31521" lon="3.73644">
        <ele>1397.899</ele>
        <time>2012-05-23T14:40:38Z</time>
      </trkpt>
      <trkpt lat="44.31535" lon="3.73629">
        <ele>1396.464</ele>
        <time>2012-05-23T14:40:56Z</time>
      </trkpt>
      <trkpt lat="44.3155" lon="3.73612">
        <ele>1393.91</ele>
        <time>2012-05-23T14:41:13Z</time>
      </trkpt>
      <trkpt lat="44.31561" lon="3.73597">
        <ele>1392.039</ele>
        <time>2012-05-23T14:41:30Z</time>
      </trkpt>
      <trkpt lat="44.31573" lon="3.73583">
        <ele>1388.866</ele>
        <time>2012-05-23T14:41:47Z</time>
      </trkpt>
      <trkpt lat="44.31573" lon="3.73582">
        <ele>1388.829</ele>
        <time>2012-05-23T14:41:48Z</time>
      </trkpt>
      <trkpt lat="44.31581" lon="3.73573">
        <ele>1386.809</ele>
        <time>2012-05-23T14:42:11Z</time>
      </trkpt>
      <trkpt lat="44.31589" lon="3.73562">
        <ele>1385.06</ele>
        <time>2012-05-23T14:42:33Z</time>
      </trkpt>
      <trkpt lat="44.31599" lon="3.73548">
        <ele>1381.946</ele>
        <time>2012-05-23T14:42:47Z</time>
      </trkpt>
      <trkpt lat="44.31605" lon="3.73537">
        <ele>1381.63</ele>
        <time>2012-05-23T14:42:56Z</time>
      </trkpt>
      <trkpt lat="44.31619" lon="3.73518">
        <ele>1377.844</ele>
        <time>2012-05-23T14:43:14Z</time>
      </trkpt>
      <trkpt lat="44.31635" lon="3.73492">
        <ele>1376.405</ele>
        <time>2012-05-23T14:43:36Z</time>
      </trkpt>
      <trkpt lat="44.3164" lon="3.73468">
        <ele>1375.319</ele>
        <time>2012-05-23T14:43:58Z</time>
      </trkpt>
      <trkpt lat="44.3164" lon="3.73464">
        <ele>1374.652</ele>
        <time>2012-05-23T14:44:37Z</time>
      </trkpt>
      <trkpt lat="44.31644" lon="3.73457">
        <ele>1374.653</ele>
        <time>2012-05-23T14:44:50Z</time>
      </trkpt>
      <trkpt lat="44.31645" lon="3.73441">
        <ele>1374.339</ele>
        <time>2012-05-23T14:45:01Z</time>
      </trkpt>
      <trkpt lat="44.3165" lon="3.73417">
        <ele>1373.635</ele>
        <time>2012-05-23T14:45:21Z</time>
      </trkpt>
      <trkpt lat="44.31657" lon="3.7339">
        <ele>1373.076</ele>
        <time>2012-05-23T14:45:41Z</time>
      </trkpt>
      <trkpt lat="44.31659" lon="3.73364">
        <ele>1371.725</ele>
        <time>2012-05-23T14:45:59Z</time>
      </trkpt>
      <trkpt lat="44.3166" lon="3.73354">
        <ele>1372.295</ele>
        <time>2012-05-23T14:46:07Z</time>
      </trkpt>
      <trkpt lat="44.31666" lon="3.73324">
        <ele>1371.029</ele>
        <time>2012-05-23T14:46:28Z</time>
      </trkpt>
      <trkpt lat="44.31668" lon="3.73299">
        <ele>1371.161</ele>
        <time>2012-05-23T14:46:47Z</time>
      </trkpt>
      <trkpt lat="44.31672" lon="3.73287">
        <ele>1372.318</ele>
        <time>2012-05-23T14:47:00Z</time>
      </trkpt>
      <trkpt lat="44.31676" lon="3.73257">
        <ele>1373.082</ele>
        <time>2012-05-23T14:47:23Z</time>
      </trkpt>
      <trkpt lat="44.3168" lon="3.7323">
        <ele>1373.795</ele>
        <time>2012-05-23T14:47:43Z</time>
      </trkpt>
      <trkpt lat="44.31683" lon="3.73204">
        <ele>1375.071</ele>
        <time>2012-05-23T14:48:02Z</time>
      </trkpt>
      <trkpt lat="44.31687" lon="3.73182">
        <ele>1377.152</ele>
        <time>2012-05-23T14:48:19Z</time>
      </trkpt>
      <trkpt lat="44.31687" lon="3.73179">
        <ele>1376.741</ele>
        <time>2012-05-23T14:48:56Z</time>
      </trkpt>
      <trkpt lat="44.31691" lon="3.73159">
        <ele>1376.834</ele>
        <time>2012-05-23T14:49:09Z</time>
      </trkpt>
      <trkpt lat="44.31694" lon="3.73128">
        <ele>1377.072</ele>
        <time>2012-05-23T14:49:30Z</time>
      </trkpt>
      <trkpt lat="44.31694" lon="3.73098">
        <ele>1377.755</ele>
        <time>2012-05-23T14:49:48Z</time>
      </trkpt>
      <trkpt lat="44.31693" lon="3.73089">
        <ele>1378.44</ele>
        <time>2012-05-23T14:49:54Z</time>
      </trkpt>
      <trkpt lat="44.31696" lon="3.73057">
        <ele>1380.26</ele>
        <time>2012-05-23T14:50:17Z</time>
      </trkpt>
      <trkpt lat="44.317" lon="3.73031">
        <ele>1383.005</ele>
        <time>2012-05-23T14:50:38Z</time>
      </trkpt>
      <trkpt lat="44.31701" lon="3.73018">
        <ele>1386.205</ele>
        <time>2012-05-23T14:50:51Z</time>
      </trkpt>
      <trkpt lat="44.31703" lon="3.73004">
        <ele>1389.212</ele>
        <time>2012-05-23T14:51:06Z</time>
      </trkpt>
      <trkpt lat="44.31706" lon="3.72987">
        <ele>1392.906</ele>
        <time>2012-05-23T14:51:23Z</time>
      </trkpt>
      <trkpt lat="44.3171" lon="3.72959">
        <ele>1395.205</ele>
        <time>2012-05-23T14:51:47Z</time>
      </trkpt>
      <trkpt lat="44.31716" lon="3.72942">
        <ele>1397.376</ele>
        <time>2012-05-23T14:52:02Z</time>
      </trkpt>
      <trkpt lat="44.31727" lon="3.72917">
        <ele>1400.531</ele>
        <time>2012-05-23T14:52:23Z</time>
      </trkpt>
      <trkpt lat="44.31738" lon="3.72891">
        <ele>1402.872</ele>
        <time>2012-05-23T14:52:46Z</time>
      </trkpt>
      <trkpt lat="44.31746" lon="3.72868">
        <ele>1405.567</ele>
        <time>2012-05-23T14:53:06Z</time>
      </trkpt>
      <trkpt lat="44.31755" lon="3.72838">
        <ele>1408.681</ele>
        <time>2012-05-23T14:53:28Z</time>
      </trkpt>
      <trkpt lat="44.31762" lon="3.72813">
        <ele>1409.612</ele>
        <time>2012-05-23T14:53:47Z</time>
      </trkpt>
      <trkpt lat="44.31764" lon="3.72804">
        <ele>1412.726</ele>
        <time>2012-05-23T14:53:54Z</time>
      </trkpt>
      <trkpt lat="44.31765" lon="3.72771">
        <ele>1412.904</ele>
        <time>2012-05-23T14:54:16Z</time>
      </trkpt>
      <trkpt lat="44.31765" lon="3.72742">
        <ele>1414.915</ele>
        <time>2012-05-23T14:54:35Z</time>
      </trkpt>
      <trkpt lat="44.31763" lon="3.72724">
        <ele>1415.627</ele>
        <time>2012-05-23T14:54:48Z</time>
      </trkpt>
      <trkpt lat="44.31753" lon="3.72721">
        <ele>1417.113</ele>
        <time>2012-05-23T14:54:59Z</time>
      </trkpt>
      <trkpt lat="44.3174" lon="3.72706">
        <ele>1418.021</ele>
        <time>2012-05-23T14:55:15Z</time>
      </trkpt>
      <trkpt lat="44.31736" lon="3.72672">
        <ele>1418.318</ele>
        <time>2012-05-23T14:55:37Z</time>
      </trkpt>
      <trkpt lat="44.31735" lon="3.72638">
        <ele>1418.157</ele>
        <time>2012-05-23T14:56:01Z</time>
      </trkpt>
      <trkpt lat="44.31734" lon="3.72607">
        <ele>1419.844</ele>
        <time>2012-05-23T14:56:23Z</time>
      </trkpt>
      <trkpt lat="44.31735" lon="3.72603">
        <ele>1420.063</ele>
        <time>2012-05-23T14:56:26Z</time>
      </trkpt>
      <trkpt lat="44.31737" lon="3.72599">
        <ele>1420.687</ele>
        <time>2012-05-23T14:59:18Z</time>
      </trkpt>
      <trkpt lat="44.31738" lon="3.72589">
        <ele>1420.538</ele>
        <time>2012-05-23T14:59:41Z</time>
      </trkpt>
      <trkpt lat="44.31736" lon="3.72579">
        <ele>1420.441</ele>
        <time>2012-05-23T14:59:56Z</time>
      </trkpt>
      <trkpt lat="44.31735" lon="3.72555">
        <ele>1417.444</ele>
        <time>2012-05-23T15:00:18Z</time>
      </trkpt>
      <trkpt lat="44.31734" lon="3.72537">
        <ele>1418.988</ele>
        <time>2012-05-23T15:00:31Z</time>
      </trkpt>
      <trkpt lat="44.31729" lon="3.72501">
        <ele>1417.578</ele>
        <time>2012-05-23T15:00:58Z</time>
      </trkpt>
      <trkpt lat="44.31726" lon="3.72491">
        <ele>1416.638</ele>
        <time>2012-05-23T15:01:12Z</time>
      </trkpt>
      <trkpt lat="44.31719" lon="3.72464">
        <ele>1414.749</ele>
        <time>2012-05-23T15:01:32Z</time>
      </trkpt>
      <trkpt lat="44.31713" lon="3.72441">
        <ele>1412.78</ele>
        <time>2012-05-23T15:01:47Z</time>
      </trkpt>
      <trkpt lat="44.31708" lon="3.72411">
        <ele>1410.526</ele>
        <time>2012-05-23T15:02:08Z</time>
      </trkpt>
      <trkpt lat="44.31698" lon="3.72374">
        <ele>1408.884</ele>
        <time>2012-05-23T15:02:33Z</time>
      </trkpt>
      <trkpt lat="44.31692" lon="3.7235">
        <ele>1408.048</ele>
        <time>2012-05-23T15:02:49Z</time>
      </trkpt>
      <trkpt lat="44.31685" lon="3.72322">
        <ele>1407.391</ele>
        <time>2012-05-23T15:03:08Z</time>
      </trkpt>
      <trkpt lat="44.31674" lon="3.723">
        <ele>1407.818</ele>
        <time>2012-05-23T15:03:25Z</time>
      </trkpt>
      <trkpt lat="44.31673" lon="3.72276">
        <ele>1406.072</ele>
        <time>2012-05-23T15:03:41Z</time>
      </trkpt>
      <trkpt lat="44.31674" lon="3.7226">
        <ele>1403.695</ele>
        <time>2012-05-23T15:03:52Z</time>
      </trkpt>
      <trkpt lat="44.31673" lon="3.72252">
        <ele>1403.998</ele>
        <time>2012-05-23T15:03:57Z</time>
      </trkpt>
      <trkpt lat="44.31673" lon="3.72246">
        <ele>1405.712</ele>
        <time>2012-05-23T15:04:01Z</time>
      </trkpt>
      <trkpt lat="44.31673" lon="3.72237">
        <ele>1403.977</ele>
        <time>2012-05-23T15:04:06Z</time>
      </trkpt>
      <trkpt lat="44.31672" lon="3.72229">
        <ele>1402.793</ele>
        <time>2012-05-23T15:04:11Z</time>
      </trkpt>
      <trkpt lat="44.31669" lon="3.72208">
        <ele>1399.663</ele>
        <time>2012-05-23T15:04:26Z</time>
      </trkpt>
      <trkpt lat="44.31668" lon="3.72176">
        <ele>1397.128</ele>
        <time>2012-05-23T15:04:47Z</time>
      </trkpt>
      <trkpt lat="44.31669" lon="3.72174">
        <ele>1396.678</ele>
        <time>2012-05-23T15:04:49Z</time>
      </trkpt>
      <trkpt lat="44.31671" lon="3.72136">
        <ele>1395.008</ele>
        <time>2012-05-23T15:05:14Z</time>
      </trkpt>
      <trkpt lat="44.31672" lon="3.72111">
        <ele>1391.628</ele>
        <time>2012-05-23T15:05:31Z</time>
      </trkpt>
      <trkpt lat="44.31673" lon="3.72081">
        <ele>1390.021</ele>
        <time>2012-05-23T15:05:51Z</time>
      </trkpt>
      <trkpt lat="44.31678" lon="3.72044">
        <ele>1387.534</ele>
        <time>2012-05-23T15:06:16Z</time>
      </trkpt>
      <trkpt lat="44.3169" lon="3.72012">
        <ele>1385.53</ele>
        <time>2012-05-23T15:06:38Z</time>
      </trkpt>
      <trkpt lat="44.31691" lon="3.72008">
        <ele>1383.917</ele>
        <time>2012-05-23T15:06:41Z</time>
      </trkpt>
      <trkpt lat="44.31696" lon="3.71999">
        <ele>1382.541</ele>
        <time>2012-05-23T15:06:51Z</time>
      </trkpt>
      <trkpt lat="44.31698" lon="3.71996">
        <ele>1383.639</ele>
        <time>2012-05-23T15:07:08Z</time>
      </trkpt>
      <trkpt lat="44.31705" lon="3.71985">
        <ele>1382.161</ele>
        <time>2012-05-23T15:07:26Z</time>
      </trkpt>
      <trkpt lat="44.3172" lon="3.71957">
        <ele>1378.931</ele>
        <time>2012-05-23T15:07:50Z</time>
      </trkpt>
      <trkpt lat="44.3173" lon="3.7194">
        <ele>1376.462</ele>
        <time>2012-05-23T15:08:03Z</time>
      </trkpt>
      <trkpt lat="44.31744" lon="3.71918">
        <ele>1373.053</ele>
        <time>2012-05-23T15:08:20Z</time>
      </trkpt>
      <trkpt lat="44.31758" lon="3.71893">
        <ele>1369.051</ele>
        <time>2012-05-23T15:08:38Z</time>
      </trkpt>
      <trkpt lat="44.3177" lon="3.7187">
        <ele>1366.042</ele>
        <time>2012-05-23T15:08:55Z</time>
      </trkpt>
      <trkpt lat="44.31782" lon="3.71852">
        <ele>1362.805</ele>
        <time>2012-05-23T15:09:09Z</time>
      </trkpt>
      <trkpt lat="44.31788" lon="3.71842">
        <ele>1361.537</ele>
        <time>2012-05-23T15:09:17Z</time>
      </trkpt>
      <trkpt lat="44.31798" lon="3.71825">
        <ele>1358.158</ele>
        <time>2012-05-23T15:09:31Z</time>
      </trkpt>
      <trkpt lat="44.31808" lon="3.71806">
        <ele>1354.879</ele>
        <time>2012-05-23T15:09:43Z</time>
      </trkpt>
      <trkpt lat="44.31824" lon="3.71793">
        <ele>1351.129</ele>
        <time>2012-05-23T15:10:00Z</time>
      </trkpt>
      <trkpt lat="44.31827" lon="3.71791">
        <ele>1350.489</ele>
        <time>2012-05-23T15:10:03Z</time>
      </trkpt>
      <trkpt lat="44.3183" lon="3.71784">
        <ele>1348.505</ele>
        <time>2012-05-23T15:10:09Z</time>
      </trkpt>
      <trkpt lat="44.31841" lon="3.71775">
        <ele>1344.972</ele>
        <time>2012-05-23T15:10:20Z</time>
      </trkpt>
      <trkpt lat="44.31845" lon="3.71772">
        <ele>1343.261</ele>
        <time>2012-05-23T15:10:25Z</time>
      </trkpt>
      <trkpt lat="44.3185" lon="3.71767">
        <ele>1341.269</ele>
        <time>2012-05-23T15:10:31Z</time>
      </trkpt>
      <trkpt lat="44.31853" lon="3.71765">
        <ele>1340.222</ele>
        <time>2012-05-23T15:10:34Z</time>
      </trkpt>
      <trkpt lat="44.31855" lon="3.71764">
        <ele>1339.792</ele>
        <time>2012-05-23T15:10:36Z</time>
      </trkpt>
      <trkpt lat="44.31861" lon="3.71757">
        <ele>1337.463</ele>
        <time>2012-05-23T15:10:43Z</time>
      </trkpt>
      <trkpt lat="44.31872" lon="3.71745">
        <ele>1334.067</ele>
        <time>2012-05-23T15:11:00Z</time>
      </trkpt>
      <trkpt lat="44.31878" lon="3.7174">
        <ele>1332.167</ele>
        <time>2012-05-23T15:11:13Z</time>
      </trkpt>
      <trkpt lat="44.31888" lon="3.71731">
        <ele>1328.933</ele>
        <time>2012-05-23T15:11:25Z</time>
      </trkpt>
      <trkpt lat="44.31901" lon="3.7172">
        <ele>1326.266</ele>
        <time>2012-05-23T15:11:49Z</time>
      </trkpt>
      <trkpt lat="44.31908" lon="3.71713">
        <ele>1323.223</ele>
        <time>2012-05-23T15:11:57Z</time>
      </trkpt>
      <trkpt lat="44.31919" lon="3.717">
        <ele>1320.014</ele>
        <time>2012-05-23T15:12:12Z</time>
      </trkpt>
      <trkpt lat="44.31922" lon="3.71699">
        <ele>1319.132</ele>
        <time>2012-05-23T15:12:16Z</time>
      </trkpt>
      <trkpt lat="44.31923" lon="3.71697">
        <ele>1318.936</ele>
        <time>2012-05-23T15:12:18Z</time>
      </trkpt>
      <trkpt lat="44.31931" lon="3.71689">
        <ele>1316.833</ele>
        <time>2012-05-23T15:12:28Z</time>
      </trkpt>
      <trkpt lat="44.31944" lon="3.71675">
        <ele>1313.412</ele>
        <time>2012-05-23T15:12:42Z</time>
      </trkpt>
      <trkpt lat="44.31948" lon="3.71672">
        <ele>1313.05</ele>
        <time>2012-05-23T15:12:46Z</time>
      </trkpt>
      <trkpt lat="44.3195" lon="3.71669">
        <ele>1311.409</ele>
        <time>2012-05-23T15:12:49Z</time>
      </trkpt>
      <trkpt lat="44.31964" lon="3.71659">
        <ele>1308.405</ele>
        <time>2012-05-23T15:13:05Z</time>
      </trkpt>
      <trkpt lat="44.31976" lon="3.71647">
        <ele>1305.27</ele>
        <time>2012-05-23T15:13:19Z</time>
      </trkpt>
      <trkpt lat="44.31992" lon="3.71632">
        <ele>1302.263</ele>
        <time>2012-05-23T15:13:35Z</time>
      </trkpt>
      <trkpt lat="44.31994" lon="3.71628">
        <ele>1302.188</ele>
        <time>2012-05-23T15:13:38Z</time>
      </trkpt>
      <trkpt lat="44.31995" lon="3.71614">
        <ele>1301.097</ele>
        <time>2012-05-23T15:14:00Z</time>
      </trkpt>
      <trkpt lat="44.31994" lon="3.7161">
        <ele>1299.007</ele>
        <time>2012-05-23T15:15:54Z</time>
      </trkpt>
      <trkpt lat="44.31982" lon="3.7159">
        <ele>1298.261</ele>
        <time>2012-05-23T15:16:13Z</time>
      </trkpt>
      <trkpt lat="44.31972" lon="3.71575">
        <ele>1296.969</ele>
        <time>2012-05-23T15:16:29Z</time>
      </trkpt>
      <trkpt lat="44.31955" lon="3.7155">
        <ele>1294.349</ele>
        <time>2012-05-23T15:16:51Z</time>
      </trkpt>
      <trkpt lat="44.31944" lon="3.71535">
        <ele>1292.809</ele>
        <time>2012-05-23T15:17:01Z</time>
      </trkpt>
      <trkpt lat="44.31942" lon="3.71533">
        <ele>1292.847</ele>
        <time>2012-05-23T15:17:03Z</time>
      </trkpt>
      <trkpt lat="44.31931" lon="3.71516">
        <ele>1289.628</ele>
        <time>2012-05-23T15:17:19Z</time>
      </trkpt>
      <trkpt lat="44.31927" lon="3.71508">
        <ele>1288.523</ele>
        <time>2012-05-23T15:17:24Z</time>
      </trkpt>
      <trkpt lat="44.31926" lon="3.71502">
        <ele>1288.161</ele>
        <time>2012-05-23T15:17:27Z</time>
      </trkpt>
      <trkpt lat="44.31915" lon="3.71483">
        <ele>1285.848</ele>
        <time>2012-05-23T15:17:43Z</time>
      </trkpt>
      <trkpt lat="44.31913" lon="3.71474">
        <ele>1284.89</ele>
        <time>2012-05-23T15:17:48Z</time>
      </trkpt>
      <trkpt lat="44.31915" lon="3.71455">
        <ele>1282.41</ele>
        <time>2012-05-23T15:18:02Z</time>
      </trkpt>
      <trkpt lat="44.31913" lon="3.71441">
        <ele>1281.098</ele>
        <time>2012-05-23T15:18:10Z</time>
      </trkpt>
      <trkpt lat="44.3191" lon="3.71425">
        <ele>1278.968</ele>
        <time>2012-05-23T15:18:22Z</time>
      </trkpt>
      <trkpt lat="44.31904" lon="3.71412">
        <ele>1277.317</ele>
        <time>2012-05-23T15:18:35Z</time>
      </trkpt>
      <trkpt lat="44.319" lon="3.71405">
        <ele>1276.197</ele>
        <time>2012-05-23T15:18:42Z</time>
      </trkpt>
      <trkpt lat="44.31899" lon="3.71402">
        <ele>1275.734</ele>
        <time>2012-05-23T15:18:44Z</time>
      </trkpt>
      <trkpt lat="44.319" lon="3.71395">
        <ele>1274.739</ele>
        <time>2012-05-23T15:18:48Z</time>
      </trkpt>
      <trkpt lat="44.31897" lon="3.71386">
        <ele>1274.144</ele>
        <time>2012-05-23T15:18:53Z</time>
      </trkpt>
      <trkpt lat="44.31896" lon="3.71381">
        <ele>1273.187</ele>
        <time>2012-05-23T15:18:56Z</time>
      </trkpt>
      <trkpt lat="44.31895" lon="3.71377">
        <ele>1272.46</ele>
        <time>2012-05-23T15:18:59Z</time>
      </trkpt>
      <trkpt lat="44.31892" lon="3.71373">
        <ele>1271.828</ele>
        <time>2012-05-23T15:19:04Z</time>
      </trkpt>
      <trkpt lat="44.31891" lon="3.71362">
        <ele>1270.787</ele>
        <time>2012-05-23T15:19:10Z</time>
      </trkpt>
      <trkpt lat="44.31888" lon="3.7134">
        <ele>1268.075</ele>
        <time>2012-05-23T15:19:25Z</time>
      </trkpt>
      <trkpt lat="44.31886" lon="3.71331">
        <ele>1267.606</ele>
        <time>2012-05-23T15:19:30Z</time>
      </trkpt>
      <trkpt lat="44.31885" lon="3.71326">
        <ele>1267.279</ele>
        <time>2012-05-23T15:19:33Z</time>
      </trkpt>
      <trkpt lat="44.31882" lon="3.71308">
        <ele>1265.017</ele>
        <time>2012-05-23T15:19:45Z</time>
      </trkpt>
      <trkpt lat="44.31882" lon="3.713">
        <ele>1263.91</ele>
        <time>2012-05-23T15:19:50Z</time>
      </trkpt>
      <trkpt lat="44.31884" lon="3.71293">
        <ele>1263.032</ele>
        <time>2012-05-23T15:19:55Z</time>
      </trkpt>
      <trkpt lat="44.31881" lon="3.71273">
        <ele>1261.347</ele>
        <time>2012-05-23T15:20:07Z</time>
      </trkpt>
      <trkpt lat="44.31881" lon="3.71252">
        <ele>1258.323</ele>
        <time>2012-05-23T15:20:20Z</time>
      </trkpt>
      <trkpt lat="44.3188" lon="3.71249">
        <ele>1258.314</ele>
        <time>2012-05-23T15:20:22Z</time>
      </trkpt>
      <trkpt lat="44.31877" lon="3.71218">
        <ele>1255.202</ele>
        <time>2012-05-23T15:20:41Z</time>
      </trkpt>
      <trkpt lat="44.31873" lon="3.71199">
        <ele>1252.218</ele>
        <time>2012-05-23T15:20:54Z</time>
      </trkpt>
      <trkpt lat="44.31873" lon="3.71196">
        <ele>1252.2</ele>
        <time>2012-05-23T15:20:56Z</time>
      </trkpt>
      <trkpt lat="44.31871" lon="3.71189">
        <ele>1251.59</ele>
        <time>2012-05-23T15:21:00Z</time>
      </trkpt>
      <trkpt lat="44.31862" lon="3.71167">
        <ele>1248.844</ele>
        <time>2012-05-23T15:21:15Z</time>
      </trkpt>
      <trkpt lat="44.31868" lon="3.71149">
        <ele>1245.548</ele>
        <time>2012-05-23T15:21:32Z</time>
      </trkpt>
      <trkpt lat="44.31871" lon="3.7114">
        <ele>1244.695</ele>
        <time>2012-05-23T15:21:39Z</time>
      </trkpt>
      <trkpt lat="44.31872" lon="3.7112">
        <ele>1241.178</ele>
        <time>2012-05-23T15:21:52Z</time>
      </trkpt>
      <trkpt lat="44.31872" lon="3.71101">
        <ele>1238.278</ele>
        <time>2012-05-23T15:22:06Z</time>
      </trkpt>
      <trkpt lat="44.31869" lon="3.71093">
        <ele>1237.043</ele>
        <time>2012-05-23T15:22:13Z</time>
      </trkpt>
      <trkpt lat="44.31878" lon="3.71068">
        <ele>1234.465</ele>
        <time>2012-05-23T15:22:30Z</time>
      </trkpt>
      <trkpt lat="44.31888" lon="3.71041">
        <ele>1231.017</ele>
        <time>2012-05-23T15:22:48Z</time>
      </trkpt>
      <trkpt lat="44.31895" lon="3.71024">
        <ele>1227.983</ele>
        <time>2012-05-23T15:23:02Z</time>
      </trkpt>
      <trkpt lat="44.31904" lon="3.71006">
        <ele>1225.502</ele>
        <time>2012-05-23T15:23:16Z</time>
      </trkpt>
      <trkpt lat="44.31916" lon="3.70983">
        <ele>1222.375</ele>
        <time>2012-05-23T15:23:35Z</time>
      </trkpt>
      <trkpt lat="44.31923" lon="3.70964">
        <ele>1219.318</ele>
        <time>2012-05-23T15:23:48Z</time>
      </trkpt>
      <trkpt lat="44.31925" lon="3.70959">
        <ele>1218.432</ele>
        <time>2012-05-23T15:23:52Z</time>
      </trkpt>
      <trkpt lat="44.31927" lon="3.70955">
        <ele>1217.97</ele>
        <time>2012-05-23T15:23:55Z</time>
      </trkpt>
      <trkpt lat="44.3194" lon="3.70926">
        <ele>1215.032</ele>
        <time>2012-05-23T15:24:17Z</time>
      </trkpt>
      <trkpt lat="44.31953" lon="3.70901">
        <ele>1213.656</ele>
        <time>2012-05-23T15:24:36Z</time>
      </trkpt>
      <trkpt lat="44.31966" lon="3.70875">
        <ele>1210.985</ele>
        <time>2012-05-23T15:24:56Z</time>
      </trkpt>
      <trkpt lat="44.31973" lon="3.70856">
        <ele>1209.377</ele>
        <time>2012-05-23T15:25:15Z</time>
      </trkpt>
      <trkpt lat="44.31972" lon="3.70851">
        <ele>1208.007</ele>
        <time>2012-05-23T15:25:18Z</time>
      </trkpt>
      <trkpt lat="44.31968" lon="3.70845">
        <ele>1206.718</ele>
        <time>2012-05-23T15:25:25Z</time>
      </trkpt>
      <trkpt lat="44.31945" lon="3.70847">
        <ele>1204.253</ele>
        <time>2012-05-23T15:25:45Z</time>
      </trkpt>
      <trkpt lat="44.31941" lon="3.70848">
        <ele>1203.739</ele>
        <time>2012-05-23T15:25:49Z</time>
      </trkpt>
      <trkpt lat="44.31918" lon="3.70856">
        <ele>1200.556</ele>
        <time>2012-05-23T15:26:10Z</time>
      </trkpt>
      <trkpt lat="44.31904" lon="3.70862">
        <ele>1198.448</ele>
        <time>2012-05-23T15:26:25Z</time>
      </trkpt>
      <trkpt lat="44.31899" lon="3.70865">
        <ele>1198.236</ele>
        <time>2012-05-23T15:26:53Z</time>
      </trkpt>
      <trkpt lat="44.31895" lon="3.70866">
        <ele>1197.618</ele>
        <time>2012-05-23T15:26:57Z</time>
      </trkpt>
      <trkpt lat="44.31893" lon="3.70868">
        <ele>1197.52</ele>
        <time>2012-05-23T15:26:59Z</time>
      </trkpt>
      <trkpt lat="44.31869" lon="3.70876">
        <ele>1195.976</ele>
        <time>2012-05-23T15:27:19Z</time>
      </trkpt>
      <trkpt lat="44.31862" lon="3.70877">
        <ele>1195.577</ele>
        <time>2012-05-23T15:27:26Z</time>
      </trkpt>
      <trkpt lat="44.31844" lon="3.70891">
        <ele>1192.193</ele>
        <time>2012-05-23T15:27:44Z</time>
      </trkpt>
      <trkpt lat="44.31835" lon="3.70894">
        <ele>1191.047</ele>
        <time>2012-05-23T15:27:53Z</time>
      </trkpt>
      <trkpt lat="44.31831" lon="3.70895">
        <ele>1190.458</ele>
        <time>2012-05-23T15:27:57Z</time>
      </trkpt>
      <trkpt lat="44.31814" lon="3.70898">
        <ele>1188.817</ele>
        <time>2012-05-23T15:28:13Z</time>
      </trkpt>
      <trkpt lat="44.31799" lon="3.70903">
        <ele>1187.287</ele>
        <time>2012-05-23T15:28:26Z</time>
      </trkpt>
      <trkpt lat="44.31781" lon="3.70896">
        <ele>1187.304</ele>
        <time>2012-05-23T15:28:44Z</time>
      </trkpt>
      <trkpt lat="44.31769" lon="3.70883">
        <ele>1185.355</ele>
        <time>2012-05-23T15:28:58Z</time>
      </trkpt>
      <trkpt lat="44.31751" lon="3.70886">
        <ele>1182.135</ele>
        <time>2012-05-23T15:29:13Z</time>
      </trkpt>
      <trkpt lat="44.31732" lon="3.70891">
        <ele>1178.928</ele>
        <time>2012-05-23T15:29:31Z</time>
      </trkpt>
      <trkpt lat="44.31726" lon="3.709">
        <ele>1177.435</ele>
        <time>2012-05-23T15:29:40Z</time>
      </trkpt>
      <trkpt lat="44.31724" lon="3.70901">
        <ele>1177.019</ele>
        <time>2012-05-23T15:29:42Z</time>
      </trkpt>
      <trkpt lat="44.31711" lon="3.70911">
        <ele>1175.484</ele>
        <time>2012-05-23T15:29:55Z</time>
      </trkpt>
      <trkpt lat="44.31705" lon="3.70909">
        <ele>1173.801</ele>
        <time>2012-05-23T15:30:01Z</time>
      </trkpt>
      <trkpt lat="44.31702" lon="3.70902">
        <ele>1174.267</ele>
        <time>2012-05-23T15:30:06Z</time>
      </trkpt>
      <trkpt lat="44.31687" lon="3.70887">
        <ele>1171.291</ele>
        <time>2012-05-23T15:30:24Z</time>
      </trkpt>
      <trkpt lat="44.31674" lon="3.70893">
        <ele>1168.145</ele>
        <time>2012-05-23T15:30:36Z</time>
      </trkpt>
      <trkpt lat="44.31654" lon="3.70907">
        <ele>1165.06</ele>
        <time>2012-05-23T15:30:55Z</time>
      </trkpt>
      <trkpt lat="44.31632" lon="3.70904">
        <ele>1163.044</ele>
        <time>2012-05-23T15:31:14Z</time>
      </trkpt>
      <trkpt lat="44.31609" lon="3.70909">
        <ele>1159.758</ele>
        <time>2012-05-23T15:31:34Z</time>
      </trkpt>
      <trkpt lat="44.31586" lon="3.70918">
        <ele>1157.718</ele>
        <time>2012-05-23T15:31:55Z</time>
      </trkpt>
      <trkpt lat="44.31554" lon="3.70929">
        <ele>1155.859</ele>
        <time>2012-05-23T15:32:24Z</time>
      </trkpt>
      <trkpt lat="44.31551" lon="3.70929">
        <ele>1155.605</ele>
        <time>2012-05-23T15:32:26Z</time>
      </trkpt>
      <trkpt lat="44.31537" lon="3.70944">
        <ele>1154.984</ele>
        <time>2012-05-23T15:32:41Z</time>
      </trkpt>
      <trkpt lat="44.31528" lon="3.70972">
        <ele>1153.705</ele>
        <time>2012-05-23T15:33:00Z</time>
      </trkpt>
      <trkpt lat="44.31519" lon="3.70976">
        <ele>1153.245</ele>
        <time>2012-05-23T15:33:08Z</time>
      </trkpt>
      <trkpt lat="44.31501" lon="3.7096">
        <ele>1151.497</ele>
        <time>2012-05-23T15:33:28Z</time>
      </trkpt>
      <trkpt lat="44.31475" lon="3.70949">
        <ele>1148.384</ele>
        <time>2012-05-23T15:33:51Z</time>
      </trkpt>
      <trkpt lat="44.31448" lon="3.70941">
        <ele>1145.337</ele>
        <time>2012-05-23T15:34:14Z</time>
      </trkpt>
      <trkpt lat="44.31426" lon="3.70938">
        <ele>1144.229</ele>
        <time>2012-05-23T15:34:33Z</time>
      </trkpt>
      <trkpt lat="44.31404" lon="3.70942">
        <ele>1140.978</ele>
        <time>2012-05-23T15:34:53Z</time>
      </trkpt>
      <trkpt lat="44.31381" lon="3.70956">
        <ele>1137.7</ele>
        <time>2012-05-23T15:35:16Z</time>
      </trkpt>
      <trkpt lat="44.3137" lon="3.70963">
        <ele>1135.947</ele>
        <time>2012-05-23T15:35:29Z</time>
      </trkpt>
      <trkpt lat="44.31349" lon="3.70968">
        <ele>1133.311</ele>
        <time>2012-05-23T15:35:49Z</time>
      </trkpt>
      <trkpt lat="44.31333" lon="3.70963">
        <ele>1132.197</ele>
        <time>2012-05-23T15:36:05Z</time>
      </trkpt>
      <trkpt lat="44.31316" lon="3.70962">
        <ele>1129.36</ele>
        <time>2012-05-23T15:36:21Z</time>
      </trkpt>
      <trkpt lat="44.31293" lon="3.70952">
        <ele>1126.406</ele>
        <time>2012-05-23T15:36:43Z</time>
      </trkpt>
      <trkpt lat="44.3127" lon="3.70939">
        <ele>1124.171</ele>
        <time>2012-05-23T15:37:05Z</time>
      </trkpt>
      <trkpt lat="44.3125" lon="3.70931">
        <ele>1122.187</ele>
        <time>2012-05-23T15:37:24Z</time>
      </trkpt>
      <trkpt lat="44.31248" lon="3.70929">
        <ele>1121.209</ele>
        <time>2012-05-23T15:37:46Z</time>
      </trkpt>
      <trkpt lat="44.31241" lon="3.70931">
        <ele>1120.656</ele>
        <time>2012-05-23T15:38:07Z</time>
      </trkpt>
      <trkpt lat="44.31225" lon="3.70919">
        <ele>1119.039</ele>
        <time>2012-05-23T15:38:23Z</time>
      </trkpt>
      <trkpt lat="44.312" lon="3.70907">
        <ele>1115.79</ele>
        <time>2012-05-23T15:38:45Z</time>
      </trkpt>
      <trkpt lat="44.31182" lon="3.70898">
        <ele>1112.378</ele>
        <time>2012-05-23T15:39:01Z</time>
      </trkpt>
      <trkpt lat="44.31178" lon="3.70892">
        <ele>1111.805</ele>
        <time>2012-05-23T15:39:05Z</time>
      </trkpt>
      <trkpt lat="44.31169" lon="3.70858">
        <ele>1109.47</ele>
        <time>2012-05-23T15:39:27Z</time>
      </trkpt>
      <trkpt lat="44.31157" lon="3.70838">
        <ele>1106.028</ele>
        <time>2012-05-23T15:39:43Z</time>
      </trkpt>
      <trkpt lat="44.31144" lon="3.70822">
        <ele>1102.9</ele>
        <time>2012-05-23T15:39:58Z</time>
      </trkpt>
      <trkpt lat="44.31144" lon="3.70806">
        <ele>1100.711</ele>
        <time>2012-05-23T15:40:14Z</time>
      </trkpt>
      <trkpt lat="44.31145" lon="3.70807">
        <ele>1100.755</ele>
        <time>2012-05-23T15:40:19Z</time>
      </trkpt>
      <trkpt lat="44.31153" lon="3.70814">
        <ele>1098.428</ele>
        <time>2012-05-23T15:40:29Z</time>
      </trkpt>
      <trkpt lat="44.31175" lon="3.70815">
        <ele>1096.493</ele>
        <time>2012-05-23T15:40:48Z</time>
      </trkpt>
      <trkpt lat="44.31191" lon="3.70807">
        <ele>1093.441</ele>
        <time>2012-05-23T15:41:01Z</time>
      </trkpt>
      <trkpt lat="44.31214" lon="3.70793">
        <ele>1093.975</ele>
        <time>2012-05-23T15:41:21Z</time>
      </trkpt>
      <trkpt lat="44.31238" lon="3.70787">
        <ele>1093.247</ele>
        <time>2012-05-23T15:41:40Z</time>
      </trkpt>
      <trkpt lat="44.31248" lon="3.70785">
        <ele>1093.169</ele>
        <time>2012-05-23T15:41:49Z</time>
      </trkpt>
      <trkpt lat="44.31257" lon="3.70784">
        <ele>1093.007</ele>
        <time>2012-05-23T15:41:56Z</time>
      </trkpt>
      <trkpt lat="44.31282" lon="3.70773">
        <ele>1091.739</ele>
        <time>2012-05-23T15:42:17Z</time>
      </trkpt>
      <trkpt lat="44.31304" lon="3.7077">
        <ele>1091.156</ele>
        <time>2012-05-23T15:42:36Z</time>
      </trkpt>
      <trkpt lat="44.31327" lon="3.70774">
        <ele>1090.145</ele>
        <time>2012-05-23T15:42:55Z</time>
      </trkpt>
      <trkpt lat="44.31339" lon="3.70774">
        <ele>1089.586</ele>
        <time>2012-05-23T15:43:06Z</time>
      </trkpt>
      <trkpt lat="44.31358" lon="3.70761">
        <ele>1087.407</ele>
        <time>2012-05-23T15:43:25Z</time>
      </trkpt>
      <trkpt lat="44.31375" lon="3.70731">
        <ele>1085.656</ele>
        <time>2012-05-23T15:43:47Z</time>
      </trkpt>
      <trkpt lat="44.31395" lon="3.70727">
        <ele>1083.106</ele>
        <time>2012-05-23T15:44:05Z</time>
      </trkpt>
      <trkpt lat="44.31402" lon="3.70726">
        <ele>1082.588</ele>
        <time>2012-05-23T15:44:10Z</time>
      </trkpt>
      <trkpt lat="44.31406" lon="3.70723">
        <ele>1082.525</ele>
        <time>2012-05-23T15:44:14Z</time>
      </trkpt>
      <trkpt lat="44.31409" lon="3.70717">
        <ele>1082.537</ele>
        <time>2012-05-23T15:44:18Z</time>
      </trkpt>
      <trkpt lat="44.31409" lon="3.7071">
        <ele>1082.022</ele>
        <time>2012-05-23T15:44:22Z</time>
      </trkpt>
      <trkpt lat="44.31396" lon="3.70675">
        <ele>1079.812</ele>
        <time>2012-05-23T15:44:45Z</time>
      </trkpt>
      <trkpt lat="44.31378" lon="3.7066">
        <ele>1077.126</ele>
        <time>2012-05-23T15:45:01Z</time>
      </trkpt>
      <trkpt lat="44.31361" lon="3.70636">
        <ele>1074.481</ele>
        <time>2012-05-23T15:45:22Z</time>
      </trkpt>
      <trkpt lat="44.31353" lon="3.70615">
        <ele>1071.878</ele>
        <time>2012-05-23T15:45:36Z</time>
      </trkpt>
      <trkpt lat="44.31341" lon="3.70578">
        <ele>1069.141</ele>
        <time>2012-05-23T15:46:01Z</time>
      </trkpt>
      <trkpt lat="44.31329" lon="3.70544">
        <ele>1066.714</ele>
        <time>2012-05-23T15:46:22Z</time>
      </trkpt>
      <trkpt lat="44.31332" lon="3.70513">
        <ele>1063.018</ele>
        <time>2012-05-23T15:46:41Z</time>
      </trkpt>
      <trkpt lat="44.31347" lon="3.70487">
        <ele>1061.393</ele>
        <time>2012-05-23T15:47:02Z</time>
      </trkpt>
      <trkpt lat="44.31374" lon="3.70461">
        <ele>1058.955</ele>
        <time>2012-05-23T15:47:29Z</time>
      </trkpt>
      <trkpt lat="44.31391" lon="3.70441">
        <ele>1055.931</ele>
        <time>2012-05-23T15:47:48Z</time>
      </trkpt>
      <trkpt lat="44.31415" lon="3.70413">
        <ele>1053.85</ele>
        <time>2012-05-23T15:48:14Z</time>
      </trkpt>
      <trkpt lat="44.31439" lon="3.70397">
        <ele>1049.897</ele>
        <time>2012-05-23T15:48:36Z</time>
      </trkpt>
      <trkpt lat="44.31462" lon="3.70381">
        <ele>1048.349</ele>
        <time>2012-05-23T15:48:57Z</time>
      </trkpt>
      <trkpt lat="44.31474" lon="3.70373">
        <ele>1046.246</ele>
        <time>2012-05-23T15:49:08Z</time>
      </trkpt>
      <trkpt lat="44.31497" lon="3.70351">
        <ele>1044.911</ele>
        <time>2012-05-23T15:49:29Z</time>
      </trkpt>
      <trkpt lat="44.31514" lon="3.70338">
        <ele>1041.44</ele>
        <time>2012-05-23T15:49:45Z</time>
      </trkpt>
      <trkpt lat="44.31528" lon="3.70358">
        <ele>1039.885</ele>
        <time>2012-05-23T15:50:03Z</time>
      </trkpt>
      <trkpt lat="44.31535" lon="3.70368">
        <ele>1038.847</ele>
        <time>2012-05-23T15:50:17Z</time>
      </trkpt>
      <trkpt lat="44.31541" lon="3.7037">
        <ele>1038.642</ele>
        <time>2012-05-23T15:50:22Z</time>
      </trkpt>
      <trkpt lat="44.31569" lon="3.7038">
        <ele>1036.101</ele>
        <time>2012-05-23T15:50:45Z</time>
      </trkpt>
      <trkpt lat="44.31576" lon="3.7039">
        <ele>1035.627</ele>
        <time>2012-05-23T15:50:53Z</time>
      </trkpt>
      <trkpt lat="44.3158" lon="3.70402">
        <ele>1034.874</ele>
        <time>2012-05-23T15:51:01Z</time>
      </trkpt>
      <trkpt lat="44.31581" lon="3.70405">
        <ele>1034.133</ele>
        <time>2012-05-23T15:51:03Z</time>
      </trkpt>
      <trkpt lat="44.31582" lon="3.70409">
        <ele>1034.237</ele>
        <time>2012-05-23T15:51:05Z</time>
      </trkpt>
      <trkpt lat="44.31587" lon="3.70419">
        <ele>1033.209</ele>
        <time>2012-05-23T15:51:12Z</time>
      </trkpt>
      <trkpt lat="44.31589" lon="3.70421">
        <ele>1032.829</ele>
        <time>2012-05-23T15:51:14Z</time>
      </trkpt>
      <trkpt lat="44.31601" lon="3.70427">
        <ele>1031.264</ele>
        <time>2012-05-23T15:51:27Z</time>
      </trkpt>
      <trkpt lat="44.31614" lon="3.70423">
        <ele>1030.797</ele>
        <time>2012-05-23T15:51:35Z</time>
      </trkpt>
      <trkpt lat="44.31621" lon="3.70411">
        <ele>1030.12</ele>
        <time>2012-05-23T15:51:44Z</time>
      </trkpt>
      <trkpt lat="44.31621" lon="3.70386">
        <ele>1029.251</ele>
        <time>2012-05-23T15:51:57Z</time>
      </trkpt>
      <trkpt lat="44.31618" lon="3.70348">
        <ele>1027.353</ele>
        <time>2012-05-23T15:52:17Z</time>
      </trkpt>
      <trkpt lat="44.31618" lon="3.70339">
        <ele>1026.629</ele>
        <time>2012-05-23T15:52:22Z</time>
      </trkpt>
      <trkpt lat="44.31618" lon="3.70305">
        <ele>1024.854</ele>
        <time>2012-05-23T15:52:41Z</time>
      </trkpt>
      <trkpt lat="44.31609" lon="3.70284">
        <ele>1025.92</ele>
        <time>2012-05-23T15:52:54Z</time>
      </trkpt>
      <trkpt lat="44.31599" lon="3.70246">
        <ele>1023.403</ele>
        <time>2012-05-23T15:53:17Z</time>
      </trkpt>
      <trkpt lat="44.31596" lon="3.70213">
        <ele>1022.25</ele>
        <time>2012-05-23T15:53:37Z</time>
      </trkpt>
      <trkpt lat="44.31597" lon="3.70198">
        <ele>1021.057</ele>
        <time>2012-05-23T15:53:47Z</time>
      </trkpt>
      <trkpt lat="44.31607" lon="3.70171">
        <ele>1018.192</ele>
        <time>2012-05-23T15:54:06Z</time>
      </trkpt>
      <trkpt lat="44.31605" lon="3.70147">
        <ele>1017.724</ele>
        <time>2012-05-23T15:54:19Z</time>
      </trkpt>
      <trkpt lat="44.3161" lon="3.7011">
        <ele>1014.876</ele>
        <time>2012-05-23T15:54:42Z</time>
      </trkpt>
      <trkpt lat="44.31622" lon="3.70068">
        <ele>1011.969</ele>
        <time>2012-05-23T15:55:08Z</time>
      </trkpt>
      <trkpt lat="44.31631" lon="3.70036">
        <ele>1008.915</ele>
        <time>2012-05-23T15:55:29Z</time>
      </trkpt>
      <trkpt lat="44.3164" lon="3.7001">
        <ele>1007.085</ele>
        <time>2012-05-23T15:55:46Z</time>
      </trkpt>
      <trkpt lat="44.31657" lon="3.69981">
        <ele>1003.772</ele>
        <time>2012-05-23T15:56:07Z</time>
      </trkpt>
      <trkpt lat="44.31658" lon="3.6998">
        <ele>1003.77</ele>
        <time>2012-05-23T15:56:08Z</time>
      </trkpt>
      <trkpt lat="44.31661" lon="3.69977">
        <ele>1002.026</ele>
        <time>2012-05-23T15:56:12Z</time>
      </trkpt>
      <trkpt lat="44.31682" lon="3.69962">
        <ele>1000.968</ele>
        <time>2012-05-23T15:56:30Z</time>
      </trkpt>
      <trkpt lat="44.31685" lon="3.69954">
        <ele>1001.104</ele>
        <time>2012-05-23T15:56:35Z</time>
      </trkpt>
      <trkpt lat="44.31684" lon="3.69921">
        <ele>997.913</ele>
        <time>2012-05-23T15:56:53Z</time>
      </trkpt>
      <trkpt lat="44.31679" lon="3.69883">
        <ele>995.469</ele>
        <time>2012-05-23T15:57:15Z</time>
      </trkpt>
      <trkpt lat="44.31679" lon="3.69849">
        <ele>993.173</ele>
        <time>2012-05-23T15:57:36Z</time>
      </trkpt>
      <trkpt lat="44.31679" lon="3.69846">
        <ele>993.077</ele>
        <time>2012-05-23T15:57:38Z</time>
      </trkpt>
      <trkpt lat="44.31678" lon="3.69812">
        <ele>989.769</ele>
        <time>2012-05-23T15:57:58Z</time>
      </trkpt>
      <trkpt lat="44.3168" lon="3.69774">
        <ele>986.922</ele>
        <time>2012-05-23T15:58:20Z</time>
      </trkpt>
      <trkpt lat="44.31681" lon="3.69767">
        <ele>986.291</ele>
        <time>2012-05-23T15:58:25Z</time>
      </trkpt>
      <trkpt lat="44.31686" lon="3.69733">
        <ele>985.511</ele>
        <time>2012-05-23T15:58:47Z</time>
      </trkpt>
      <trkpt lat="44.31686" lon="3.6969">
        <ele>984.943</ele>
        <time>2012-05-23T15:59:14Z</time>
      </trkpt>
      <trkpt lat="44.31691" lon="3.69665">
        <ele>983.176</ele>
        <time>2012-05-23T15:59:30Z</time>
      </trkpt>
      <trkpt lat="44.31709" lon="3.6965">
        <ele>983.037</ele>
        <time>2012-05-23T15:59:48Z</time>
      </trkpt>
      <trkpt lat="44.31723" lon="3.69661">
        <ele>981.546</ele>
        <time>2012-05-23T16:00:04Z</time>
      </trkpt>
      <trkpt lat="44.31745" lon="3.69692">
        <ele>979.141</ele>
        <time>2012-05-23T16:00:31Z</time>
      </trkpt>
      <trkpt lat="44.31759" lon="3.6972">
        <ele>977.079</ele>
        <time>2012-05-23T16:00:52Z</time>
      </trkpt>
      <trkpt lat="44.31773" lon="3.69749">
        <ele>975.542</ele>
        <time>2012-05-23T16:01:13Z</time>
      </trkpt>
      <trkpt lat="44.31788" lon="3.69752">
        <ele>974.748</ele>
        <time>2012-05-23T16:01:25Z</time>
      </trkpt>
      <trkpt lat="44.31808" lon="3.69732">
        <ele>973.277</ele>
        <time>2012-05-23T16:01:45Z</time>
      </trkpt>
      <trkpt lat="44.31814" lon="3.69711">
        <ele>971.884</ele>
        <time>2012-05-23T16:02:06Z</time>
      </trkpt>
      <trkpt lat="44.31811" lon="3.69711">
        <ele>972.026</ele>
        <time>2012-05-23T16:02:09Z</time>
      </trkpt>
      <trkpt lat="44.31809" lon="3.69713">
        <ele>971.44</ele>
        <time>2012-05-23T16:02:11Z</time>
      </trkpt>
      <trkpt lat="44.31794" lon="3.69727">
        <ele>968.812</ele>
        <time>2012-05-23T16:02:26Z</time>
      </trkpt>
      <trkpt lat="44.31783" lon="3.69708">
        <ele>967.805</ele>
        <time>2012-05-23T16:02:40Z</time>
      </trkpt>
      <trkpt lat="44.31769" lon="3.69664">
        <ele>967.033</ele>
        <time>2012-05-23T16:03:06Z</time>
      </trkpt>
      <trkpt lat="44.31759" lon="3.69634">
        <ele>965.218</ele>
        <time>2012-05-23T16:03:25Z</time>
      </trkpt>
      <trkpt lat="44.31754" lon="3.6962">
        <ele>963.802</ele>
        <time>2012-05-23T16:03:34Z</time>
      </trkpt>
      <trkpt lat="44.31741" lon="3.69599">
        <ele>960.46</ele>
        <time>2012-05-23T16:03:50Z</time>
      </trkpt>
      <trkpt lat="44.31718" lon="3.69571">
        <ele>958.182</ele>
        <time>2012-05-23T16:04:14Z</time>
      </trkpt>
      <trkpt lat="44.31711" lon="3.69565">
        <ele>956.112</ele>
        <time>2012-05-23T16:04:20Z</time>
      </trkpt>
      <trkpt lat="44.31703" lon="3.6956">
        <ele>955.76</ele>
        <time>2012-05-23T16:04:27Z</time>
      </trkpt>
      <trkpt lat="44.317" lon="3.69557">
        <ele>955.972</ele>
        <time>2012-05-23T16:04:30Z</time>
      </trkpt>
      <trkpt lat="44.31697" lon="3.69557">
        <ele>954.279</ele>
        <time>2012-05-23T16:04:32Z</time>
      </trkpt>
      <trkpt lat="44.31695" lon="3.69556">
        <ele>954.437</ele>
        <time>2012-05-23T16:04:34Z</time>
      </trkpt>
      <trkpt lat="44.31676" lon="3.69549">
        <ele>953.443</ele>
        <time>2012-05-23T16:04:50Z</time>
      </trkpt>
      <trkpt lat="44.31647" lon="3.69548">
        <ele>950.881</ele>
        <time>2012-05-23T16:05:13Z</time>
      </trkpt>
      <trkpt lat="44.31627" lon="3.69554">
        <ele>949.094</ele>
        <time>2012-05-23T16:05:31Z</time>
      </trkpt>
      <trkpt lat="44.31609" lon="3.6956">
        <ele>947.755</ele>
        <time>2012-05-23T16:05:47Z</time>
      </trkpt>
      <trkpt lat="44.31597" lon="3.69562">
        <ele>945.735</ele>
        <time>2012-05-23T16:05:56Z</time>
      </trkpt>
      <trkpt lat="44.31581" lon="3.69573">
        <ele>942.609</ele>
        <time>2012-05-23T16:06:13Z</time>
      </trkpt>
      <trkpt lat="44.31577" lon="3.6958">
        <ele>942.449</ele>
        <time>2012-05-23T16:06:18Z</time>
      </trkpt>
      <trkpt lat="44.31575" lon="3.69581">
        <ele>941.697</ele>
        <time>2012-05-23T16:06:20Z</time>
      </trkpt>
      <trkpt lat="44.31561" lon="3.69608">
        <ele>938.863</ele>
        <time>2012-05-23T16:06:40Z</time>
      </trkpt>
      <trkpt lat="44.31558" lon="3.69614">
        <ele>938.346</ele>
        <time>2012-05-23T16:07:01Z</time>
      </trkpt>
      <trkpt lat="44.31556" lon="3.69614">
        <ele>937.229</ele>
        <time>2012-05-23T16:08:12Z</time>
      </trkpt>
      <trkpt lat="44.31556" lon="3.69602">
        <ele>935.813</ele>
        <time>2012-05-23T16:08:25Z</time>
      </trkpt>
      <trkpt lat="44.31548" lon="3.69602">
        <ele>931.836</ele>
        <time>2012-05-23T16:08:53Z</time>
      </trkpt>
      <trkpt lat="44.31544" lon="3.69602">
        <ele>930.325</ele>
        <time>2012-05-23T16:10:13Z</time>
      </trkpt>
      <trkpt lat="44.31539" lon="3.69618">
        <ele>929.7</ele>
        <time>2012-05-23T16:11:02Z</time>
      </trkpt>
      <trkpt lat="44.31539" lon="3.6962">
        <ele>929.501</ele>
        <time>2012-05-23T16:11:16Z</time>
      </trkpt>
    </trkseg>
  </trk>
</gpx>